[[{"header":{"parameterUnit":"m.s-1","parameterCategory":1,"la1":31.0,"la2":29.5877,"lo1":-88.7671,"lo2":-86.6584,"dy":0.0162,"dx":0.0185,"nx":115,"ny":88,"refTime":"2023-07-26T06:00:00:Z","depth":0,"parameterNumber":2,"parameterNumberName":"U-component_of_WINDS"},"data":[0.0,0.0,0.0,0.0,0.0,0.0,0.0,0.0,0.0,0.0,0.0,0.0,0.0,0.0,0.0,0.0,0.0,0.0,0.0,0.0,0.0,0.0,0.0,0.0,0.0,0.0,0.0,0.0,0.0,0.0,0.0,0.0,0.0,0.0,0.0,0.0,0.0,0.0,0.0,0.0,0.0,0.0,0.0,0.0,0.0,0.0,0.0,0.0,0.0,0.0,0.0,0.0,0.0,0.0,0.0,0.0,0.0,0.0,0.0,0.0,0.0,0.0,0.0,0.0,0.0,0.0,0.0,0.0,0.0,0.0,0.0,0.0,0.0,0.0,0.0,0.0,0.0,0.0,0.0,0.0,0.0,0.0,0.0,0.0,0.0,0.0,0.0,0.0,0.0,0.0,0.0,0.0,0.0,0.0,0.0,0.0,0.0,0.0,0.0,0.0,0.0,0.0,0.0,0.0,0.0,0.0,0.0,0.0,0.0,0.0,0.0,0.0,0.0,0.0,0.0,0.0,0.0,0.0,0.0,0.0,0.0,0.0,0.0,0.0,0.0,0.0,0.0,0.0,0.0,0.0,0.0,0.0,0.0,0.0,0.0,0.0,0.0,0.0,0.0,0.0,0.0,0.0,0.0,0.0,0.0,0.0,0.0,0.0,0.0,0.0,0.0,0.0,0.0,0.0,0.0,0.0,0.0,0.0,0.0,0.0,0.0,0.0,0.0,0.0,0.0,0.0,0.0,0.0,0.0,0.0,0.0,0.0,0.0,0.0,0.0,0.0,0.0,0.0,0.0,0.0,0.0,0.0,0.0,0.0,0.0,0.0,0.0,0.0,0.0,0.0,0.0,0.0,0.0,0.0,0.0,0.0,0.0,0.0,0.0,0.0,0.0,0.0,0.0,0.0,0.0,0.0,0.0,0.0,0.0,0.0,0.0,0.0,0.0,0.0,0.0,0.0,0.0,0.0,0.0,0.0,0.0,0.0,0.0,0.0,0.0,0.0,0.0,0.0,0.0,0.0,0.0,0.0,0.0,0.0,0.0,0.0,0.0,0.0,0.0,0.0,0.0,0.0,0.0,0.0,0.0,0.0,0.0,0.0,0.0,0.0,0.0,0.0,0.0,0.0,0.0,0.0,0.0,0.0,0.0,0.0,0.0,0.0,0.0,0.0,0.0,0.0,0.0,0.0,0.0,0.0,0.0,0.0,0.0,0.0,0.0,0.0,0.0,0.0,0.0,0.0,0.0,0.0,0.0,0.0,0.0,0.0,0.0,0.0,0.0,0.0,0.0,0.0,0.0,0.0,0.0,0.0,0.0,0.0,0.0,0.0,0.0,0.0,0.0,0.0,0.0,0.0,0.0,0.0,0.0,0.0,0.0,0.0,0.0,0.0,0.0,0.0,0.0,0.0,0.0,0.0,0.0,0.0,0.0,0.0,0.0,0.0,0.0,0.0,0.0,0.0,0.0,0.0,0.0,0.0,0.0,0.0,0.0,0.0,0.0,0.0,0.0,0.0,0.0,0.0,0.0,0.0,0.0,0.0,0.0,0.0,0.0,0.0,0.0,0.0,0.0,0.0,0.0,0.0,0.0,0.0,0.0,0.0,0.0,0.0,0.0,0.0,0.0,0.0,0.0,0.0,0.0,0.0,0.0,0.0,0.0,0.0,0.0,0.0,0.0,0.0,0.0,0.0,0.0,0.0,0.0,0.0,0.0,0.0,0.0,0.0,0.0,0.0,0.0,0.0,0.0,0.0,0.0,0.0,0.0,0.0,0.0,0.0,0.0,0.0,0.0,0.0,0.0,0.0,0.0,0.0,0.0,0.0,0.0,0.0,0.0,0.0,0.0,0.0,0.0,0.0,0.0,0.0,0.0,0.0,0.0,0.0,0.0,0.0,0.0,0.0,0.0,0.0,0.0,0.0,0.0,0.0,0.0,0.0,0.0,0.0,0.0,0.0,0.0,0.0,0.0,0.0,0.0,0.0,0.0,0.0,0.0,0.0,0.0,0.0,0.0,0.0,0.0,0.0,0.0,0.0,0.0,0.0,0.0,0.0,0.0,0.0,0.0,0.0,0.0,0.0,0.0,0.0,0.0,0.0,0.0,0.0,0.0,0.0,0.0,0.0,0.0,0.0,0.0,0.0,0.0,0.0,0.0,0.0,0.0,0.0,0.0,0.0,0.0,0.0,0.0,0.0,0.0,0.0,0.0,0.0,0.0,0.0,0.0,0.0,0.0,0.0,0.0,0.0,0.0,0.0,0.0,0.0,0.0,0.0,0.0,0.0,0.0,0.0,0.0,0.0,0.0,0.0,0.0,0.0,0.0,0.0,0.0,0.0,0.0,0.0,0.0,0.0,0.0,0.0,0.0,0.0,0.0,0.0,0.0,0.0,0.0,0.0,0.0,0.0,0.0,0.0,0.0,0.0,0.0,0.0,0.0,0.0,0.0,0.0,0.0,0.0,0.0,0.0,0.0,0.0,0.0,0.0,0.0,0.0,0.0,0.0,0.0,0.0,0.0,0.0,0.0,0.0,0.0,0.0,0.0,0.0,0.0,0.0,0.0,0.0,0.0,0.0,0.0,0.0,0.0,0.0,0.0,0.0,0.0,0.0,0.0,0.0,0.0,0.0,0.0,0.0,0.0,0.0,0.0,0.0,0.0,0.0,0.0,0.0,0.0,0.0,0.0,0.0,0.0,0.0,0.0,0.0,0.0,0.0,0.0,0.0,0.0,0.0,0.0,0.0,0.0,0.0,0.0,0.0,0.0,0.0,0.0,0.0,0.0,0.0,0.0,0.0,0.0,0.0,0.0,0.0,0.0,0.0,0.0,0.0,0.0,0.0,0.0,0.0,0.0,0.0,0.0,0.0,0.0,0.0,0.0,0.0,0.0,0.0,0.0,0.0,0.0,0.0,0.0,0.0,0.0,0.0,0.0,0.0,0.0,0.0,0.0,0.0,0.0,0.0,0.0,0.0,0.0,0.0,0.0,0.0,0.0,0.0,0.0,0.0,0.0,0.0,0.0,0.0,0.0,0.0,0.0,0.0,0.0,0.0,0.0,0.0,0.0,0.0,0.0,0.0,0.0,0.0,0.0,0.0,0.0,0.0,0.0,0.0,0.0,0.0,0.0,0.0,0.0,0.0,0.0,0.0,0.0,0.0,0.0,0.0,0.0,0.0,0.0,0.0,0.0,0.0,0.0,0.0,0.0,0.0,0.0,0.0,0.0,0.0,0.0,0.0,0.0,0.0,0.0,0.0,0.0,0.0,0.0,0.0,0.0,0.0,0.0,0.0,0.0,0.0,0.0,0.0,0.0,0.0,0.0,0.0,0.0,0.0,0.0,0.0,0.0,0.0,0.0,0.0,0.0,0.0,0.0,0.0,0.0,0.0,0.0,0.0,0.0,0.0,0.0,0.0,0.0,0.0,0.0,0.0,0.0,0.0,0.0,0.0,0.0,0.0,0.0,0.0,0.0,0.0,0.0,0.0,0.0,0.0,0.0,0.0,0.0,0.0,0.0,0.0,0.0,0.0,0.0,0.0,0.0,0.0,0.0,0.0,0.0,0.0,0.0,0.0,0.0,0.0,0.0,0.0,0.0,0.0,0.0,0.0,0.0,0.0,0.0,0.0,0.0,0.0,0.0,0.0,0.0,0.0,0.0,0.0,0.0,0.0,0.0,0.0,0.0,0.0,0.0,0.0,0.0,0.0,0.0,0.0,0.0,0.0,0.0,0.0,0.0,0.0,0.0,0.0,0.0,0.0,0.0,0.0,0.0,0.0,0.0,0.0,0.0,0.0,0.0,0.0,0.0,0.0,0.0,0.0,0.0,0.0,0.0,0.0,0.0,0.0,0.0,0.0,0.0,0.0,0.0,0.0,0.0,0.0,0.0,0.0,0.0,0.0,0.0,0.0,0.0,0.0,0.0,0.0,0.0,0.0,0.0,0.0,0.0,0.0,0.0,0.0,0.0,0.0,0.0,0.0,0.0,0.0,0.0,0.0,0.0,0.0,0.0,0.0,0.0,0.0,0.0,0.0,0.0,0.0,0.0,0.0,0.0,0.0,0.0,0.0,0.0,0.0,0.0,0.0,0.0,0.0,0.0,0.0,0.0,0.0,0.0,0.0,0.0,0.0,0.0,0.0,0.0,0.0,0.0,0.0,0.0,0.0,0.0,0.0,0.0,0.0,0.0,0.0,0.0,0.0,0.0,0.0,0.0,0.0,0.0,0.0,0.0,0.0,0.0,0.0,0.0,0.0,0.0,0.0,0.0,0.0,0.8094,0.0,0.0,0.0,0.0,0.0,0.0,0.0,0.0,0.0,0.0,0.0,0.0,0.0,0.0,0.0,0.0,0.0,0.0,0.0,0.0,0.0,0.0,0.0,0.0,0.0,0.0,0.0,0.0,0.0,0.0,0.0,0.0,0.0,0.0,0.0,0.0,0.0,0.0,0.0,0.0,0.0,0.0,0.0,0.0,0.0,0.0,0.0,0.0,0.0,0.0,0.0,0.0,0.0,0.0,0.0,0.0,0.0,0.0,0.0,0.0,0.0,0.0,0.0,0.0,0.0,0.0,0.0,0.0,0.0,0.0,0.0,0.0,0.0,0.0,0.0,0.0,0.0,0.0,0.0,0.0,0.0,0.0,0.0,0.0,0.0,0.0,0.0,0.0,0.0,0.0,0.0,0.0,0.0,0.0,0.0,0.0,0.0,0.0,0.0,0.0,0.0,0.0,0.0,0.0,0.0,0.0,0.0,0.0,0.0,0.0,0.8255,0.7901,0.9188,0.9332,0.8115,0.0,0.0,0.0,0.0,0.0,0.0,0.0,0.0,0.0,0.0,0.0,0.0,0.0,0.0,0.0,0.0,0.0,0.0,0.0,0.0,0.0,0.0,0.0,0.0,0.0,0.0,0.0,0.0,0.0,0.0,0.0,0.0,0.0,0.0,0.0,0.0,0.0,0.0,0.0,0.0,0.0,0.0,0.0,0.0,0.0,0.0,0.0,0.0,0.0,0.0,0.0,0.0,0.0,0.0,0.0,0.0,0.0,0.0,0.0,0.0,0.0,0.0,0.0,0.0,0.0,0.0,0.0,0.0,0.0,0.0,0.0,0.0,0.0,0.0,0.0,0.0,0.0,0.0,0.0,0.0,0.0,0.0,0.0,0.0,0.0,0.0,0.0,0.0,0.0,0.0,0.0,0.0,0.0,0.0,0.0,0.0,0.0,0.0,0.0,0.0,0.0,0.0,0.0,0.0,0.0,0.0,0.0,0.0,0.0,0.0,0.0,0.0,0.9621,0.9889,0.9244,0.0,0.0,0.0,0.0,0.0,0.0,0.0,0.0,0.0,0.0,0.0,0.0,0.0,0.0,0.0,0.0,0.0,0.0,0.0,0.0,0.0,0.0,0.0,0.0,0.0,0.0,0.0,0.0,0.0,0.0,0.0,0.0,0.0,0.0,0.0,0.0,0.0,0.0,0.0,0.0,0.0,0.0,0.0,0.0,0.0,0.0,0.0,0.0,0.0,0.0,0.0,0.0,0.0,0.0,0.0,0.0,0.0,0.0,0.0,0.0,0.0,0.0,0.0,0.0,0.0,0.0,0.0,0.0,0.0,0.0,0.0,0.0,0.0,0.0,0.0,0.0,0.0,0.0,0.0,0.0,0.0,0.0,0.0,0.0,0.0,0.0,0.0,0.0,0.0,0.0,0.0,0.0,0.0,0.0,0.0,0.0,0.0,0.0,0.0,0.0,0.0,0.0,0.0,0.0,0.0,0.0,0.0,0.0,0.0,0.0,0.8815,1.0224,1.0447,0.0,1.2243,0.0,0.0,0.0,0.0,0.0,0.0,0.0,0.0,0.0,0.0,0.0,0.0,0.0,0.0,0.0,0.0,0.0,0.0,0.0,0.0,0.0,0.0,0.0,0.0,0.0,0.0,0.0,0.0,0.0,0.0,0.0,0.0,0.0,0.0,0.0,0.0,0.0,0.0,0.0,0.0,0.0,0.0,0.0,0.0,0.0,0.0,0.0,0.0,0.0,0.0,0.0,0.0,0.0,0.0,0.0,0.0,0.0,0.0,0.0,0.0,0.0,0.0,0.0,0.0,0.0,0.0,0.0,0.0,0.0,0.0,0.0,0.0,0.0,0.0,0.0,0.0,0.0,0.0,0.0,0.0,0.0,0.0,0.0,0.0,0.0,0.0,0.0,0.0,0.0,0.0,0.0,0.0,0.0,0.0,0.0,0.0,0.0,0.0,0.0,0.0,0.0,0.0,0.0,0.0,0.0,0.0,0.0,0.0,0.0,0.0,0.8961,1.0479,1.0623,1.1056,0.0,0.0,0.0,0.0,0.0,0.0,0.0,0.0,0.0,0.0,0.0,0.0,0.0,0.0,0.0,0.0,0.0,0.0,0.0,0.0,0.0,0.0,0.0,0.0,0.0,0.0,0.0,0.0,0.0,0.0,0.0,0.0,0.0,0.0,0.0,0.0,0.0,0.0,0.0,0.0,0.0,0.0,0.0,0.0,0.0,0.0,0.0,0.0,0.0,0.0,0.0,0.0,0.0,0.0,0.0,0.0,0.0,0.0,0.0,0.0,0.0,0.0,0.0,0.0,0.0,0.0,0.0,0.0,0.0,0.0,0.0,0.0,0.0,0.0,0.0,0.0,0.0,0.0,0.0,0.0,0.0,0.0,0.0,0.0,0.0,0.0,0.0,0.0,0.0,0.0,0.0,0.0,0.0,0.0,0.0,0.0,0.0,0.0,0.0,0.0,0.0,0.0,0.0,0.0,0.0,0.0,0.0,0.0,0.0,0.0,0.9211,0.9735,1.1124,1.0991,1.1028,1.1422,0.0,0.0,0.0,0.0,0.0,0.0,0.0,0.0,0.0,0.0,0.0,0.0,0.0,0.0,0.0,0.0,0.0,0.0,0.0,0.0,0.0,0.0,0.0,0.0,0.0,0.0,0.0,0.0,0.0,0.0,0.0,0.0,0.0,0.0,0.0,0.0,0.0,0.0,0.0,0.0,0.0,0.0,0.0,0.0,0.0,0.0,0.0,0.0,0.0,0.0,0.0,0.0,0.0,0.0,0.0,0.0,0.0,0.0,0.0,0.0,0.0,0.0,0.0,0.0,0.0,0.0,0.0,0.0,0.0,0.0,0.0,0.0,0.0,0.0,0.0,0.0,0.0,0.0,0.0,0.0,0.0,0.0,0.0,0.0,0.0,0.0,0.0,0.0,0.0,0.0,0.0,0.0,0.0,0.0,0.0,0.0,0.0,0.0,0.0,0.0,0.0,0.0,0.0,0.0,0.0,0.0,0.0,0.0,1.2464,1.1399,1.151,1.2924,1.1704,1.138,0.0,0.0,0.0,0.0,0.0,0.0,0.0,0.0,0.0,0.0,0.0,0.0,0.0,0.0,0.0,0.0,0.0,0.0,0.0,0.0,0.0,0.0,0.0,0.0,0.0,0.0,0.0,0.0,0.0,0.0,0.0,0.0,0.0,0.0,0.0,0.0,0.0,0.0,0.0,0.0,0.0,0.0,0.0,0.0,0.0,0.0,0.0,0.0,0.0,0.0,0.0,0.0,0.0,0.0,0.0,0.0,0.0,0.0,0.0,0.0,0.0,0.0,0.0,0.0,0.0,0.0,0.0,0.0,0.0,0.0,0.0,0.0,0.0,0.0,0.0,0.0,0.0,0.0,0.0,0.0,0.0,0.0,0.0,0.0,0.0,0.0,0.0,0.0,0.0,0.0,0.0,0.0,0.0,0.0,0.0,0.0,0.0,0.0,0.0,0.0,0.0,0.0,0.0,0.0,0.0,0.0,0.0,0.0,0.0,1.0241,1.1132,1.1705,1.1906,1.1824,1.1772,0.0,0.0,0.0,0.0,0.0,0.0,0.0,0.0,0.0,0.0,0.0,0.0,0.0,0.0,0.0,0.0,0.0,0.0,0.0,0.0,0.0,0.0,0.0,0.0,0.0,0.0,0.0,0.0,0.0,0.0,0.0,0.0,0.0,0.0,0.0,0.0,0.0,0.0,0.0,0.0,0.0,0.0,0.0,0.0,0.0,0.0,0.0,0.0,0.0,0.0,0.0,0.0,0.0,0.0,0.0,0.0,0.0,0.0,0.0,0.0,0.0,0.0,0.0,0.0,0.0,0.0,0.0,0.0,0.0,0.0,0.0,0.0,0.0,0.0,0.0,0.0,0.0,0.0,0.0,0.0,0.0,0.0,0.0,0.0,0.0,0.0,0.0,0.0,0.0,0.0,0.0,0.0,0.0,0.0,0.0,0.0,0.0,0.0,0.0,0.0,0.0,0.0,0.0,0.0,0.0,0.0,0.0,0.0,0.0,0.9954,0.0,1.2269,1.196,1.1934,1.1675,0.0,0.0,0.0,0.0,0.0,0.0,0.0,0.0,0.0,0.0,0.0,0.0,0.0,0.0,0.0,0.0,0.0,0.0,0.0,0.0,0.0,0.0,0.0,0.0,0.0,0.0,0.0,0.0,0.0,0.0,0.0,0.0,0.0,0.0,0.0,0.0,0.0,0.0,0.0,0.0,0.0,0.0,0.0,0.0,0.0,0.0,0.0,0.0,0.0,0.0,0.0,0.0,0.0,0.0,0.0,0.0,0.0,0.0,0.0,0.0,0.0,0.0,0.0,0.0,0.0,0.0,0.0,0.0,0.0,0.0,0.0,0.0,0.0,0.0,0.0,0.0,0.0,0.0,0.0,0.0,0.0,0.0,0.0,0.0,0.0,0.0,0.0,0.0,0.0,0.0,0.0,0.0,0.0,0.0,0.0,0.0,0.0,0.0,0.0,0.0,0.0,0.0,0.0,0.0,0.0,0.0,0.0,0.0,0.9729,1.212,1.2854,1.326,1.3444,1.2141,1.107,0.0,0.0,0.0,0.0,0.0,0.0,0.0,0.0,0.0,0.0,0.0,0.0,0.0,0.0,0.0,0.0,0.0,0.0,0.0,0.0,0.0,0.0,0.0,0.0,0.0,0.0,0.0,0.0,0.0,0.0,0.0,0.0,0.0,0.0,0.0,0.0,0.0,0.0,0.0,0.0,0.0,0.0,0.0,0.0,0.0,0.0,0.0,0.0,0.0,0.0,0.0,0.0,0.0,0.0,0.0,0.0,0.0,0.0,0.0,0.0,0.0,0.0,0.0,0.0,0.0,0.0,0.0,0.0,0.0,0.0,0.0,0.0,0.0,0.0,0.0,0.0,0.0,0.0,0.0,0.0,0.0,0.0,0.0,0.0,0.0,0.0,0.0,0.0,0.0,0.0,0.0,0.0,0.0,0.0,0.0,0.0,0.0,0.0,0.0,0.0,0.0,0.0,0.0,0.0,0.0,0.0,0.0,0.0,0.0,1.0645,1.1942,1.2933,1.3555,1.2273,1.2002,0.0,0.0,0.0,0.0,0.0,0.0,0.0,0.0,0.0,0.0,0.0,0.0,0.0,0.0,0.0,0.0,0.0,0.0,0.0,0.0,0.0,0.0,0.0,0.0,0.0,0.0,0.0,0.0,0.0,0.0,0.0,0.0,0.0,0.0,0.0,0.0,0.0,0.0,0.0,0.0,0.0,0.0,0.0,0.0,0.0,0.0,0.0,0.0,0.0,0.0,0.0,0.0,0.0,0.0,0.0,0.0,0.0,0.0,0.0,0.0,0.0,0.0,0.0,0.0,0.0,0.0,0.0,0.0,0.0,0.0,0.0,0.0,0.0,0.0,0.0,0.0,0.0,0.0,0.0,0.0,0.0,0.0,0.0,0.0,0.0,0.0,0.0,0.0,0.0,0.0,0.0,0.0,0.0,0.0,0.0,0.0,0.0,0.0,0.0,0.0,0.0,0.0,0.0,0.0,0.0,0.0,0.0,0.0,0.0,1.1666,1.2681,1.3539,1.4197,1.286,1.2622,1.3604,0.0,0.0,0.0,0.0,0.0,0.0,0.0,0.0,0.0,0.0,0.0,0.0,0.0,0.0,0.0,0.0,0.0,0.0,0.0,0.0,0.0,0.0,0.0,0.0,0.0,0.0,0.0,0.0,0.0,0.0,0.0,0.0,0.0,0.0,0.0,0.0,0.0,0.0,0.0,0.0,0.0,0.0,0.0,0.0,0.0,0.0,0.0,0.0,0.0,0.0,0.0,0.0,0.0,0.0,0.0,0.0,0.0,0.0,0.0,0.0,0.0,0.0,0.0,0.0,0.0,0.0,0.0,0.0,0.0,0.0,0.0,0.0,0.0,0.0,0.0,0.0,0.0,0.0,0.0,0.0,0.0,0.0,0.0,0.0,0.0,0.0,0.0,0.0,0.0,0.0,0.0,0.0,0.0,0.0,0.0,0.0,0.0,0.0,0.0,0.0,0.0,0.0,0.0,0.0,0.0,0.0,0.0,0.0,1.4534,1.4796,1.5053,1.5286,1.3854,1.305,0.0,0.0,0.0,0.0,0.0,0.0,0.0,0.0,0.0,0.0,0.0,0.0,0.0,0.0,0.0,0.0,0.0,0.0,0.0,0.0,0.0,0.0,0.0,0.0,0.0,0.0,0.0,0.0,0.0,0.0,0.0,0.0,0.0,0.0,0.0,0.0,0.0,0.0,0.0,0.0,0.0,0.0,0.0,0.0,0.0,0.0,0.0,0.0,0.0,0.0,0.0,0.0,0.0,0.0,0.0,0.0,0.0,0.0,0.0,0.0,0.0,0.0,0.0,0.0,0.0,0.0,0.0,0.0,0.0,0.0,0.0,0.0,0.0,0.0,0.0,0.0,0.0,0.0,0.0,0.0,0.0,0.0,0.0,0.0,0.0,0.0,0.0,0.0,0.0,0.0,0.0,0.0,0.0,0.0,0.0,0.0,0.0,0.0,0.0,0.0,0.0,0.0,0.0,0.0,0.0,0.0,0.0,0.0,0.0,1.4828,1.5975,1.6902,1.752,1.5142,1.4369,0.0,0.0,0.0,0.0,0.0,0.0,0.0,0.0,0.0,0.0,0.0,0.0,0.0,0.0,0.0,0.0,0.0,0.0,0.0,0.0,0.0,0.0,0.0,0.0,0.0,0.0,0.0,0.0,0.0,0.0,0.0,0.0,0.0,0.0,0.0,0.0,0.0,0.0,0.0,0.0,0.0,0.0,0.0,0.0,0.0,0.0,0.0,0.0,0.0,0.0,0.0,0.0,0.0,0.0,0.0,0.0,0.0,0.0,0.0,0.0,0.0,0.0,0.0,0.0,0.0,0.0,0.0,0.0,0.0,0.0,0.0,0.0,0.0,0.0,0.0,0.0,0.0,0.0,0.0,0.0,0.0,0.0,0.0,0.0,0.0,0.0,0.0,0.0,0.0,0.0,0.0,0.0,0.0,0.0,0.0,0.0,0.0,0.0,0.0,0.0,0.0,0.0,0.0,0.0,0.0,0.0,0.0,0.0,1.399,1.5854,1.7113,1.8167,1.9019,1.6824,1.5749,0.0,0.0,0.0,0.0,0.0,0.0,0.0,0.0,0.0,0.0,0.0,0.0,0.0,0.0,0.0,0.0,0.0,0.0,0.0,0.0,0.0,0.0,0.0,0.0,0.0,0.0,0.0,0.0,0.0,0.0,0.0,0.0,0.0,0.0,0.0,0.0,0.0,0.0,0.0,0.0,0.0,0.0,0.0,0.0,0.0,0.0,0.0,0.0,0.0,0.0,0.0,0.0,0.0,0.0,0.0,0.0,0.0,0.0,0.0,0.0,0.0,0.0,0.0,0.0,0.0,0.0,0.0,0.0,0.0,0.0,0.0,0.0,0.0,0.0,0.0,0.0,0.0,0.0,0.0,0.0,0.0,0.0,0.0,0.0,0.0,0.0,0.0,0.0,0.0,0.0,0.0,0.0,0.0,0.0,0.0,0.0,0.0,0.0,0.0,0.0,0.0,0.0,0.0,0.0,0.0,0.0,0.0,0.0,1.5361,1.7088,1.8006,1.8878,1.9611,1.8376,1.7013,0.0,0.0,0.0,0.0,0.0,0.0,0.0,0.0,0.0,0.0,0.0,0.0,0.0,0.0,0.0,0.0,0.0,0.0,0.0,0.0,0.0,0.0,0.0,0.0,0.0,0.0,0.0,0.0,0.0,0.0,0.0,0.0,0.0,0.0,0.0,0.0,0.0,0.0,0.0,0.0,0.0,0.0,0.0,0.0,0.0,0.0,0.0,0.0,0.0,0.0,0.0,0.0,0.0,0.0,0.0,0.0,0.0,0.0,0.0,0.0,0.0,0.0,0.0,0.0,0.0,0.0,0.0,0.0,0.0,0.0,0.0,0.0,0.0,0.0,0.0,0.0,0.0,0.0,0.0,0.0,0.0,0.0,0.0,0.0,0.0,0.0,0.0,0.0,0.0,0.0,0.0,0.0,0.0,0.0,0.0,0.0,0.0,0.0,0.0,0.0,0.0,0.0,0.0,0.0,0.0,0.0,0.0,0.0,1.5397,1.7199,1.8062,1.8614,1.8833,1.8057,1.7231,0.0,0.0,0.0,0.0,0.0,0.0,0.0,0.0,0.0,0.0,0.0,0.0,0.0,0.0,0.0,0.0,0.0,0.0,0.0,0.0,0.0,0.0,0.0,0.0,0.0,0.0,0.0,0.0,0.0,0.0,0.0,0.0,0.0,0.0,0.0,0.0,0.0,0.0,0.0,0.0,0.0,0.0,0.0,0.0,0.0,0.0,0.0,0.0,1.7753,0.0,0.0,0.0,0.0,0.0,0.0,0.0,0.0,0.0,0.0,0.0,0.0,0.0,0.0,0.0,0.0,0.0,0.0,0.0,0.0,0.0,0.0,0.0,0.0,0.0,0.0,0.0,0.0,0.0,0.0,0.0,0.0,0.0,0.0,0.0,0.0,0.0,0.0,0.0,0.0,0.0,0.0,0.0,0.0,0.0,0.0,0.0,0.0,0.0,0.0,0.0,0.0,0.0,0.0,0.0,0.0,0.0,0.0,0.0,1.5758,1.7254,1.8081,1.8544,1.8585,1.8324,1.768,0.0,0.0,0.0,0.0,0.0,0.0,0.0,0.0,0.0,0.0,0.0,0.0,0.0,0.0,0.0,0.0,0.0,0.0,0.0,0.0,0.0,0.0,0.0,0.0,0.0,0.0,0.0,0.0,0.0,0.0,0.0,0.0,0.0,0.0,0.0,0.0,0.0,0.0,0.0,0.0,0.0,0.0,0.0,0.0,0.0,0.0,0.0,0.0,0.0,0.0,0.0,0.0,0.0,0.0,0.0,0.0,0.0,0.0,0.0,0.0,0.0,0.0,0.0,0.0,0.0,0.0,0.0,0.0,0.0,0.0,0.0,0.0,0.0,0.0,0.0,0.0,0.0,0.0,0.0,0.0,0.0,0.0,0.0,0.0,0.0,0.0,0.0,0.0,0.0,0.0,0.0,0.0,0.0,0.0,0.0,0.0,0.0,0.0,0.0,0.0,0.0,0.0,0.0,0.0,0.0,0.0,0.0,1.4993,1.6222,1.7447,1.8151,1.8526,1.8603,1.8715,1.8143,1.6791,0.0,0.0,0.0,0.0,0.0,0.0,0.0,0.0,0.0,0.0,0.0,0.0,0.0,0.0,0.0,0.0,0.0,0.0,0.0,0.0,0.0,0.0,0.0,0.0,0.0,0.0,0.0,0.0,0.0,0.0,0.0,0.0,0.0,0.0,0.0,0.0,0.0,0.0,1.6842,1.895,0.0,0.0,0.0,0.0,0.0,0.0,0.0,0.0,2.1048,0.0,0.0,0.0,0.0,0.0,0.0,0.0,0.0,0.0,0.0,0.0,0.0,0.0,0.0,0.0,0.0,0.0,0.0,0.0,0.0,0.0,0.0,0.0,0.0,0.0,0.0,0.0,0.0,0.0,0.0,0.0,0.0,0.0,0.0,0.0,0.0,0.0,0.0,0.0,0.0,0.0,0.0,0.0,0.0,0.0,0.0,0.0,0.0,0.0,0.0,0.0,0.0,0.0,0.0,0.0,0.0,1.5377,1.5651,1.6576,1.8257,1.8432,1.8524,1.8603,1.8678,1.809,1.6795,0.0,0.0,0.0,0.0,0.0,0.0,0.0,0.0,0.0,0.0,0.0,0.0,0.0,0.0,0.0,0.0,0.0,0.0,0.0,0.0,0.0,0.0,0.0,0.0,0.0,0.0,0.0,0.0,0.0,0.0,0.0,0.0,0.0,0.0,0.0,0.0,0.0,0.0,0.0,1.9625,2.0539,0.0,0.0,0.0,0.0,0.0,0.0,0.0,0.0,2.1321,0.0,0.0,0.0,0.0,0.0,0.0,0.0,0.0,0.0,0.0,0.0,0.0,0.0,0.0,0.0,0.0,0.0,0.0,0.0,0.0,0.0,0.0,0.0,0.0,0.0,0.0,0.0,0.0,0.0,0.0,0.0,0.0,0.0,0.0,0.0,0.0,0.0,0.0,0.0,0.0,0.0,0.0,0.0,0.0,0.0,0.0,0.0,0.0,0.0,0.0,0.0,0.0,0.0,0.0,0.0,1.5754,1.6504,1.7417,1.8467,1.8485,1.8524,1.8601,1.877,1.8158,0.0,0.0,0.0,0.0,0.0,0.0,0.0,0.0,0.0,0.0,0.0,0.0,0.0,0.0,0.0,0.0,0.0,0.0,0.0,0.0,0.0,0.0,0.0,0.0,0.0,0.0,0.0,0.0,0.0,0.0,0.0,0.0,0.0,0.0,0.0,0.0,0.0,0.0,0.0,0.0,2.018,2.1254,2.2059,0.0,0.0,0.0,0.0,0.0,0.0,2.1445,2.1388,0.0,0.0,0.0,0.0,0.0,0.0,0.0,0.0,0.0,0.0,0.0,0.0,0.0,0.0,0.0,0.0,0.0,0.0,0.0,0.0,0.0,0.0,0.0,0.0,0.0,0.0,0.0,0.0,0.0,0.0,0.0,0.0,0.0,0.0,0.0,0.0,0.0,0.0,0.0,0.0,0.0,0.0,0.0,0.0,0.0,0.0,0.0,0.0,0.0,0.0,0.0,0.0,0.0,0.0,0.0,1.5805,1.7007,1.7941,1.8445,1.8465,1.8502,1.8579,1.8824,1.8208,0.0,0.0,0.0,0.0,0.0,0.0,0.0,0.0,0.0,0.0,0.0,0.0,0.0,0.0,0.0,0.0,0.0,0.0,0.0,0.0,0.0,0.0,0.0,0.0,0.0,0.0,0.0,0.0,0.0,0.0,0.0,0.0,0.0,0.0,0.0,0.0,0.0,0.0,0.0,0.0,0.0,2.2014,2.2483,2.2697,0.0,0.0,0.0,0.0,2.1952,2.1933,0.0,0.0,0.0,0.0,0.0,0.0,0.0,0.0,0.0,0.0,0.0,0.0,0.0,0.0,0.0,0.0,0.0,0.0,0.0,0.0,0.0,0.0,0.0,0.0,0.0,0.0,0.0,0.0,0.0,0.0,0.0,0.0,0.0,0.0,0.0,0.0,0.0,0.0,0.0,0.0,0.0,0.0,0.0,0.0,0.0,0.0,0.0,0.0,0.0,0.0,0.0,0.0,0.0,0.0,0.0,0.0,1.5771,1.6492,1.7329,1.8351,1.8368,1.8388,1.8505,1.8714,1.8108,0.0,0.0,0.0,0.0,0.0,0.0,0.0,0.0,0.0,0.0,0.0,0.0,0.0,0.0,0.0,0.0,0.0,0.0,0.0,0.0,0.0,0.0,0.0,0.0,0.0,0.0,0.0,0.0,0.0,0.0,0.0,0.0,0.0,0.0,0.0,0.0,0.0,0.0,0.0,0.0,0.0,2.2477,2.1743,2.2312,2.2746,0.0,0.0,2.2824,2.3509,2.3613,0.0,0.0,0.0,0.0,0.0,0.0,0.0,0.0,0.0,0.0,0.0,0.0,0.0,0.0,0.0,0.0,0.0,0.0,0.0,0.0,0.0,0.0,0.0,0.0,0.0,0.0,0.0,0.0,0.0,0.0,0.0,0.0,0.0,0.0,0.0,0.0,0.0,0.0,0.0,0.0,0.0,0.0,0.0,0.0,0.0,0.0,0.0,0.0,0.0,0.0,0.0,0.0,0.0,0.0,0.0,1.4684,1.5692,1.6733,1.7629,1.831,1.831,1.833,1.8388,1.8734,1.8176,0.0,0.0,0.0,0.0,0.0,0.0,0.0,0.0,0.0,0.0,0.0,0.0,0.0,0.0,0.0,0.0,0.0,0.0,0.0,0.0,0.0,0.0,0.0,0.0,0.0,0.0,0.0,0.0,0.0,0.0,0.0,0.0,0.0,0.0,0.0,0.0,0.0,0.0,0.0,0.0,0.0,0.0,2.3563,2.3554,0.0,0.0,0.0,2.3247,2.3077,0.0,0.0,0.0,0.0,0.0,0.0,0.0,0.0,0.0,0.0,0.0,0.0,0.0,0.0,0.0,0.0,0.0,0.0,0.0,0.0,0.0,0.0,0.0,0.0,0.0,0.0,0.0,0.0,0.0,0.0,0.0,0.0,0.0,0.0,0.0,0.0,0.0,0.0,0.0,0.0,0.0,0.0,0.0,0.0,0.0,0.0,0.0,0.0,0.0,0.0,0.0,0.0,0.0,0.0,0.0,0.0,0.0,1.5598,1.6951,1.7866,1.8304,1.8287,1.8287,1.8325,1.8717,0.0,0.0,0.0,0.0,0.0,0.0,0.0,0.0,0.0,0.0,0.0,0.0,0.0,0.0,0.0,0.0,0.0,0.0,0.0,0.0,0.0,0.0,0.0,0.0,0.0,0.0,0.0,1.5543,0.0,0.0,0.0,0.0,0.0,0.0,0.0,0.0,0.0,0.0,0.0,0.0,0.0,0.0,2.4358,2.473,2.4349,2.4042,0.0,0.0,2.3562,2.307,2.3431,2.3616,0.0,0.0,0.0,0.0,0.0,0.0,0.0,0.0,0.0,0.0,0.0,0.0,0.0,0.0,0.0,0.0,0.0,0.0,0.0,0.0,0.0,0.0,0.0,0.0,0.0,0.0,0.0,0.0,0.0,0.0,0.0,0.0,0.0,0.0,0.0,0.0,0.0,0.0,0.0,0.0,0.0,0.0,0.0,0.0,0.0,0.0,0.0,0.0,0.0,0.0,0.0,0.0,0.0,0.0,1.5234,1.5632,1.6925,1.7816,1.8277,1.8236,1.8253,1.8298,1.8623,1.8089,0.0,0.0,0.0,0.0,0.0,0.0,0.0,0.0,0.0,0.0,0.0,0.0,0.0,0.0,0.0,0.0,0.0,0.0,0.0,0.0,0.0,0.0,0.0,0.0,0.0,0.0,0.0,0.0,0.0,0.0,0.0,0.0,0.0,0.0,0.0,0.0,0.0,0.0,0.0,0.0,0.0,2.4127,2.3995,2.3894,2.4057,0.0,2.4136,2.3836,2.4444,2.4561,2.4647,2.4718,0.0,0.0,0.0,0.0,0.0,0.0,0.0,0.0,0.0,0.0,0.0,0.0,0.0,0.0,0.0,0.0,0.0,0.0,0.0,0.0,0.0,0.0,0.0,0.0,0.0,0.0,0.0,0.0,0.0,0.0,0.0,0.0,0.0,0.0,0.0,0.0,0.0,0.0,0.0,0.0,0.0,0.0,0.0,0.0,0.0,0.0,0.0,0.0,0.0,0.0,0.0,0.0,0.0,1.507,1.5539,1.6903,1.7789,1.8134,1.8134,1.8113,1.813,1.8526,1.8235,0.0,0.0,0.0,0.0,0.0,0.0,0.0,0.0,0.0,0.0,0.0,0.0,0.0,0.0,0.0,0.0,0.0,0.0,0.0,0.0,0.0,0.0,0.0,0.0,0.0,0.0,0.0,0.0,1.7265,1.766,1.8234,0.0,0.0,0.0,0.0,0.0,0.0,0.0,0.0,0.0,0.0,2.4792,2.4606,2.4555,0.0,0.0,2.4193,2.3888,2.4755,2.437,2.4181,2.4785,2.4893,0.0,0.0,0.0,0.0,0.0,0.0,0.0,0.0,0.0,0.0,0.0,0.0,0.0,0.0,0.0,0.0,0.0,0.0,0.0,0.0,0.0,0.0,0.0,0.0,0.0,0.0,0.0,0.0,0.0,0.0,0.0,0.0,0.0,0.0,0.0,0.0,0.0,0.0,0.0,0.0,0.0,0.0,0.0,0.0,0.0,0.0,0.0,0.0,0.0,0.0,0.0,0.0,1.4935,1.5479,1.6837,1.7687,1.807,1.807,1.8048,1.8005,1.8448,1.8306,0.0,0.0,0.0,0.0,0.0,0.0,0.0,0.0,0.0,0.0,0.0,0.0,0.0,0.0,0.0,0.0,0.0,0.0,0.0,0.0,0.0,0.0,0.0,0.0,0.0,0.0,0.0,0.0,1.8334,1.8791,1.9937,0.0,0.0,0.0,0.0,0.0,0.0,0.0,0.0,0.0,0.0,2.5139,2.4743,2.4873,2.4917,2.4612,2.4263,2.4212,2.4847,2.4299,2.4028,2.47,0.0,0.0,0.0,0.0,0.0,0.0,0.0,0.0,0.0,0.0,0.0,0.0,0.0,0.0,0.0,0.0,0.0,0.0,0.0,0.0,0.0,0.0,0.0,0.0,0.0,0.0,0.0,1.481,0.0,0.0,1.4794,0.0,0.0,0.0,0.0,0.0,0.0,0.0,0.0,0.0,0.0,0.0,0.0,0.0,0.0,0.0,0.0,0.0,0.0,0.0,0.0,0.0,0.0,1.4853,1.5395,1.6708,1.7589,1.7983,1.8022,1.8022,1.8005,1.8388,1.8215,1.7436,0.0,0.0,0.0,0.0,0.0,0.0,0.0,0.0,0.0,0.0,0.0,0.0,0.0,0.0,0.0,0.0,0.0,0.0,0.0,0.0,0.0,0.0,0.0,0.0,0.0,0.0,1.9347,1.9285,1.998,0.0,0.0,0.0,0.0,0.0,0.0,0.0,0.0,0.0,2.5344,2.5357,2.4964,2.4105,2.456,2.4689,2.3812,2.4339,2.482,2.4799,2.4613,2.4522,0.0,0.0,0.0,0.0,0.0,0.0,0.0,0.0,0.0,0.0,0.0,0.0,0.0,0.0,0.0,0.0,0.0,0.0,0.0,0.0,0.0,0.0,0.0,0.0,0.0,0.0,0.0,1.4286,1.4597,0.0,0.0,0.0,0.0,0.0,0.0,0.0,0.0,0.0,0.0,0.0,2.021,2.048,0.0,0.0,0.0,0.0,0.0,0.0,0.0,0.0,0.0,0.0,0.0,0.0,1.4764,1.5119,1.6571,1.7455,1.7641,1.7811,1.7833,1.7811,1.8187,1.8215,1.7824,0.0,0.0,0.0,0.0,0.0,0.0,0.0,0.0,0.0,0.0,0.0,0.0,0.0,0.0,0.0,0.0,0.0,0.0,0.0,0.0,0.0,0.0,0.0,0.0,0.0,2.1604,0.0,0.0,0.0,0.0,0.0,0.0,0.0,0.0,0.0,0.0,2.4832,2.5247,2.5467,2.535,2.5146,2.4851,2.487,2.4847,0.0,0.0,0.0,0.0,0.0,0.0,0.0,0.0,0.0,0.0,0.0,0.0,0.0,0.0,2.2694,2.338,2.2956,2.2464,2.2464,0.0,0.0,0.0,0.0,0.0,0.0,0.0,0.0,0.0,0.0,0.0,0.0,0.0,0.0,1.5628,1.5857,1.5371,0.0,0.0,0.0,0.0,0.0,0.0,0.0,0.0,1.8781,1.959,2.0679,2.0695,2.0628,2.0494,2.0361,1.9811,0.0,0.0,0.0,0.0,0.0,0.0,0.0,0.0,1.5225,1.5379,1.6546,1.7296,1.7526,1.7658,1.7704,1.7664,1.8078,1.832,1.8444,1.9564,2.0192,0.0,0.0,0.0,0.0,0.0,0.0,0.0,0.0,0.0,0.0,0.0,0.0,0.0,0.0,0.0,0.0,0.0,0.0,0.0,0.0,0.0,0.0,0.0,2.303,0.0,0.0,0.0,0.0,0.0,0.0,0.0,0.0,0.0,2.4758,2.5229,2.5563,2.5511,2.5367,2.5129,2.486,0.0,0.0,0.0,0.0,0.0,0.0,0.0,2.4086,2.4447,2.4437,2.4352,2.4137,2.3803,2.3566,2.3464,0.0,0.0,2.3785,2.3347,2.2826,2.2826,2.2225,2.1586,2.1295,2.0555,1.9812,0.0,0.0,0.0,0.0,1.6526,0.0,0.0,0.0,1.7692,1.7755,0.0,1.7021,0.0,0.0,0.0,0.0,1.7399,1.7777,0.0,0.0,2.0055,2.0462,2.0478,2.0494,2.0494,2.046,2.0089,1.9984,2.0039,1.9559,0.0,0.0,0.0,0.0,0.0,0.0,1.6213,1.6117,1.6735,1.7257,1.7666,1.7673,1.7696,1.7736,1.8095,1.8616,1.9301,1.9393,1.9884,2.1048,2.0457,0.0,0.0,0.0,0.0,0.0,0.0,0.0,0.0,0.0,0.0,0.0,0.0,0.0,0.0,0.0,0.0,0.0,0.0,0.0,0.0,2.436,0.0,0.0,0.0,0.0,0.0,0.0,0.0,0.0,0.0,2.5591,2.5563,2.5585,2.5564,2.5525,0.0,0.0,0.0,0.0,2.4873,2.3907,2.4517,2.5038,2.4922,2.4657,2.4437,2.4318,0.0,0.0,2.3692,2.35,2.3351,2.3361,2.3194,2.3063,2.2807,2.284,2.287,2.2845,2.2683,2.2416,2.1623,2.0541,1.9596,1.6273,0.0,0.0,0.0,0.0,1.7238,1.7582,1.7844,1.7852,1.7945,1.8113,1.7731,0.0,0.0,0.0,0.0,0.0,0.0,1.819,1.9122,1.9088,1.942,2.0131,2.0131,2.0166,2.0204,2.0085,2.0115,2.0254,2.0153,1.9613,1.8654,0.0,0.0,0.0,0.0,1.5848,1.655,1.7283,1.8038,1.8877,1.8982,1.9161,1.9457,1.9542,1.9878,2.0586,2.1294,2.1627,2.1463,2.2062,0.0,0.0,0.0,0.0,0.0,0.0,0.0,0.0,0.0,0.0,0.0,0.0,0.0,0.0,0.0,0.0,0.0,0.0,0.0,2.5221,2.5257,2.5001,0.0,0.0,0.0,0.0,0.0,0.0,0.0,0.0,0.0,2.5668,2.5639,2.5593,0.0,0.0,2.5279,2.5081,2.5176,2.5148,2.474,2.4885,0.0,2.4792,2.465,2.4493,2.421,2.3771,2.3389,2.3109,2.2875,2.2678,2.2441,2.2286,2.2136,2.1953,2.2286,2.2538,2.2441,2.1878,2.1238,2.087,1.9714,1.863,1.7172,1.719,1.6794,1.6878,1.7249,1.7597,1.8051,1.8575,1.874,1.8806,1.8776,1.8533,1.8412,1.8429,1.8027,0.0,0.0,0.0,1.8429,1.9398,1.9196,1.9421,1.999,2.0005,2.0025,2.0045,1.9904,1.9955,2.0166,2.0061,1.9847,1.9504,0.0,1.8313,1.7541,1.7007,1.6967,1.7504,1.7968,1.8595,1.9394,1.9493,1.9717,2.011,2.0084,2.0379,2.1007,2.2059,2.2465,2.2136,2.2922,2.299,0.0,0.0,0.0,0.0,0.0,0.0,0.0,0.0,0.0,0.0,0.0,2.3018,2.3863,0.0,0.0,0.0,2.4508,2.5057,2.5622,2.5626,0.0,0.0,0.0,0.0,0.0,0.0,0.0,2.5696,2.5698,2.5697,2.5697,2.5671,2.5636,2.5595,2.5529,2.5467,2.5453,0.0,2.5293,2.5141,2.5044,2.4936,2.4743,2.4603,2.4355,2.386,2.3341,2.2917,2.2581,2.2292,2.201,2.1702,2.1538,2.1386,2.1134,2.1442,2.167,2.1523,2.0912,2.0237,1.9626,1.8626,1.7829,1.7948,1.7867,1.7022,1.7142,1.789,1.7963,1.8716,1.9904,1.9919,1.997,1.9925,1.9334,1.9012,1.8967,1.8049,0.0,1.9012,1.8723,1.9071,1.997,1.9955,1.9955,1.9985,1.9955,1.999,1.9955,1.9596,1.9596,1.9955,1.9632,1.9632,1.997,2.02,1.9931,1.9137,1.903,1.8965,1.8787,1.8817,1.9055,1.9547,1.9574,1.9793,2.0162,2.0187,2.0467,2.1066,2.2049,2.2694,2.296,2.3295,2.351,2.3561,0.0,0.0,0.0,0.0,0.0,0.0,0.0,0.0,0.0,0.0,0.0,0.0,0.0,0.0,0.0,2.5518,0.0,2.5605,2.5613,0.0,0.0,0.0,2.564,2.5702,2.5696,2.5705,2.5687,0.0,0.0,2.5702,2.5696,2.567,2.5605,2.5615,2.5565,2.5432,2.5425,2.5341,2.5164,2.5057,2.494,2.4757,2.4479,2.4002,2.331,2.2805,2.2361,2.1977,2.1609,2.1305,2.0991,2.0846,2.0714,2.0481,2.0369,2.0283,2.0092,1.9887,1.9321,1.8061,1.7506,1.7068,1.7406,1.738,1.7179,1.7437,1.8018,1.8451,1.8838,1.9169,1.9435,1.9538,1.9545,1.9375,1.9301,1.9286,1.9051,1.9066,1.9286,1.9337,1.9462,1.9669,1.9741,1.9777,1.9762,1.9777,1.9762,1.9777,1.969,1.969,1.9762,1.9741,1.9741,1.9762,1.9833,1.9572,1.9037,1.8682,1.8843,1.9529,1.9698,2.0136,2.0896,2.1121,2.1354,2.1602,2.1752,2.2073,2.2558,2.2986,2.3295,2.3587,2.3897,2.3886,2.339,2.3314,0.0,0.0,0.0,0.0,0.0,0.0,0.0,0.0,0.0,2.47,2.5502,0.0,2.5574,0.0,2.5525,2.5544,2.5664,2.5634,0.0,0.0,2.5687,2.5677,2.5705,2.57,2.5703,2.5696,2.5696,2.5693,2.5703,2.5701,2.5702,2.5681,2.5675,2.5632,2.5498,2.5471,2.5434,2.5333,2.5216,2.5122,2.486,2.4168,2.333,2.2659,2.2018,2.1439,2.0879,2.0569,2.0268,2.0028,1.9884,1.9758,1.96,1.9191,1.8653,1.8173,1.8265,1.8238,1.7256,1.6574,1.5976,1.7073,1.7073,1.7086,1.7083,1.717,1.8009,1.8563,1.8869,1.9049,1.9228,1.9428,1.9428,1.9428,1.9428,1.9428,1.9428,1.9413,1.9501,1.9501,1.9516,1.956,1.9545,1.9545,1.9581,1.956,1.9545,1.956,1.956,1.9581,1.9596,1.9581,1.9545,1.956,1.951,1.9444,1.918,1.9381,2.0033,2.0384,2.0827,2.1293,2.154,2.1781,2.1969,2.222,2.2552,2.2977,2.3236,2.345,2.3696,2.4037,2.4045,2.3759,2.3836,2.3779,0.0,0.0,0.0,0.0,0.0,0.0,0.0,0.0,0.0,0.0,0.0,2.56,2.5579,2.556,2.5581,2.5687,2.5636,2.5636,2.5694,2.5689,2.5699,2.5699,2.5703,2.5702,2.5703,2.5702,2.5702,2.5702,2.5672,2.5673,2.5687,2.5633,2.5586,2.5556,2.5542,2.5507,2.5444,2.5368,2.4934,2.4145,2.2246,2.0981,2.0989,2.0639,2.0206,1.9945,1.9558,1.9207,1.9008,1.8977,1.8916,1.876,1.8352,1.7698,1.7061,1.6747,1.6539,1.6186,1.5578,1.5045,1.6888,1.6888,1.6888,1.6581,1.6198,1.714,1.7906,1.8389,1.8517,1.8786,1.9259,1.9347,1.9376,1.9376,1.9376,1.9376,1.9376,1.9376,1.9376,1.9376,1.9391,1.9428,1.9428,1.9428,1.9428,1.9428,1.9428,1.9428,1.9428,1.9428,1.9428,1.9428,1.9413,1.9596,1.997,2.0041,2.0185,2.0478,2.0941,2.1183,2.1183,2.1417,2.1615,2.1827,2.2147,2.2508,2.2919,2.3157,2.3399,2.3606,2.3917,2.4114,2.4247,2.4338,2.4493,0.0,2.4809,0.0,0.0,0.0,0.0,0.0,0.0,0.0,0.0,2.5644,2.5639,2.5695,2.564,2.5623,2.5687,2.5642,2.5632,2.5701,2.5691,2.5701,2.5697,2.5676,2.5693,2.5701,2.5679,2.5676,2.5671,2.5632,2.5615,2.5582,2.4993,2.4643,2.496,2.525,2.5414,2.5074,2.4593,2.3236,2.2022,1.9768,1.8387,1.9091,1.903,1.8867,1.8965,1.8503,1.8118,1.8025,1.8027,1.8013,1.7851,1.746,1.6918,1.6077,1.5267,1.4796,1.4889,1.461,1.4264,1.6888,1.6888,1.6888,1.6769,1.6608,1.6795,1.6663,1.6329,1.6864,1.7605,1.8441,1.8935,1.9153,1.9139,1.9139,1.9153,1.9191,1.925,1.9339,1.9325,1.9391,1.9428,1.9428,1.9428,1.9428,1.9428,1.9428,1.9428,1.9428,1.9428,1.9428,1.9428,1.9545,1.969,1.9762,0.0,0.0,0.0,2.107,2.1103,2.1135,2.1526,2.1751,2.1811,2.2248,0.0,2.3045,2.3223,2.344,2.3743,2.3873,0.0,0.0,0.0,0.0,0.0,0.0,0.0,0.0,0.0,0.0,0.0,2.5282,2.5426,2.5606,2.5604,2.562,2.5693,2.5627,2.5629,2.5698,2.5696,2.5698,2.5703,2.5641,2.5634,2.5622,2.5632,2.5629,2.5615,2.563,2.5604,2.5483,2.5556,2.542,2.5016,2.3296,2.1909,2.1884,2.3778,2.4372,2.2249,2.0386,1.9035,1.8821,1.8295,1.7632,1.7955,1.7648,1.7437,1.7472,1.717,1.6883,1.6811,1.6909,1.6837,1.641,1.5958,1.5423,1.4531,1.3826,1.3497,1.394,1.3736,1.3416,1.6693,1.6705,1.6693,1.6498,0.0,1.6204,1.5858,1.54,1.6674,1.7768,1.8666,1.897,1.9064,1.9026,1.8693,1.8563,1.8498,1.8281,1.8325,1.86,1.8637,1.8811,1.9101,1.9116,1.9087,1.9101,1.9101,1.9116,1.9101,1.9101,1.9101,1.9101,1.9398,1.9639,1.9823,2.0376,2.081,2.107,2.1006,2.1071,2.1215,2.1573,2.1797,2.1857,2.2248,0.0,0.0,0.0,0.0,0.0,0.0,0.0,0.0,2.23,0.0,2.0982,2.1991,2.2686,2.286,2.3985,2.4766,2.4904,2.505,2.5288,2.5578,2.5601,2.5636,2.57,2.5663,2.5664,2.5703,2.5662,2.5636,2.5642,2.559,2.5565,2.5565,2.5511,2.5478,2.5531,2.548,2.4953,2.3363,2.3261,2.259,2.1281,1.9906,1.9033,1.9318,2.037,2.0634,1.9535,1.7326,1.6161,1.689,1.5932,1.5568,1.5899,1.6022,1.5947,1.5888,1.5876,1.5852,1.5728,1.5971,1.604,1.5384,1.4937,1.4395,1.3555,1.2769,1.2366,1.2648,1.2683,1.259,1.6436,1.6448,1.6436,1.6216,1.5844,1.579,1.558,1.5361,1.693,0.0,0.0,1.9006,1.9003,1.8936,1.8381,1.81,1.802,1.7548,1.7591,1.8049,1.8063,1.8321,1.8769,1.8822,1.8822,1.8822,1.8822,1.8822,1.8822,1.8822,1.8822,1.8822,1.9176,1.9566,1.9949,2.0413,2.0778,2.1054,2.0925,2.1007,2.1324,2.1526,2.1721,2.194,2.2203,2.2569,2.302,2.2605,2.2599,2.3033,2.2763,2.1774,2.0075,1.9961,1.9221,1.7683,1.9148,2.0348,2.0857,2.269,2.4046,2.4586,2.5092,2.5395,2.5522,2.5541,2.5593,2.5658,2.5684,2.5676,2.5687,2.5632,2.5605,2.5609,2.5531,2.5531,2.5544,2.5414,2.5143,2.4803,2.4432,2.3394,2.0488,2.0212,1.9509,1.7371,1.6703,1.6198,1.6224,1.6369,1.6873,1.7065,1.5121,1.3927,1.5031,1.4193,1.3117,1.4389,1.4652,1.4652,1.4562,1.4858,1.4937,1.4609,1.5071,1.511,1.4494,1.4027,1.3569,1.2803,1.2023,1.1394,1.1431,1.152,1.163,1.6244,1.6244,1.6231,1.6269,1.628,1.6164,1.6358,1.6692,1.6877,1.7398,1.8173,1.8631,1.8836,1.8836,1.8736,1.8679,1.8655,1.8607,1.8607,1.8693,1.8693,1.8736,1.8822,1.8822,1.8822,1.8822,1.8822,1.8822,1.8822,1.8784,1.8822,1.8822,1.9072,1.9515,2.0015,2.0054,2.0348,2.0975,2.0712,2.0877,2.1462,2.1432,2.1658,2.2124,2.2153,2.2542,2.3116,2.1183,2.0257,2.0637,1.9094,1.8058,1.7793,1.7849,1.782,1.761,1.7886,1.8854,2.0656,2.1195,2.2281,2.4295,2.5847,2.6288,2.5283,2.5329,2.5454,2.5523,2.5595,2.5605,2.5621,2.5585,2.5581,2.5574,2.5506,2.5476,2.5251,2.5031,2.4029,2.1792,2.1536,2.0512,1.7889,1.7504,1.7573,1.6884,1.5035,1.3301,1.2289,1.2771,1.4128,1.4493,1.2785,1.1741,1.2742,1.2895,1.3025,1.361,1.3894,1.3967,1.4007,1.4215,1.4215,1.3653,1.4147,1.4144,1.3295,1.2968,1.2623,1.1959,1.1397,1.1006,1.0805,1.0574,1.0448,1.62,1.62,1.62,1.6244,1.6275,1.6231,1.6479,1.6854,1.6803,1.717,1.7838,1.8009,1.804,1.7973,1.7632,1.7443,1.739,1.7319,1.7473,1.7765,1.8021,1.8333,1.863,1.8644,1.862,1.8644,1.8659,1.8659,1.8659,1.8644,1.8606,1.8577,1.9072,1.95,1.9945,2.0243,2.0614,2.1071,2.0861,2.1023,2.1661,2.1601,2.1257,2.059,2.0571,2.0298,1.9774,1.8726,1.8317,1.8662,1.7831,1.6833,1.5631,1.5615,1.517,1.4099,1.5074,1.6258,1.7452,1.8872,1.9971,2.0716,2.1468,2.151,2.0557,2.3834,2.5937,2.606,2.5747,2.549,2.5499,2.5444,2.5437,2.5436,2.3984,2.2967,2.2793,2.1352,1.9999,1.8896,1.8804,1.7755,1.4892,1.5106,1.4667,1.3362,1.2099,1.151,1.0898,1.1734,1.2613,1.2719,1.194,1.172,1.2224,1.2618,1.2958,1.3324,1.3238,1.3266,1.3331,1.3426,1.3226,1.3052,1.3369,1.3309,1.2543,1.2483,1.2169,1.1614,1.0928,1.0543,1.0424,1.0017,0.9608,1.61,1.6113,1.61,1.6113,1.6125,1.6279,1.6536,1.6784,1.6867,1.7102,1.7439,1.7461,1.7366,1.7231,1.689,1.6652,1.656,1.6548,1.6791,1.7238,1.756,1.7991,1.8411,1.8439,1.8439,1.8439,1.8439,1.8439,1.8425,1.8439,1.8425,1.8475,1.8959,1.9427,1.9894,2.0361,2.0844,2.123,2.1087,2.1276,2.1811,2.1738,2.0918,1.9458,1.9637,1.891,1.7158,1.6843,1.6716,1.6624,1.6217,1.5156,1.3479,1.3435,1.2707,1.1261,1.2658,1.4085,1.506,1.7442,1.8565,1.7769,1.7949,1.7783,1.7451,2.1417,2.4331,2.4282,2.3492,2.3233,2.3125,2.3216,2.3377,2.3257,2.134,2.0049,1.9905,1.8018,1.638,1.6233,1.6225,1.5224,1.2959,1.2662,1.232,1.0645,1.0387,1.1124,1.1578,1.1728,1.1628,1.1669,1.1769,1.1877,1.2234,1.2382,1.2618,1.288,1.2657,1.2657,1.2793,1.2628,1.2423,1.253,1.2774,1.2619,1.1988,1.1865,1.1694,1.1112,1.0532,1.0098,1.008,0.9684,0.922,1.5848,1.5836,1.5848,1.5836,1.5941,1.6454,1.6785,1.6846,1.7181,1.7121,1.7,1.7123,1.7199,1.7282,1.7477,1.7558,1.7599,1.797,1.806,1.8115,1.8145,1.8187,1.8228,1.8228,1.8242,1.8228,1.8228,1.8228,1.8228,1.8242,1.8411,1.8707,1.8707,1.9192,2.0035,2.0154,2.0581,2.1446,2.1401,2.1554,2.194,2.1675,2.0918,1.972,2.0838,2.0222,1.7197,1.666,1.5643,1.4393,1.274,1.1468,1.1017,1.1443,1.1532,1.0964,1.193,1.3356,1.5498,1.8269,1.8994,1.8,1.8566,1.8691,1.7665,1.8091,1.8179,1.7755,1.7496,1.7889,1.7432,1.7759,1.8164,1.8475,1.7692,1.7377,1.7504,1.746,1.6353,1.3681,1.3822,1.2919,1.0668,1.0393,1.0598,1.1073,1.1309,1.1678,1.2026,1.1828,1.1628,1.1828,1.1877,1.1628,1.1578,1.1519,1.1868,1.2058,1.2017,1.2135,1.2391,1.2412,1.2325,1.1909,1.2184,1.1972,1.1329,1.0919,1.0767,1.0625,1.0166,0.9761,0.9517,0.9334,0.9207,1.6068,1.5804,1.5792,1.5792,1.5909,1.6708,1.6895,1.6735,1.7288,1.7576,1.7533,1.7492,1.7213,1.6723,1.6824,1.7047,1.7269,1.7679,1.7828,1.7841,1.8069,1.8189,1.8189,1.8189,1.8189,1.8189,1.8189,1.8189,1.8228,1.8347,1.8489,1.8644,1.8936,1.9427,2.0019,2.0379,2.0877,2.1371,2.1509,2.1162,2.0389,2.0192,1.9326,1.7779,1.7249,1.6001,1.3934,1.3342,1.2972,1.2435,1.1711,1.1124,1.0675,1.1121,1.1341,1.1322,1.2066,1.2743,1.3301,1.4593,1.4865,1.3672,1.396,1.3792,1.2971,1.2562,1.2339,1.2679,1.502,1.6869,1.6831,1.6918,1.7008,1.6891,1.567,1.4777,1.5173,1.37,1.2183,1.1408,1.1573,1.15,1.0547,1.0576,1.1133,1.1837,1.2045,1.2076,1.2175,1.1977,1.1719,1.1469,1.1377,1.1427,1.1477,1.1628,1.1778,1.1828,1.1669,1.1687,1.1954,1.1737,1.1401,1.1057,1.1309,1.1209,1.0533,1.0519,1.0466,1.0277,1.0043,0.97,0.9341,0.9245,0.9107,1.6392,1.5864,1.6037,1.6142,1.6248,1.7331,1.765,1.7488,1.8067,1.8401,1.839,1.8231,1.7779,1.7093,1.6959,1.7068,1.7323,1.7555,1.7733,1.7894,1.8071,1.8123,1.8123,1.8123,1.8123,1.8123,1.8123,1.8245,1.8476,1.8821,1.8977,1.9108,1.9612,1.9984,2.0174,2.0714,2.1135,2.1336,2.117,2.0358,1.9138,1.8239,1.7092,1.5663,1.4879,1.3435,1.1344,1.176,1.1881,1.1591,1.1627,1.142,1.0959,1.1202,1.1426,1.1721,1.2297,1.2421,1.2027,1.2165,1.1934,1.1094,1.0765,1.0248,0.9616,0.922,0.9213,0.9936,1.3042,1.507,1.5221,1.5182,1.5272,1.5296,1.3434,1.2517,1.2776,1.0968,1.0246,1.0303,1.0962,1.0953,1.1141,1.1519,1.1986,1.2262,1.2252,1.2175,1.1977,1.1828,1.1519,1.1023,1.0922,1.0972,1.1276,1.1326,1.1519,1.1477,1.1226,1.1124,1.1394,1.0981,1.0557,1.0387,1.0498,1.0395,0.9976,1.0012,1.0108,1.0069,0.9864,0.9547,0.9335,0.9192,0.8926,1.6727,1.5903,1.6663,1.7053,1.7173,1.8621,1.9259,1.9147,1.9759,1.9797,1.9374,1.932,1.9154,1.8903,1.8491,1.8299,1.8275,1.8126,1.8276,1.8685,1.8235,1.795,1.7922,1.7922,1.7963,1.8113,1.8098,1.8425,1.9195,1.9627,2.0001,2.0274,2.0587,2.0788,2.0774,2.1039,2.1371,2.1411,2.0154,1.9117,1.8518,1.5947,1.4426,1.4163,1.5388,1.4518,1.2121,1.3383,1.3707,1.2261,1.2007,1.1742,1.148,1.1407,1.1671,1.2207,1.2406,1.2535,1.2639,1.2658,1.2297,1.1571,1.1314,1.0901,1.0086,0.9918,0.9971,1.021,1.089,1.12,1.1109,1.1484,1.126,1.1514,1.1023,1.0886,1.1084,1.1417,1.1104,1.1085,1.1584,1.1944,1.1977,1.2166,1.2166,1.2175,1.2126,1.2026,1.1719,1.1326,1.1074,1.0972,1.0726,1.0368,1.0419,1.0718,1.0726,1.0616,1.0667,1.0589,1.0427,1.0265,0.9984,0.9762,0.9814,0.971,0.9413,0.9309,0.9309,0.9347,0.9392,0.9224,0.902,0.8933,0.8659,1.7508,1.7081,1.7405,1.7713,1.8172,1.9292,1.9651,1.9458,2.0114,2.0386,2.028,2.017,2.008,1.9959,1.9849,1.9553,1.9216,1.9103,1.8983,1.8917,1.8997,1.8845,1.8548,1.8845,1.915,1.9307,1.8934,1.9056,1.9572,1.9839,2.0087,2.0498,2.0707,2.0866,2.0925,2.1055,2.1214,2.1279,1.9883,1.8551,1.731,1.5258,1.3641,1.2573,1.3318,1.3225,1.2073,1.2991,1.3101,1.2275,1.2219,1.188,1.1172,1.1364,1.1642,1.1882,1.2224,1.2348,1.222,1.2182,1.1988,1.1655,1.1442,1.1219,1.088,1.0788,1.0943,1.1267,1.1416,1.1543,1.1892,1.1467,1.1129,1.1319,1.1567,1.1726,1.2041,1.2236,1.2249,1.2183,1.227,1.2295,1.2342,1.255,1.2442,1.1984,1.2129,1.1977,1.1477,1.1124,1.0972,1.0718,1.0573,1.0419,1.0419,1.047,1.0462,1.019,1.0087,1.0296,1.026,0.9851,0.9517,0.9013,0.9065,0.9249,0.9001,0.8956,0.8903,0.8798,0.8791,0.8679,0.8461,0.8355,0.8084,1.7873,1.8286,1.8417,1.8656,1.9144,2.0025,2.0311,2.0118,2.0563,2.0852,2.0886,2.0798,2.0718,2.0685,2.0873,2.0716,2.0307,1.9935,1.9456,1.916,1.9628,1.9521,1.9153,1.9692,2.0045,1.9992,1.9618,1.9627,2.0075,2.0337,2.062,2.0892,2.1077,2.1099,2.0958,2.0594,2.0491,2.0289,1.8614,1.6946,1.5854,1.437,1.3076,1.2269,1.236,1.2489,1.2429,1.2924,1.301,1.269,1.268,1.2233,1.1277,1.1525,1.176,1.1779,1.2174,1.2243,1.1934,1.1934,1.1934,1.1864,1.1798,1.1744,1.1673,1.1681,1.1928,1.2265,1.2365,1.2679,1.3237,1.2923,1.2529,1.2503,1.2663,1.285,1.3116,1.3117,1.295,1.2699,1.2419,1.233,1.2353,1.2421,1.2274,1.1882,1.2026,1.1669,1.1074,1.0871,1.0871,1.0616,1.036,1.03,1.0146,1.0095,1.0095,0.988,0.9614,0.9821,0.9792,0.9442,0.9047,0.8429,0.833,0.8626,0.8692,0.8646,0.8487,0.8321,0.8262,0.815,0.799,0.7771,0.7557,1.7912,1.9239,1.9703,1.9799,2.0009,2.081,2.1334,2.1259,2.1272,2.1224,2.1215,2.1175,2.117,2.1175,2.154,2.1785,2.1476,2.0525,1.9956,1.9847,2.0166,2.0033,1.9558,2.0429,2.0625,2.016,1.9946,2.0167,2.07,2.1296,2.1549,2.1513,2.1665,2.1299,2.0792,1.9678,1.9109,1.8523,1.6274,1.4785,1.4566,1.3297,1.2558,1.2693,1.2998,1.3008,1.2718,1.3401,1.358,1.331,1.322,1.281,1.1897,1.1943,1.2104,1.2112,1.212,1.2127,1.2182,1.2243,1.2305,1.2359,1.2597,1.2559,1.2376,1.2404,1.2639,1.2906,1.3081,1.3319,1.3972,1.4109,1.4114,1.4007,1.3736,1.3747,1.3789,1.3626,1.3292,1.2819,1.2397,1.2122,1.2031,1.2013,1.1954,1.1926,1.1639,1.1226,1.0769,1.0565,1.0573,1.0506,1.019,0.988,0.9718,0.9614,0.9614,0.9562,0.9309,0.9278,0.9088,0.8811,0.8699,0.8249,0.8131,0.8374,0.8421,0.8315,0.8055,0.7889,0.7783,0.7622,0.7402,0.7187,0.7133,1.9296,2.0051,2.0064,2.0325,2.0647,2.1015,2.1131,2.1144,2.1144,2.1326,2.1568,2.1602,2.1746,2.2016,2.2235,2.2296,2.2253,2.178,2.1428,2.1235,2.1563,2.1451,2.1169,2.1626,2.1888,2.1736,2.1721,2.1775,2.1962,2.2406,2.2203,2.1326,2.1213,2.0428,1.9064,1.8576,1.8248,1.7664,1.6184,1.537,1.5352,1.4028,1.3327,1.3468,1.3819,1.3758,1.322,1.3277,1.3255,1.3044,1.2772,1.2418,1.2128,1.212,1.2313,1.2444,1.256,1.2613,1.2683,1.2736,1.2736,1.2858,1.3033,1.3105,1.3065,1.322,1.3339,1.3518,1.3824,1.4004,1.3846,1.4061,1.43,1.4469,1.4545,1.4394,1.3992,1.3399,1.3028,1.3057,1.2411,1.1879,1.1831,1.1778,1.1704,1.1385,1.1318,1.1226,1.082,1.03,1.0182,1.0174,0.9762,0.9406,0.9354,0.9197,0.9047,0.9047,0.889,0.8738,0.854,0.844,0.8334,0.8221,0.8109,0.8049,0.8096,0.7937,0.7622,0.7354,0.7139,0.6977,0.6712,0.6657,0.6657,1.999,2.0573,2.0523,2.0835,2.1264,2.1277,2.141,2.1541,2.1541,2.1718,2.1969,2.1983,2.2095,2.236,2.2558,2.274,2.2815,2.3009,2.2981,2.2773,2.279,2.2585,2.2235,2.2641,2.2927,2.293,2.2823,2.2473,2.2029,2.2348,2.1843,2.0597,2.0266,1.9665,1.8362,1.7607,1.7082,1.6713,1.5654,1.5144,1.5025,1.4193,1.3678,1.38,1.3855,1.3586,1.3022,1.2867,1.2779,1.2736,1.2503,1.2398,1.2421,1.2305,1.2305,1.2436,1.2367,1.2367,1.2744,1.2858,1.3094,1.3224,1.3208,1.3199,1.326,1.3398,1.3285,1.3467,1.3623,1.3761,1.3571,1.3752,1.4121,1.441,1.4469,1.4364,1.3897,1.3323,1.2863,1.2793,1.2269,1.1737,1.14,1.1341,1.1183,1.0616,1.0635,1.0702,1.0293,0.9932,0.9821,0.9658,0.9302,0.9093,0.904,0.8784,0.8474,0.8474,0.8421,0.8374,0.8275,0.8221,0.8168,0.8109,0.7996,0.783,0.7883,0.7461,0.7144,0.6874,0.6652,0.6495,0.6391,0.6337,0.6337,2.0152,2.097,2.0983,2.1277,2.1712,2.1759,2.1969,2.2374,2.2374,2.2328,2.2328,2.236,2.236,2.2406,2.292,2.3275,2.3493,2.3837,2.4147,2.4091,2.3773,2.3163,2.302,2.312,2.3224,2.3385,2.2963,2.2183,2.1202,2.1486,2.0848,1.9518,1.9037,1.872,1.8113,1.6694,1.5895,1.5768,1.4682,1.4336,1.4525,1.3801,1.3488,1.3807,1.3432,1.2975,1.2556,1.2467,1.2488,1.2497,1.2518,1.2581,1.2736,1.2367,1.205,1.2243,1.1677,1.1864,1.2359,1.2597,1.2895,1.3398,1.3147,1.3078,1.3147,1.2903,1.2728,1.2981,1.3033,1.3103,1.339,1.3511,1.3631,1.3821,1.389,1.369,1.3441,1.3287,1.2851,1.2255,1.2025,1.1742,1.0934,1.0771,1.0225,0.978,0.958,0.9664,0.953,0.9485,0.9323,0.9152,0.8949,0.8784,0.8732,0.8626,0.8374,0.8374,0.8321,0.8209,0.8055,0.8055,0.8002,0.7943,0.7729,0.7616,0.7402,0.6977,0.6766,0.6603,0.644,0.6228,0.6119,0.6064,0.5955,2.068,2.0924,2.1193,2.1361,2.1568,2.1874,2.2095,2.2189,2.2203,2.2434,2.2603,2.2875,2.3187,2.3493,2.3876,2.4204,2.4197,2.4295,2.4508,2.4435,2.3581,2.3639,2.3681,2.2892,2.2689,2.2928,2.2007,2.1054,2.0756,2.0927,2.0126,1.8462,1.8106,1.7338,1.6188,1.5647,1.5135,1.4951,1.5046,1.4744,1.4492,1.4436,1.4262,1.3924,1.3785,1.3366,1.2819,1.256,1.2436,1.2364,1.2232,1.2236,1.2428,1.1988,1.1732,1.1864,1.1864,1.1856,1.205,1.2228,1.2413,1.2674,1.2728,1.272,1.292,1.2842,1.2903,1.3147,1.3277,1.3155,1.3094,1.3216,1.3277,1.3042,1.3216,1.3347,1.322,1.2772,1.2228,1.1931,1.1515,1.1406,1.1519,1.0883,0.9932,0.9375,0.9357,0.9648,0.9458,0.9233,0.9092,0.893,0.8752,0.8527,0.8421,0.8421,0.8374,0.8374,0.8321,0.8256,0.8043,0.7883,0.783,0.7723,0.7241,0.7025,0.6756,0.6436,0.6327,0.6386,0.6223,0.6064,0.5841,0.5727,0.5508,2.1207,2.134,2.1568,2.1732,2.186,2.2142,2.2498,2.283,2.2889,2.3098,2.3493,2.3694,2.3979,2.422,2.3898,2.3826,2.3837,2.3318,2.3135,2.3253,2.2758,2.2825,2.2948,2.2169,2.2071,2.2362,2.1323,2.0521,2.0028,1.9963,1.8952,1.7666,1.7081,1.6468,1.5859,1.5332,1.5049,1.4783,1.5022,1.4951,1.4419,1.4291,1.4231,1.3906,1.3817,1.3477,1.3124,1.2805,1.2637,1.2633,1.244,1.2297,1.2428,1.174,1.1428,1.1553,1.149,1.1498,1.1864,1.1988,1.2228,1.2474,1.2474,1.2421,1.2552,1.2536,1.2528,1.272,1.285,1.2789,1.2736,1.292,1.2981,1.2867,1.2789,1.2842,1.3009,1.2421,1.1981,1.1706,1.1374,1.1086,1.1836,1.079,0.9917,0.933,0.9308,0.9426,0.9442,0.9163,0.8956,0.8816,0.8697,0.8596,0.84,0.8368,0.8103,0.8156,0.7943,0.7925,0.786,0.7634,0.7396,0.7187,0.6756,0.6436,0.6273,0.6164,0.6223,0.6228,0.6064,0.5841,0.5618,0.5285,0.512,2.1664,2.1955,2.192,2.2076,2.2258,2.2338,2.2564,2.3417,2.3296,2.3531,2.3802,2.4104,2.3809,2.4172,2.2958,2.2651,2.2842,2.1964,2.1384,2.1416,2.1335,2.1374,2.0816,2.1111,2.118,2.1242,2.0884,1.9784,1.886,1.8339,1.7656,1.6773,1.6203,1.5961,1.5803,1.5545,1.5167,1.4787,1.4855,1.4656,1.4181,1.3881,1.3761,1.3614,1.3534,1.326,1.3117,1.2948,1.2874,1.3103,1.2674,1.2421,1.2428,1.149,1.1115,1.1178,1.0996,1.1052,1.1553,1.1802,1.2042,1.2274,1.1973,1.1919,1.1981,1.1732,1.174,1.1864,1.2003,1.212,1.212,1.2428,1.252,1.2443,1.2135,1.2174,1.2428,1.2112,1.174,1.1794,1.1219,1.1002,1.0684,1.0363,0.9771,0.9573,0.9485,0.9441,0.9434,0.9304,0.9065,0.8896,0.879,0.869,0.8502,0.8415,0.8043,0.7788,0.7389,0.7302,0.7389,0.7204,0.6885,0.6593,0.6436,0.6273,0.6109,0.6059,0.6119,0.6009,0.5841,0.5618,0.5395,0.5011,0.4677,2.1746,2.1797,2.1456,2.1317,2.1335,2.1089,2.1133,2.1466,2.1374,2.1678,2.1648,2.1876,2.2032,2.2012,2.1973,2.2081,2.1998,2.1503,2.1053,1.9646,1.9646,1.8865,1.8367,1.9049,1.964,1.9411,1.8194,1.7459,1.712,1.688,1.6449,1.6304,1.5796,1.54,1.5216,1.5274,1.4942,1.4478,1.4597,1.4419,1.401,1.3821,1.364,1.3285,1.3262,1.3047,1.2744,1.2757,1.2613,1.2305,1.2112,1.1926,1.1615,1.0989,1.0681,1.087,1.087,1.0933,1.1185,1.124,1.117,1.1101,1.1038,1.0724,1.0591,1.0975,1.0989,1.1052,1.1303,1.156,1.149,1.1365,1.1564,1.1621,1.1418,1.1346,1.1495,1.1367,1.1122,1.08,1.0611,1.0275,0.9901,1.0008,0.9819,0.9843,0.9716,0.9509,0.9468,0.9439,0.9201,0.896,0.8633,0.8453,0.8124,0.7943,0.7597,0.7318,0.7015,0.6839,0.6931,0.6935,0.6688,0.6454,0.6273,0.6109,0.5946,0.6005,0.6064,0.5841,0.5567,0.523,0.4897,0.4567,0.4349,2.1686,2.1778,2.1161,2.0877,2.0841,2.0876,2.0908,2.0972,2.1139,2.1229,2.1294,2.1459,2.1359,2.106,2.0696,2.0454,2.0377,2.0108,1.9497,1.8702,1.8562,1.8037,1.7257,1.763,1.8106,1.7822,1.6893,1.6404,1.6285,1.5979,1.5756,1.5746,1.5418,1.5138,1.4849,1.4896,1.4647,1.4249,1.424,1.413,1.3657,1.3597,1.3467,1.3058,1.3075,1.2891,1.2359,1.2328,1.2205,1.1872,1.174,1.1622,1.1428,1.0863,1.0681,1.087,1.0744,1.0737,1.08,1.0667,1.0478,1.0281,1.0281,1.0218,1.0212,1.0534,1.0674,1.0737,1.0989,1.124,1.117,1.1178,1.1176,1.1272,1.1051,1.0975,1.1051,1.0932,1.0737,1.0491,1.0364,0.997,0.9773,0.9722,0.9919,1.0077,1.0002,0.9805,0.9762,0.9716,0.9357,0.9045,0.8585,0.8165,0.7705,0.7367,0.7111,0.6849,0.667,0.6625,0.6697,0.663,0.6506,0.6374,0.6239,0.5896,0.5723,0.5837,0.5753,0.5289,0.4956,0.4677,0.4401,0.4184,0.3968,2.1495,2.1648,2.0872,2.0508,2.047,2.0695,2.0723,2.0815,2.1201,2.0855,2.1184,2.1229,2.0415,2.0141,1.9202,1.8707,1.8645,1.8413,1.8167,1.8035,1.7926,1.7604,1.7174,1.6963,1.688,1.6648,1.6218,1.6066,1.6066,1.569,1.5399,1.5266,1.5109,1.4868,1.4659,1.4618,1.4359,1.389,1.389,1.383,1.3536,1.3424,1.3294,1.2989,1.283,1.2583,1.2065,1.1956,1.1839,1.1567,1.1435,1.1435,1.131,1.1059,1.0807,1.0933,1.0611,1.0421,1.0415,1.0218,1.0021,0.9958,0.9958,0.9958,1.0028,1.0218,1.0351,1.0485,1.0611,1.0737,1.1052,1.0926,1.1052,1.1233,1.0926,1.0771,1.0685,1.0461,1.0428,1.0485,1.0231,0.9907,0.9767,0.9709,0.9989,1.02,1.0117,1.0047,0.9913,0.9724,0.9202,0.8839,0.8377,0.7913,0.7417,0.7043,0.6766,0.6701,0.6437,0.6556,0.6616,0.6409,0.6397,0.6374,0.6217,0.5836,0.5522,0.5527,0.528,0.4737,0.449,0.4409,0.4172,0.3808,0.3694,2.1292,2.0697,2.0223,2.0014,1.9881,1.9292,1.9149,1.9027,1.8948,1.8443,1.8367,1.8261,1.8144,1.7678,1.7749,1.7823,1.8047,1.7988,1.7957,1.7698,1.746,1.709,1.6717,1.6494,1.6171,1.606,1.5914,1.5904,1.5846,1.5526,1.5197,1.5245,1.4953,1.4563,1.4273,1.4154,1.407,1.3718,1.3649,1.3649,1.3588,1.3528,1.3285,1.2842,1.256,1.2127,1.1747,1.1685,1.163,1.1185,1.0744,1.0618,1.0618,1.0485,1.0421,1.0485,1.0225,0.997,1.0028,1.0021,0.9767,0.9582,0.9518,0.9396,0.9338,0.9652,0.9907,0.9786,0.9792,0.9856,1.0053,1.0047,1.011,1.0174,1.0174,0.9989,0.974,0.9728,0.9843,1.004,0.9977,0.9983,0.9926,0.9518,0.9175,0.9186,0.9186,0.9192,0.9198,0.896,0.8656,0.8318,0.8115,0.7612,0.7181,0.684,0.6515,0.668,0.6639,0.68,0.6701,0.6341,0.6212,0.609,0.599,0.5675,0.5432,0.5251,0.4886,0.4394,0.4267,0.42,0.3913,0.3694,0.3697,2.0238,1.9875,1.9515,1.9423,1.9436,1.9324,1.8965,1.86,1.8284,1.7756,1.7311,1.7134,1.6853,1.6519,1.6539,1.6907,1.7441,1.7873,1.7871,1.7726,1.7317,1.6749,1.6346,1.6257,1.5851,1.5576,1.5488,1.5672,1.5614,1.5186,1.4964,1.4763,1.4526,1.4259,1.3974,1.3954,1.3872,1.3649,1.3709,1.3571,1.339,1.3277,1.2842,1.2413,1.2104,1.167,1.0982,1.0926,1.0737,1.0351,1.0161,1.0098,1.0098,0.997,0.9907,1.0098,0.9779,0.9588,0.9582,0.9524,0.9274,0.9081,0.9145,0.9145,0.9081,0.9332,0.9588,0.9536,0.9221,0.9221,0.9408,0.9092,0.9011,0.918,0.9256,0.921,0.9157,0.921,0.9338,0.9402,0.9262,0.9478,1.0117,0.9554,0.8516,0.8179,0.8254,0.8339,0.842,0.8259,0.8078,0.7958,0.7714,0.7355,0.7069,0.6838,0.6669,0.6727,0.6715,0.694,0.6876,0.6497,0.6033,0.5653,0.5505,0.533,0.5019,0.4683,0.432,0.4092,0.3995,0.3949,0.3747,0.3585,0.3585,1.9295,1.9243,1.9143,1.9103,1.9218,1.9703,1.9272,1.8449,1.8187,1.7489,1.6612,1.6467,1.6222,1.6055,1.6257,1.6708,1.7175,1.7775,1.7815,1.7626,1.7129,1.6412,1.613,1.6016,1.587,1.5166,1.5001,1.5235,1.5245,1.4824,1.452,1.4415,1.4269,1.4046,1.3884,1.3895,1.3863,1.3821,1.383,1.3502,1.3017,1.2466,1.2042,1.149,1.1545,1.0905,1.0218,1.0288,1.0161,0.9837,0.9709,0.9709,0.9773,0.946,0.9396,0.9646,0.9396,0.9274,0.9145,0.9081,0.8958,0.8894,0.9022,0.9022,0.9087,0.9145,0.9274,0.935,0.9028,0.8765,0.8823,0.8501,0.8425,0.8597,0.8737,0.8689,0.8765,0.8765,0.8689,0.8683,0.8549,0.8753,0.9367,0.925,0.8146,0.7608,0.7678,0.7767,0.7847,0.7787,0.7627,0.7567,0.7366,0.7072,0.6921,0.704,0.6952,0.703,0.6931,0.6989,0.6858,0.6637,0.6013,0.5185,0.4935,0.4709,0.4397,0.4241,0.4114,0.395,0.3849,0.3759,0.3691,0.3618,0.3585,1.9262,1.9262,1.9618,1.9551,1.9267,1.9659,1.9006,1.7728,1.7568,1.6757,1.5576,1.5614,1.5615,1.5776,1.6911,1.773,1.7949,1.7674,1.7451,1.7139,1.6504,1.5923,1.5548,1.5238,1.53,1.4883,1.4706,1.4765,1.4775,1.4478,1.435,1.4346,1.4049,1.3906,1.4013,1.3888,1.3761,1.345,1.339,1.3216,1.2666,1.1779,1.1337,1.1087,1.0528,0.9958,0.9831,0.9901,0.9837,0.9761,0.9454,0.9396,0.9332,0.9022,0.8894,0.8894,0.8894,0.8829,0.8894,0.8958,0.8888,0.8952,0.9081,0.921,0.9081,0.8894,0.87,0.8182,0.8117,0.8268,0.8463,0.8431,0.856,0.8646,0.8674,0.8457,0.8447,0.8401,0.8254,0.8037,0.7972,0.8016,0.8345,0.8161,0.7842,0.7372,0.7107,0.719,0.733,0.7335,0.74,0.7391,0.7386,0.7099,0.7063,0.7126,0.7076,0.7237,0.7057,0.688,0.6645,0.6276,0.5338,0.4638,0.4401,0.4392,0.4428,0.4285,0.4032,0.3885,0.3878,0.3844,0.382,0.3746,0.3615,1.8398,1.8372,1.8828,1.88,1.8504,1.8967,1.8437,1.7317,1.6968,1.6158,1.5065,1.479,1.4827,1.5285,1.6119,1.649,1.6693,1.6661,1.6507,1.6369,1.5809,1.5303,1.5046,1.4877,1.4843,1.4565,1.4419,1.4359,1.4369,1.4318,1.413,1.4181,1.4061,1.4061,1.413,1.3881,1.3761,1.345,1.3025,1.2536,1.2104,1.1351,1.0724,1.078,1.0085,0.964,0.9454,0.9518,0.9326,0.9128,0.8818,0.8829,0.8829,0.8835,0.877,0.8835,0.9022,0.9022,0.8952,0.9081,0.8952,0.8818,0.8882,0.8829,0.863,0.8436,0.8312,0.8177,0.7852,0.7902,0.8037,0.778,0.7885,0.8052,0.8368,0.822,0.8017,0.8011,0.7898,0.7602,0.7456,0.7637,0.7757,0.7577,0.7526,0.7391,0.712,0.719,0.733,0.7396,0.7396,0.733,0.7391,0.7367,0.7353,0.7325,0.7039,0.7028,0.6837,0.6588,0.6268,0.5683,0.4882,0.4483,0.4328,0.44,0.4492,0.44,0.4159,0.4062,0.3955,0.3922,0.3833,0.3759,0.3579,1.7611,1.749,1.8034,1.806,1.7707,1.8216,1.7698,1.6589,1.6426,1.567,1.4809,1.4604,1.4682,1.4937,1.5601,1.6173,1.5732,1.5698,1.5595,1.5468,1.5162,1.4814,1.4552,1.4488,1.4492,1.4255,1.4345,1.451,1.4496,1.4252,1.407,1.4121,1.401,1.407,1.4121,1.3752,1.339,1.3338,1.2351,1.1794,1.1545,1.0667,1.0231,1.0034,0.9773,0.9326,0.8952,0.9022,0.8759,0.8565,0.8571,0.8641,0.8641,0.8894,0.8958,0.8964,0.9087,0.9022,0.8952,0.9017,0.8952,0.8759,0.8436,0.8376,0.7917,0.7857,0.7775,0.7815,0.7626,0.7664,0.7763,0.7441,0.7618,0.7747,0.7853,0.7677,0.7673,0.7817,0.7885,0.7702,0.7546,0.7461,0.7521,0.7265,0.7209,0.7209,0.7274,0.7265,0.7265,0.7265,0.733,0.726,0.7138,0.7199,0.7391,0.7326,0.7064,0.6736,0.6539,0.635,0.5958,0.5425,0.4688,0.4425,0.4295,0.4361,0.4431,0.4356,0.4273,0.4194,0.4041,0.3993,0.3901,0.3711,0.3301,1.7412,1.6782,1.7507,1.7562,1.7263,1.7549,1.685,1.5713,1.5928,1.5471,1.4668,1.52,1.5171,1.5348,1.5937,1.6365,1.6141,1.6197,1.5688,1.5175,1.4843,1.452,1.4288,1.4294,1.4463,1.4793,1.4684,1.4842,1.5018,1.4279,1.4336,1.4538,1.401,1.395,1.3821,1.3502,1.2834,1.2597,1.167,1.1178,1.0793,1.0034,0.9396,0.9268,0.8812,0.8371,0.8517,0.8641,0.8705,0.8506,0.8576,0.8641,0.8641,0.8765,0.8823,0.8823,0.8765,0.87,0.8765,0.8765,0.877,0.8641,0.8317,0.7807,0.7452,0.748,0.7418,0.7319,0.7414,0.7582,0.7706,0.7765,0.7771,0.7897,0.7976,0.7981,0.7919,0.7919,0.7896,0.7754,0.7669,0.7617,0.748,0.7366,0.7292,0.7353,0.7138,0.7134,0.7068,0.7068,0.7195,0.7134,0.6881,0.6881,0.7199,0.6999,0.6478,0.6145,0.5947,0.5822,0.5701,0.51,0.4495,0.4431,0.43,0.43,0.4233,0.4092,0.4015,0.4196,0.4126,0.3748,0.3301,0.3007,0.2538,1.6662,1.5989,1.5986,1.5949,1.5812,1.6033,1.5677,1.5104,1.5308,1.5033,1.4221,1.4435,1.4507,1.4603,1.472,1.5079,1.4912,1.4879,1.4718,1.4653,1.443,1.4436,1.4369,1.4455,1.4699,1.4953,1.4888,1.4711,1.4703,1.4192,1.4096,1.407,1.37,1.3761,1.3571,1.3199,1.2528,1.1732,1.1233,1.0856,1.0218,0.9716,0.921,0.9204,0.8894,0.8635,0.8711,0.8765,0.8765,0.87,0.8441,0.8382,0.8317,0.8242,0.8236,0.8301,0.8236,0.8242,0.8312,0.8312,0.8182,0.7792,0.747,0.7184,0.714,0.7315,0.7428,0.7411,0.7556,0.7708,0.7943,0.796,0.8028,0.8207,0.824,0.8265,0.8165,0.8155,0.7797,0.7608,0.7688,0.7706,0.7627,0.749,0.7522,0.7494,0.7213,0.6942,0.6832,0.6726,0.6809,0.6726,0.6465,0.6366,0.6618,0.6284,0.5826,0.562,0.5352,0.5296,0.5169,0.4837,0.4367,0.4303,0.4303,0.4303,0.4167,0.3894,0.3818,0.401,0.3687,0.3153,0.2728,0.2265,0.1865,1.5921,1.5264,1.4697,1.4588,1.4771,1.4848,1.4728,1.4663,1.4981,1.495,1.4507,1.4393,1.4253,1.4223,1.4091,1.3926,1.3961,1.39,1.3961,1.402,1.4216,1.435,1.4455,1.4616,1.4744,1.4823,1.4753,1.4683,1.4563,1.39,1.3709,1.358,1.3329,1.3268,1.3329,1.2834,1.2097,1.1428,1.0793,1.0534,0.9958,0.946,0.921,0.921,0.8958,0.87,0.8576,0.8506,0.8371,0.8236,0.7977,0.7857,0.7722,0.7657,0.7526,0.7591,0.7591,0.7657,0.7727,0.7787,0.7591,0.7199,0.7007,0.6976,0.7039,0.7249,0.7453,0.7722,0.7906,0.8047,0.8231,0.8323,0.8359,0.8467,0.8467,0.8429,0.8392,0.8295,0.7834,0.7449,0.7495,0.7402,0.7121,0.6898,0.6954,0.694,0.6726,0.653,0.6419,0.6308,0.6267,0.6169,0.5925,0.5881,0.5899,0.5512,0.5183,0.5292,0.509,0.4761,0.4567,0.4367,0.4303,0.4303,0.4303,0.4303,0.4097,0.3758,0.3758,0.3825,0.3241,0.2611,0.2091,0.1623,0.1221,1.5216,1.4469,1.3872,1.3932,1.4455,1.4153,1.4202,1.4475,1.4804,1.5206,1.5565,1.516,1.4909,1.4775,1.4243,1.3853,1.3473,1.343,1.3563,1.3752,1.395,1.407,1.4288,1.4423,1.4504,1.44,1.4221,1.4169,1.4444,1.3534,1.3224,1.2964,1.2597,1.2466,1.2887,1.2104,1.1622,1.1428,1.0471,1.0148,0.9767,0.9332,0.9081,0.9017,0.8888,0.8565,0.8312,0.8177,0.7977,0.7577,0.7517,0.7456,0.7456,0.7526,0.7596,0.7727,0.7349,0.7227,0.7292,0.7414,0.7315,0.7003,0.6972,0.7144,0.7296,0.7509,0.7724,0.8057,0.8249,0.8407,0.86,0.859,0.8566,0.8401,0.8316,0.8227,0.8182,0.8089,0.755,0.7122,0.7003,0.6858,0.6491,0.6212,0.6287,0.6241,0.6158,0.6101,0.5928,0.5804,0.5689,0.5576,0.5395,0.5436,0.5329,0.4818,0.4602,0.4776,0.4773,0.4526,0.4381,0.4303,0.4303,0.4303,0.4097,0.3961,0.3825,0.3623,0.3155,0.2619,0.2484,0.1934,0.1404,0.1001,0.0725,1.5108,1.4469,1.4001,1.3992,1.4181,1.3778,1.3783,1.4271,1.4776,1.5042,1.5037,1.4703,1.4316,1.4055,1.3835,1.3496,1.321,1.3266,1.3441,1.3476,1.37,1.389,1.3951,1.3978,1.4048,1.39,1.3663,1.3459,1.3665,1.2944,1.256,1.2236,1.1856,1.1794,1.1919,1.149,1.1045,1.0598,1.0085,0.9831,0.939,0.9145,0.9022,0.9022,0.8759,0.8366,0.8112,0.7907,0.7577,0.7251,0.7256,0.7064,0.7007,0.7086,0.6824,0.6854,0.6631,0.6929,0.7207,0.7458,0.7532,0.7291,0.7309,0.7512,0.7794,0.7973,0.8217,0.8356,0.8341,0.833,0.8219,0.8075,0.7914,0.7456,0.7375,0.7367,0.7347,0.7275,0.7091,0.6684,0.6455,0.6638,0.6477,0.5847,0.5779,0.5752,0.5681,0.5438,0.5309,0.5154,0.5015,0.4962,0.485,0.4905,0.4743,0.4593,0.4505,0.4628,0.4671,0.4518,0.436,0.4255,0.4097,0.403,0.3758,0.3556,0.322,0.2751,0.1746,0.121,0.1344,0.1277,0.0806,0.0605,0.0469,1.4477,1.3906,1.3856,1.3936,1.3974,1.3346,1.3372,1.3941,1.4348,1.4556,1.4499,1.4115,1.3794,1.3526,1.3173,1.2947,1.2842,1.285,1.3155,1.3139,1.3381,1.3511,1.3536,1.3553,1.3568,1.343,1.2972,1.2648,1.276,1.2305,1.1926,1.149,1.1052,1.0989,1.1052,1.0863,1.0611,1.0225,0.997,0.9652,0.9338,0.9215,0.9215,0.9022,0.8759,0.8306,0.8037,0.7707,0.7321,0.7134,0.6876,0.6705,0.6539,0.6439,0.6269,0.6415,0.6627,0.6974,0.7394,0.7735,0.781,0.776,0.7872,0.7897,0.791,0.791,0.7882,0.8005,0.8156,0.7859,0.7548,0.7472,0.7322,0.6861,0.6857,0.6853,0.6857,0.6857,0.6656,0.6263,0.6086,0.6338,0.6242,0.5761,0.5324,0.5238,0.5155,0.4973,0.4798,0.4798,0.4703,0.472,0.469,0.4759,0.4816,0.4654,0.4632,0.4607,0.4501,0.4327,0.4188,0.4014,0.3852,0.3625,0.3153,0.2684,0.235,0.1746,0.1211,0.0808,0.074,0.0539,0.0135,0.0202,0.0337,1.3497,1.2879,1.3252,1.3664,1.3674,1.3033,1.2983,1.3575,1.3568,1.3939,1.4504,1.3455,1.3194,1.3304,1.2781,1.2538,1.2498,1.2305,1.2536,1.2834,1.3017,1.3139,1.33,1.3397,1.3075,1.2718,1.2304,1.1951,1.1755,1.1365,1.1115,1.0926,1.0485,1.0364,1.0301,1.0364,1.0238,0.9983,0.9792,0.9536,0.9414,0.935,0.9285,0.9104,0.8674,0.8168,0.772,0.7277,0.6755,0.6418,0.6207,0.6356,0.6427,0.6627,0.681,0.6974,0.7233,0.7477,0.7767,0.7988,0.8024,0.797,0.7943,0.7838,0.7703,0.7575,0.743,0.7351,0.7326,0.7092,0.6861,0.6861,0.6784,0.663,0.6553,0.6633,0.6641,0.6454,0.6242,0.5983,0.5806,0.5711,0.5433,0.4971,0.5061,0.507,0.5053,0.5036,0.4871,0.4906,0.4868,0.4787,0.4765,0.476,0.4743,0.4716,0.4697,0.4673,0.4313,0.4197,0.3983,0.3584,0.309,0.2662,0.2293,0.188,0.1479,0.1278,0.101,0.0741,0.0606,0.0472,0.0337,0.0405,0.054,1.3718,1.3416,1.3318,1.3714,1.4273,1.3571,1.3327,1.3456,1.3172,1.3244,1.3447,1.3035,1.2877,1.2765,1.2459,1.2296,1.2259,1.2243,1.2359,1.2544,1.272,1.285,1.283,1.2647,1.2367,1.2056,1.1696,1.1368,1.1206,1.0737,1.0491,1.0428,1.011,0.9862,0.9881,0.9874,0.9893,0.9777,0.9596,0.9538,0.9338,0.9226,0.9091,0.8853,0.8235,0.7726,0.7418,0.7052,0.6676,0.6565,0.665,0.6776,0.6859,0.7024,0.7233,0.7548,0.7741,0.8001,0.8128,0.7903,0.7774,0.7761,0.7388,0.7493,0.7387,0.7243,0.6958,0.6765,0.6633,0.6479,0.6247,0.617,0.6093,0.5938,0.5941,0.5867,0.587,0.5854,0.5573,0.5567,0.5387,0.531,0.4947,0.4958,0.5049,0.5002,0.5007,0.4985,0.4977,0.5002,0.4988,0.4898,0.4652,0.4566,0.472,0.4699,0.4755,0.4729,0.4208,0.3708,0.3309,0.2843,0.2251,0.1804,0.1504,0.1083,0.0673,0.0539,0.0674,0.0741,0.0607,0.0539,0.054,0.0607,0.0674,1.3287,1.3048,1.313,1.3411,1.3638,1.2983,1.2617,1.2603,1.2583,1.265,1.2736,1.2508,1.2374,1.2313,1.2052,1.1981,1.2197,1.2058,1.2058,1.2174,1.2367,1.2174,1.205,1.1794,1.1677,1.1421,1.117,1.0891,1.0674,1.0421,1.0174,1.018,0.9798,0.9814,0.9941,1.0068,0.9921,0.973,0.9532,0.9509,0.9328,0.8964,0.8781,0.8523,0.777,0.7532,0.742,0.7141,0.7023,0.7032,0.717,0.7284,0.7339,0.7552,0.769,0.7992,0.808,0.8045,0.7964,0.7689,0.7476,0.7169,0.6623,0.6615,0.6692,0.6612,0.6311,0.6093,0.6018,0.5941,0.5709,0.5479,0.5323,0.5093,0.5093,0.5018,0.5018,0.5096,0.5015,0.509,0.501,0.5085,0.5012,0.5018,0.5018,0.5018,0.5018,0.501,0.5002,0.501,0.5004,0.4955,0.4573,0.4346,0.4498,0.4407,0.4079,0.3817,0.3392,0.2903,0.2585,0.211,0.1503,0.1125,0.0761,0.048,0.034,0.0405,0.054,0.0607,0.0741,0.0808,0.0808,0.0875,0.0942,1.2447,1.2026,1.2647,1.2627,1.2248,1.167,1.134,1.1233,1.1796,1.2166,1.2166,1.1819,1.1717,1.1802,1.1493,1.1681,1.1872,1.1872,1.1677,1.1747,1.1864,1.174,1.1428,1.1052,1.117,1.0919,1.0674,1.0485,1.0434,1.0289,1.0136,1.0002,1.0053,1.0089,1.0114,1.0199,0.9983,0.9742,0.9462,0.9275,0.9231,0.8959,0.8433,0.8408,0.8009,0.7748,0.7757,0.77,0.7423,0.7579,0.7682,0.7702,0.7825,0.7948,0.8192,0.8291,0.8433,0.8138,0.7778,0.7403,0.7015,0.6549,0.5931,0.578,0.586,0.5938,0.5709,0.5556,0.5479,0.5479,0.5326,0.5249,0.5093,0.5015,0.5018,0.5018,0.5018,0.5018,0.5018,0.5018,0.5018,0.5018,0.5018,0.5018,0.5018,0.5018,0.5018,0.5018,0.4701,0.4701,0.4774,0.4758,0.4448,0.4062,0.3979,0.3738,0.312,0.2713,0.2452,0.2365,0.2274,0.1635,0.0799,0.0,0.0,0.0,0.0275,0.0411,0.0544,0.0808,0.0942,0.1008,0.1076,0.1077,0.1076,1.2085,1.1576,1.1797,1.1703,1.1439,1.1355,1.076,1.0121,1.0392,1.0664,1.0728,1.0519,1.0705,1.1315,1.0947,1.108,1.1677,1.1428,1.1233,1.1303,1.1421,1.1358,1.1233,1.087,1.0863,1.08,1.0485,1.0187,1.0302,1.0277,1.025,1.0053,1.0141,1.0205,0.9904,0.9983,0.9926,0.9647,0.9339,0.9069,0.8983,0.8594,0.815,0.8151,0.7987,0.787,0.7919,0.7943,0.7922,0.797,0.7966,0.8072,0.8259,0.8304,0.8399,0.8551,0.8399,0.8012,0.7553,0.7015,0.6549,0.6012,0.5473,0.5243,0.5168,0.5168,0.5171,0.5096,0.5018,0.5018,0.5018,0.5018,0.5018,0.5018,0.5018,0.5018,0.5018,0.5018,0.5018,0.5018,0.5018,0.5018,0.5018,0.5018,0.5018,0.5018,0.5018,0.4859,0.4226,0.399,0.4229,0.4219,0.4062,0.3752,0.3519,0.3049,0.2348,0.2035,0.1786,0.1783,0.0,0.0,0.0,0.0,0.0,0.0,0.0281,0.0418,0.0622,0.0891,0.1016,0.1086,0.108,0.108,0.1078,1.1852,1.1358,1.1176,1.0958,1.0693,1.0476,0.996,0.9397,0.9112,0.9162,0.9486,0.9682,1.0187,1.0746,1.0341,1.0586,1.126,1.0912,1.0787,1.0856,1.0926,1.0926,1.0807,1.0681,1.0491,1.0358,1.0371,1.0219,1.038,1.0444,1.038,1.0154,1.0205,1.0117,0.9734,0.9806,0.9738,0.9543,0.9178,0.8955,0.8689,0.834,0.8066,0.8125,0.8087,0.8005,0.8112,0.8201,0.8295,0.8322,0.838,0.8071,0.8075,0.7936,0.7859,0.7702,0.7544,0.7468,0.693,0.6468,0.5928,0.5395,0.5087,0.4935,0.5015,0.5093,0.5093,0.5018,0.5018,0.5018,0.5018,0.5018,0.5018,0.5018,0.5018,0.5018,0.5018,0.5018,0.5018,0.5018,0.5018,0.5018,0.5018,0.5018,0.4781,0.3832,0.399,0.4073,0.3521,0.3127,0.3443,0.3522,0.3207,0.2817,0.2426,0.1957,0.141,0.1175,0.0,0.0,0.0,0.0,0.0,0.0,0.0,0.0,0.0362,0.0501,0.0783,0.1063,0.1115,0.1099,0.1093,0.1089,0.1086,1.1578,1.1124,1.0523,1.0166,0.9956,0.9336,0.8991,0.8745,0.8104,0.7948,0.8329,0.9157,0.9766,0.9953,0.9797,1.0287,1.049,1.0382,1.0338,1.0485,1.0618,1.0618,1.0428,1.0174,1.0301,1.0428,1.0434,1.0553,1.0744,1.0659,1.0432,1.0145,0.9965,0.9914,0.9823,0.9745,0.9645,0.9335,0.903,0.8903,0.8537,0.8255,0.8214,0.8228,0.8178,0.825,0.8403,0.8479,0.8551,0.8475,0.8475,0.8169,0.7787,0.7557,0.7246,0.7088,0.7007,0.6626,0.6009,0.5854,0.5392,0.501,0.4779,0.4781,0.494,0.5018,0.5018,0.5018,0.5018,0.5018,0.5018,0.5018,0.5018,0.5029,0.5029,0.5034,0.5034,0.5037,0.504,0.5034,0.5021,0.5021,0.5018,0.5018,0.4229,0.3127,0.2735,0.2737,0.266,0.2348,0.2349,0.2193,0.1958,0.1567,0.141,0.1254,0.1019,0.0,0.0,0.0,0.0,0.0,0.0,0.0,0.0,0.03,0.0445,0.066,0.0878,0.1092,0.1146,0.1126,0.1124,0.1118,0.1103,1.1015,1.0308,0.9372,0.9049,0.912,0.8579,0.818,0.8039,0.8111,0.7976,0.7752,0.8149,0.8794,0.946,0.9175,0.9513,1.0144,1.0052,1.0028,1.011,1.0301,1.0364,1.0428,1.0428,1.0624,1.0751,1.0744,1.0658,1.0646,1.0523,1.0093,0.9349,0.9554,0.944,0.9104,0.9148,0.9088,0.8881,0.8851,0.878,0.8699,0.8475,0.8479,0.8479,0.8551,0.8627,0.8627,0.8627,0.8703,0.8551,0.8241,0.7936,0.7464,0.7076,0.6762,0.6538,0.6461,0.6153,0.5767,0.5702,0.5323,0.5015,0.4937,0.4937,0.5018,0.5018,0.5018,0.5018,0.5018,0.5018,0.5018,0.5018,0.5021,0.505,0.5064,0.508,0.5091,0.5105,0.5113,0.5072,0.5026,0.5023,0.5018,0.455,0.3692,0.2904,0.2437,0.2359,0.1812,0.1573,0.1333,0.1176,0.0942,0.1098,0.1254,0.1254,0.0,0.0,0.0,0.0,0.0,0.0,0.0,0.0,0.0309,0.0385,0.0609,0.0752,0.0969,0.1111,0.117,0.1157,0.1155,0.1147,0.1132]},{"header":{"parameterUnit":"m.s-1","parameterCategory":1,"la1":31.0,"la2":29.5877,"lo1":-88.7671,"lo2":-86.6584,"dy":0.0162,"dx":0.0185,"nx":115,"ny":88,"refTime":"2023-07-26T06:00:00:Z","depth":0,"parameterNumber":3,"parameterNumberName":"V-component_of_WINDS"},"data":[0.0,0.0,0.0,0.0,0.0,0.0,0.0,0.0,0.0,0.0,0.0,0.0,0.0,0.0,0.0,0.0,0.0,0.0,0.0,0.0,0.0,0.0,0.0,0.0,0.0,0.0,0.0,0.0,0.0,0.0,0.0,0.0,0.0,0.0,0.0,0.0,0.0,0.0,0.0,0.0,0.0,0.0,0.0,0.0,0.0,0.0,0.0,0.0,0.0,0.0,0.0,0.0,0.0,0.0,0.0,0.0,0.0,0.0,0.0,0.0,0.0,0.0,0.0,0.0,0.0,0.0,0.0,0.0,0.0,0.0,0.0,0.0,0.0,0.0,0.0,0.0,0.0,0.0,0.0,0.0,0.0,0.0,0.0,0.0,0.0,0.0,0.0,0.0,0.0,0.0,0.0,0.0,0.0,0.0,0.0,0.0,0.0,0.0,0.0,0.0,0.0,0.0,0.0,0.0,0.0,0.0,0.0,0.0,0.0,0.0,0.0,0.0,0.0,0.0,0.0,0.0,0.0,0.0,0.0,0.0,0.0,0.0,0.0,0.0,0.0,0.0,0.0,0.0,0.0,0.0,0.0,0.0,0.0,0.0,0.0,0.0,0.0,0.0,0.0,0.0,0.0,0.0,0.0,0.0,0.0,0.0,0.0,0.0,0.0,0.0,0.0,0.0,0.0,0.0,0.0,0.0,0.0,0.0,0.0,0.0,0.0,0.0,0.0,0.0,0.0,0.0,0.0,0.0,0.0,0.0,0.0,0.0,0.0,0.0,0.0,0.0,0.0,0.0,0.0,0.0,0.0,0.0,0.0,0.0,0.0,0.0,0.0,0.0,0.0,0.0,0.0,0.0,0.0,0.0,0.0,0.0,0.0,0.0,0.0,0.0,0.0,0.0,0.0,0.0,0.0,0.0,0.0,0.0,0.0,0.0,0.0,0.0,0.0,0.0,0.0,0.0,0.0,0.0,0.0,0.0,0.0,0.0,0.0,0.0,0.0,0.0,0.0,0.0,0.0,0.0,0.0,0.0,0.0,0.0,0.0,0.0,0.0,0.0,0.0,0.0,0.0,0.0,0.0,0.0,0.0,0.0,0.0,0.0,0.0,0.0,0.0,0.0,0.0,0.0,0.0,0.0,0.0,0.0,0.0,0.0,0.0,0.0,0.0,0.0,0.0,0.0,0.0,0.0,0.0,0.0,0.0,0.0,0.0,0.0,0.0,0.0,0.0,0.0,0.0,0.0,0.0,0.0,0.0,0.0,0.0,0.0,0.0,0.0,0.0,0.0,0.0,0.0,0.0,0.0,0.0,0.0,0.0,0.0,0.0,0.0,0.0,0.0,0.0,0.0,0.0,0.0,0.0,0.0,0.0,0.0,0.0,0.0,0.0,0.0,0.0,0.0,0.0,0.0,0.0,0.0,0.0,0.0,0.0,0.0,0.0,0.0,0.0,0.0,0.0,0.0,0.0,0.0,0.0,0.0,0.0,0.0,0.0,0.0,0.0,0.0,0.0,0.0,0.0,0.0,0.0,0.0,0.0,0.0,0.0,0.0,0.0,0.0,0.0,0.0,0.0,0.0,0.0,0.0,0.0,0.0,0.0,0.0,0.0,0.0,0.0,0.0,0.0,0.0,0.0,0.0,0.0,0.0,0.0,0.0,0.0,0.0,0.0,0.0,0.0,0.0,0.0,0.0,0.0,0.0,0.0,0.0,0.0,0.0,0.0,0.0,0.0,0.0,0.0,0.0,0.0,0.0,0.0,0.0,0.0,0.0,0.0,0.0,0.0,0.0,0.0,0.0,0.0,0.0,0.0,0.0,0.0,0.0,0.0,0.0,0.0,0.0,0.0,0.0,0.0,0.0,0.0,0.0,0.0,0.0,0.0,0.0,0.0,0.0,0.0,0.0,0.0,0.0,0.0,0.0,0.0,0.0,0.0,0.0,0.0,0.0,0.0,0.0,0.0,0.0,0.0,0.0,0.0,0.0,0.0,0.0,0.0,0.0,0.0,0.0,0.0,0.0,0.0,0.0,0.0,0.0,0.0,0.0,0.0,0.0,0.0,0.0,0.0,0.0,0.0,0.0,0.0,0.0,0.0,0.0,0.0,0.0,0.0,0.0,0.0,0.0,0.0,0.0,0.0,0.0,0.0,0.0,0.0,0.0,0.0,0.0,0.0,0.0,0.0,0.0,0.0,0.0,0.0,0.0,0.0,0.0,0.0,0.0,0.0,0.0,0.0,0.0,0.0,0.0,0.0,0.0,0.0,0.0,0.0,0.0,0.0,0.0,0.0,0.0,0.0,0.0,0.0,0.0,0.0,0.0,0.0,0.0,0.0,0.0,0.0,0.0,0.0,0.0,0.0,0.0,0.0,0.0,0.0,0.0,0.0,0.0,0.0,0.0,0.0,0.0,0.0,0.0,0.0,0.0,0.0,0.0,0.0,0.0,0.0,0.0,0.0,0.0,0.0,0.0,0.0,0.0,0.0,0.0,0.0,0.0,0.0,0.0,0.0,0.0,0.0,0.0,0.0,0.0,0.0,0.0,0.0,0.0,0.0,0.0,0.0,0.0,0.0,0.0,0.0,0.0,0.0,0.0,0.0,0.0,0.0,0.0,0.0,0.0,0.0,0.0,0.0,0.0,0.0,0.0,0.0,0.0,0.0,0.0,0.0,0.0,0.0,0.0,0.0,0.0,0.0,0.0,0.0,0.0,0.0,0.0,0.0,0.0,0.0,0.0,0.0,0.0,0.0,0.0,0.0,0.0,0.0,0.0,0.0,0.0,0.0,0.0,0.0,0.0,0.0,0.0,0.0,0.0,0.0,0.0,0.0,0.0,0.0,0.0,0.0,0.0,0.0,0.0,0.0,0.0,0.0,0.0,0.0,0.0,0.0,0.0,0.0,0.0,0.0,0.0,0.0,0.0,0.0,0.0,0.0,0.0,0.0,0.0,0.0,0.0,0.0,0.0,0.0,0.0,0.0,0.0,0.0,0.0,0.0,0.0,0.0,0.0,0.0,0.0,0.0,0.0,0.0,0.0,0.0,0.0,0.0,0.0,0.0,0.0,0.0,0.0,0.0,0.0,0.0,0.0,0.0,0.0,0.0,0.0,0.0,0.0,0.0,0.0,0.0,0.0,0.0,0.0,0.0,0.0,0.0,0.0,0.0,0.0,0.0,0.0,0.0,0.0,0.0,0.0,0.0,0.0,0.0,0.0,0.0,0.0,0.0,0.0,0.0,0.0,0.0,0.0,0.0,0.0,0.0,0.0,0.0,0.0,0.0,0.0,0.0,0.0,0.0,0.0,0.0,0.0,0.0,0.0,0.0,0.0,0.0,0.0,0.0,0.0,0.0,0.0,0.0,0.0,0.0,0.0,0.0,0.0,0.0,0.0,0.0,0.0,0.0,0.0,0.0,0.0,0.0,0.0,0.0,0.0,0.0,0.0,0.0,0.0,0.0,0.0,0.0,0.0,0.0,0.0,0.0,0.0,0.0,0.0,0.0,0.0,0.0,0.0,0.0,0.0,0.0,0.0,0.0,0.0,0.0,0.0,0.0,0.0,0.0,0.0,0.0,0.0,0.0,0.0,0.0,0.0,0.0,0.0,0.0,0.0,0.0,0.0,0.0,0.0,0.0,0.0,0.0,0.0,0.0,0.0,0.0,0.0,0.0,0.0,0.0,0.0,0.0,0.0,0.0,0.0,0.0,0.0,0.0,0.0,0.0,0.0,0.0,0.0,0.0,0.0,0.0,0.0,0.0,0.0,0.0,0.0,0.0,0.0,0.0,0.0,0.0,0.0,0.0,0.0,0.0,0.0,0.0,0.0,0.0,0.0,0.0,0.0,0.0,0.0,0.0,0.0,0.0,0.0,0.0,0.0,0.0,0.0,0.0,0.0,0.0,0.0,0.0,0.0,0.0,0.0,0.0,0.0,0.0,0.0,0.0,0.0,0.0,0.0,0.0,0.0,0.0,0.0,0.0,0.0,0.0,0.0,0.0,0.0,0.0,0.0,0.0,0.0,0.0,0.0,0.0,0.0,0.0,0.0,0.0,0.0,0.0,0.0,0.0,0.0,0.0,0.0,0.0,0.0,0.0,0.0,0.0,0.0,0.0,0.0,0.0,0.0,0.0,0.0,0.0,0.0,0.0,0.0,0.0,0.0,0.0,0.0,0.0,0.0,0.0,0.0,0.0,0.0,0.0,0.0,0.0,0.0,0.0,0.0,0.0,0.0,0.0,0.0,0.0,0.0,0.0,0.0,0.0,0.0,0.0,0.0,-0.6852,0.0,0.0,0.0,0.0,0.0,0.0,0.0,0.0,0.0,0.0,0.0,0.0,0.0,0.0,0.0,0.0,0.0,0.0,0.0,0.0,0.0,0.0,0.0,0.0,0.0,0.0,0.0,0.0,0.0,0.0,0.0,0.0,0.0,0.0,0.0,0.0,0.0,0.0,0.0,0.0,0.0,0.0,0.0,0.0,0.0,0.0,0.0,0.0,0.0,0.0,0.0,0.0,0.0,0.0,0.0,0.0,0.0,0.0,0.0,0.0,0.0,0.0,0.0,0.0,0.0,0.0,0.0,0.0,0.0,0.0,0.0,0.0,0.0,0.0,0.0,0.0,0.0,0.0,0.0,0.0,0.0,0.0,0.0,0.0,0.0,0.0,0.0,0.0,0.0,0.0,0.0,0.0,0.0,0.0,0.0,0.0,0.0,0.0,0.0,0.0,0.0,0.0,0.0,0.0,0.0,0.0,0.0,0.0,0.0,0.0,-0.7498,-0.6688,-0.7676,-0.7625,-0.6426,0.0,0.0,0.0,0.0,0.0,0.0,0.0,0.0,0.0,0.0,0.0,0.0,0.0,0.0,0.0,0.0,0.0,0.0,0.0,0.0,0.0,0.0,0.0,0.0,0.0,0.0,0.0,0.0,0.0,0.0,0.0,0.0,0.0,0.0,0.0,0.0,0.0,0.0,0.0,0.0,0.0,0.0,0.0,0.0,0.0,0.0,0.0,0.0,0.0,0.0,0.0,0.0,0.0,0.0,0.0,0.0,0.0,0.0,0.0,0.0,0.0,0.0,0.0,0.0,0.0,0.0,0.0,0.0,0.0,0.0,0.0,0.0,0.0,0.0,0.0,0.0,0.0,0.0,0.0,0.0,0.0,0.0,0.0,0.0,0.0,0.0,0.0,0.0,0.0,0.0,0.0,0.0,0.0,0.0,0.0,0.0,0.0,0.0,0.0,0.0,0.0,0.0,0.0,0.0,0.0,0.0,0.0,0.0,0.0,0.0,0.0,0.0,-0.7449,-0.7452,-0.6716,0.0,0.0,0.0,0.0,0.0,0.0,0.0,0.0,0.0,0.0,0.0,0.0,0.0,0.0,0.0,0.0,0.0,0.0,0.0,0.0,0.0,0.0,0.0,0.0,0.0,0.0,0.0,0.0,0.0,0.0,0.0,0.0,0.0,0.0,0.0,0.0,0.0,0.0,0.0,0.0,0.0,0.0,0.0,0.0,0.0,0.0,0.0,0.0,0.0,0.0,0.0,0.0,0.0,0.0,0.0,0.0,0.0,0.0,0.0,0.0,0.0,0.0,0.0,0.0,0.0,0.0,0.0,0.0,0.0,0.0,0.0,0.0,0.0,0.0,0.0,0.0,0.0,0.0,0.0,0.0,0.0,0.0,0.0,0.0,0.0,0.0,0.0,0.0,0.0,0.0,0.0,0.0,0.0,0.0,0.0,0.0,0.0,0.0,0.0,0.0,0.0,0.0,0.0,0.0,0.0,0.0,0.0,0.0,0.0,0.0,-0.6703,-0.7293,-0.7281,0.0,-0.8219,0.0,0.0,0.0,0.0,0.0,0.0,0.0,0.0,0.0,0.0,0.0,0.0,0.0,0.0,0.0,0.0,0.0,0.0,0.0,0.0,0.0,0.0,0.0,0.0,0.0,0.0,0.0,0.0,0.0,0.0,0.0,0.0,0.0,0.0,0.0,0.0,0.0,0.0,0.0,0.0,0.0,0.0,0.0,0.0,0.0,0.0,0.0,0.0,0.0,0.0,0.0,0.0,0.0,0.0,0.0,0.0,0.0,0.0,0.0,0.0,0.0,0.0,0.0,0.0,0.0,0.0,0.0,0.0,0.0,0.0,0.0,0.0,0.0,0.0,0.0,0.0,0.0,0.0,0.0,0.0,0.0,0.0,0.0,0.0,0.0,0.0,0.0,0.0,0.0,0.0,0.0,0.0,0.0,0.0,0.0,0.0,0.0,0.0,0.0,0.0,0.0,0.0,0.0,0.0,0.0,0.0,0.0,0.0,0.0,0.0,-0.654,-0.7372,-0.7199,-0.7146,0.0,0.0,0.0,0.0,0.0,0.0,0.0,0.0,0.0,0.0,0.0,0.0,0.0,0.0,0.0,0.0,0.0,0.0,0.0,0.0,0.0,0.0,0.0,0.0,0.0,0.0,0.0,0.0,0.0,0.0,0.0,0.0,0.0,0.0,0.0,0.0,0.0,0.0,0.0,0.0,0.0,0.0,0.0,0.0,0.0,0.0,0.0,0.0,0.0,0.0,0.0,0.0,0.0,0.0,0.0,0.0,0.0,0.0,0.0,0.0,0.0,0.0,0.0,0.0,0.0,0.0,0.0,0.0,0.0,0.0,0.0,0.0,0.0,0.0,0.0,0.0,0.0,0.0,0.0,0.0,0.0,0.0,0.0,0.0,0.0,0.0,0.0,0.0,0.0,0.0,0.0,0.0,0.0,0.0,0.0,0.0,0.0,0.0,0.0,0.0,0.0,0.0,0.0,0.0,0.0,0.0,0.0,0.0,0.0,0.0,-0.639,-0.6628,-0.7468,-0.7138,-0.6824,-0.6661,0.0,0.0,0.0,0.0,0.0,0.0,0.0,0.0,0.0,0.0,0.0,0.0,0.0,0.0,0.0,0.0,0.0,0.0,0.0,0.0,0.0,0.0,0.0,0.0,0.0,0.0,0.0,0.0,0.0,0.0,0.0,0.0,0.0,0.0,0.0,0.0,0.0,0.0,0.0,0.0,0.0,0.0,0.0,0.0,0.0,0.0,0.0,0.0,0.0,0.0,0.0,0.0,0.0,0.0,0.0,0.0,0.0,0.0,0.0,0.0,0.0,0.0,0.0,0.0,0.0,0.0,0.0,0.0,0.0,0.0,0.0,0.0,0.0,0.0,0.0,0.0,0.0,0.0,0.0,0.0,0.0,0.0,0.0,0.0,0.0,0.0,0.0,0.0,0.0,0.0,0.0,0.0,0.0,0.0,0.0,0.0,0.0,0.0,0.0,0.0,0.0,0.0,0.0,0.0,0.0,0.0,0.0,0.0,-0.8133,-0.7262,-0.7122,-0.7804,-0.7067,-0.6771,0.0,0.0,0.0,0.0,0.0,0.0,0.0,0.0,0.0,0.0,0.0,0.0,0.0,0.0,0.0,0.0,0.0,0.0,0.0,0.0,0.0,0.0,0.0,0.0,0.0,0.0,0.0,0.0,0.0,0.0,0.0,0.0,0.0,0.0,0.0,0.0,0.0,0.0,0.0,0.0,0.0,0.0,0.0,0.0,0.0,0.0,0.0,0.0,0.0,0.0,0.0,0.0,0.0,0.0,0.0,0.0,0.0,0.0,0.0,0.0,0.0,0.0,0.0,0.0,0.0,0.0,0.0,0.0,0.0,0.0,0.0,0.0,0.0,0.0,0.0,0.0,0.0,0.0,0.0,0.0,0.0,0.0,0.0,0.0,0.0,0.0,0.0,0.0,0.0,0.0,0.0,0.0,0.0,0.0,0.0,0.0,0.0,0.0,0.0,0.0,0.0,0.0,0.0,0.0,0.0,0.0,0.0,0.0,0.0,-0.6462,-0.699,-0.7103,-0.6839,-0.7282,-0.7143,0.0,0.0,0.0,0.0,0.0,0.0,0.0,0.0,0.0,0.0,0.0,0.0,0.0,0.0,0.0,0.0,0.0,0.0,0.0,0.0,0.0,0.0,0.0,0.0,0.0,0.0,0.0,0.0,0.0,0.0,0.0,0.0,0.0,0.0,0.0,0.0,0.0,0.0,0.0,0.0,0.0,0.0,0.0,0.0,0.0,0.0,0.0,0.0,0.0,0.0,0.0,0.0,0.0,0.0,0.0,0.0,0.0,0.0,0.0,0.0,0.0,0.0,0.0,0.0,0.0,0.0,0.0,0.0,0.0,0.0,0.0,0.0,0.0,0.0,0.0,0.0,0.0,0.0,0.0,0.0,0.0,0.0,0.0,0.0,0.0,0.0,0.0,0.0,0.0,0.0,0.0,0.0,0.0,0.0,0.0,0.0,0.0,0.0,0.0,0.0,0.0,0.0,0.0,0.0,0.0,0.0,0.0,0.0,0.0,-0.5922,0.0,-0.7263,-0.6664,-0.71,-0.6809,0.0,0.0,0.0,0.0,0.0,0.0,0.0,0.0,0.0,0.0,0.0,0.0,0.0,0.0,0.0,0.0,0.0,0.0,0.0,0.0,0.0,0.0,0.0,0.0,0.0,0.0,0.0,0.0,0.0,0.0,0.0,0.0,0.0,0.0,0.0,0.0,0.0,0.0,0.0,0.0,0.0,0.0,0.0,0.0,0.0,0.0,0.0,0.0,0.0,0.0,0.0,0.0,0.0,0.0,0.0,0.0,0.0,0.0,0.0,0.0,0.0,0.0,0.0,0.0,0.0,0.0,0.0,0.0,0.0,0.0,0.0,0.0,0.0,0.0,0.0,0.0,0.0,0.0,0.0,0.0,0.0,0.0,0.0,0.0,0.0,0.0,0.0,0.0,0.0,0.0,0.0,0.0,0.0,0.0,0.0,0.0,0.0,0.0,0.0,0.0,0.0,0.0,0.0,0.0,0.0,0.0,0.0,0.0,-0.6139,-0.6857,-0.7384,-0.7579,-0.7452,-0.6455,-0.5763,0.0,0.0,0.0,0.0,0.0,0.0,0.0,0.0,0.0,0.0,0.0,0.0,0.0,0.0,0.0,0.0,0.0,0.0,0.0,0.0,0.0,0.0,0.0,0.0,0.0,0.0,0.0,0.0,0.0,0.0,0.0,0.0,0.0,0.0,0.0,0.0,0.0,0.0,0.0,0.0,0.0,0.0,0.0,0.0,0.0,0.0,0.0,0.0,0.0,0.0,0.0,0.0,0.0,0.0,0.0,0.0,0.0,0.0,0.0,0.0,0.0,0.0,0.0,0.0,0.0,0.0,0.0,0.0,0.0,0.0,0.0,0.0,0.0,0.0,0.0,0.0,0.0,0.0,0.0,0.0,0.0,0.0,0.0,0.0,0.0,0.0,0.0,0.0,0.0,0.0,0.0,0.0,0.0,0.0,0.0,0.0,0.0,0.0,0.0,0.0,0.0,0.0,0.0,0.0,0.0,0.0,0.0,0.0,0.0,-0.6364,-0.6895,-0.7206,-0.7207,-0.6663,-0.6215,0.0,0.0,0.0,0.0,0.0,0.0,0.0,0.0,0.0,0.0,0.0,0.0,0.0,0.0,0.0,0.0,0.0,0.0,0.0,0.0,0.0,0.0,0.0,0.0,0.0,0.0,0.0,0.0,0.0,0.0,0.0,0.0,0.0,0.0,0.0,0.0,0.0,0.0,0.0,0.0,0.0,0.0,0.0,0.0,0.0,0.0,0.0,0.0,0.0,0.0,0.0,0.0,0.0,0.0,0.0,0.0,0.0,0.0,0.0,0.0,0.0,0.0,0.0,0.0,0.0,0.0,0.0,0.0,0.0,0.0,0.0,0.0,0.0,0.0,0.0,0.0,0.0,0.0,0.0,0.0,0.0,0.0,0.0,0.0,0.0,0.0,0.0,0.0,0.0,0.0,0.0,0.0,0.0,0.0,0.0,0.0,0.0,0.0,0.0,0.0,0.0,0.0,0.0,0.0,0.0,0.0,0.0,0.0,0.0,-0.694,-0.7175,-0.7237,-0.7156,-0.6553,-0.6156,-0.5986,0.0,0.0,0.0,0.0,0.0,0.0,0.0,0.0,0.0,0.0,0.0,0.0,0.0,0.0,0.0,0.0,0.0,0.0,0.0,0.0,0.0,0.0,0.0,0.0,0.0,0.0,0.0,0.0,0.0,0.0,0.0,0.0,0.0,0.0,0.0,0.0,0.0,0.0,0.0,0.0,0.0,0.0,0.0,0.0,0.0,0.0,0.0,0.0,0.0,0.0,0.0,0.0,0.0,0.0,0.0,0.0,0.0,0.0,0.0,0.0,0.0,0.0,0.0,0.0,0.0,0.0,0.0,0.0,0.0,0.0,0.0,0.0,0.0,0.0,0.0,0.0,0.0,0.0,0.0,0.0,0.0,0.0,0.0,0.0,0.0,0.0,0.0,0.0,0.0,0.0,0.0,0.0,0.0,0.0,0.0,0.0,0.0,0.0,0.0,0.0,0.0,0.0,0.0,0.0,0.0,0.0,0.0,0.0,-0.8223,-0.7992,-0.767,-0.7332,-0.6241,-0.5742,0.0,0.0,0.0,0.0,0.0,0.0,0.0,0.0,0.0,0.0,0.0,0.0,0.0,0.0,0.0,0.0,0.0,0.0,0.0,0.0,0.0,0.0,0.0,0.0,0.0,0.0,0.0,0.0,0.0,0.0,0.0,0.0,0.0,0.0,0.0,0.0,0.0,0.0,0.0,0.0,0.0,0.0,0.0,0.0,0.0,0.0,0.0,0.0,0.0,0.0,0.0,0.0,0.0,0.0,0.0,0.0,0.0,0.0,0.0,0.0,0.0,0.0,0.0,0.0,0.0,0.0,0.0,0.0,0.0,0.0,0.0,0.0,0.0,0.0,0.0,0.0,0.0,0.0,0.0,0.0,0.0,0.0,0.0,0.0,0.0,0.0,0.0,0.0,0.0,0.0,0.0,0.0,0.0,0.0,0.0,0.0,0.0,0.0,0.0,0.0,0.0,0.0,0.0,0.0,0.0,0.0,0.0,0.0,0.0,-0.7637,-0.814,-0.8427,-0.8498,-0.6901,-0.6285,0.0,0.0,0.0,0.0,0.0,0.0,0.0,0.0,0.0,0.0,0.0,0.0,0.0,0.0,0.0,0.0,0.0,0.0,0.0,0.0,0.0,0.0,0.0,0.0,0.0,0.0,0.0,0.0,0.0,0.0,0.0,0.0,0.0,0.0,0.0,0.0,0.0,0.0,0.0,0.0,0.0,0.0,0.0,0.0,0.0,0.0,0.0,0.0,0.0,0.0,0.0,0.0,0.0,0.0,0.0,0.0,0.0,0.0,0.0,0.0,0.0,0.0,0.0,0.0,0.0,0.0,0.0,0.0,0.0,0.0,0.0,0.0,0.0,0.0,0.0,0.0,0.0,0.0,0.0,0.0,0.0,0.0,0.0,0.0,0.0,0.0,0.0,0.0,0.0,0.0,0.0,0.0,0.0,0.0,0.0,0.0,0.0,0.0,0.0,0.0,0.0,0.0,0.0,0.0,0.0,0.0,0.0,0.0,-0.7755,-0.7991,-0.8486,-0.891,-0.9123,-0.7447,-0.6685,0.0,0.0,0.0,0.0,0.0,0.0,0.0,0.0,0.0,0.0,0.0,0.0,0.0,0.0,0.0,0.0,0.0,0.0,0.0,0.0,0.0,0.0,0.0,0.0,0.0,0.0,0.0,0.0,0.0,0.0,0.0,0.0,0.0,0.0,0.0,0.0,0.0,0.0,0.0,0.0,0.0,0.0,0.0,0.0,0.0,0.0,0.0,0.0,0.0,0.0,0.0,0.0,0.0,0.0,0.0,0.0,0.0,0.0,0.0,0.0,0.0,0.0,0.0,0.0,0.0,0.0,0.0,0.0,0.0,0.0,0.0,0.0,0.0,0.0,0.0,0.0,0.0,0.0,0.0,0.0,0.0,0.0,0.0,0.0,0.0,0.0,0.0,0.0,0.0,0.0,0.0,0.0,0.0,0.0,0.0,0.0,0.0,0.0,0.0,0.0,0.0,0.0,0.0,0.0,0.0,0.0,0.0,0.0,-0.8384,-0.8754,-0.8928,-0.9055,-0.9197,-0.7895,-0.7004,0.0,0.0,0.0,0.0,0.0,0.0,0.0,0.0,0.0,0.0,0.0,0.0,0.0,0.0,0.0,0.0,0.0,0.0,0.0,0.0,0.0,0.0,0.0,0.0,0.0,0.0,0.0,0.0,0.0,0.0,0.0,0.0,0.0,0.0,0.0,0.0,0.0,0.0,0.0,0.0,0.0,0.0,0.0,0.0,0.0,0.0,0.0,0.0,0.0,0.0,0.0,0.0,0.0,0.0,0.0,0.0,0.0,0.0,0.0,0.0,0.0,0.0,0.0,0.0,0.0,0.0,0.0,0.0,0.0,0.0,0.0,0.0,0.0,0.0,0.0,0.0,0.0,0.0,0.0,0.0,0.0,0.0,0.0,0.0,0.0,0.0,0.0,0.0,0.0,0.0,0.0,0.0,0.0,0.0,0.0,0.0,0.0,0.0,0.0,0.0,0.0,0.0,0.0,0.0,0.0,0.0,0.0,0.0,-0.8317,-0.8575,-0.8858,-0.8928,-0.8832,-0.8134,-0.7492,0.0,0.0,0.0,0.0,0.0,0.0,0.0,0.0,0.0,0.0,0.0,0.0,0.0,0.0,0.0,0.0,0.0,0.0,0.0,0.0,0.0,0.0,0.0,0.0,0.0,0.0,0.0,0.0,0.0,0.0,0.0,0.0,0.0,0.0,0.0,0.0,0.0,0.0,0.0,0.0,0.0,0.0,0.0,0.0,0.0,0.0,0.0,0.0,0.313,0.0,0.0,0.0,0.0,0.0,0.0,0.0,0.0,0.0,0.0,0.0,0.0,0.0,0.0,0.0,0.0,0.0,0.0,0.0,0.0,0.0,0.0,0.0,0.0,0.0,0.0,0.0,0.0,0.0,0.0,0.0,0.0,0.0,0.0,0.0,0.0,0.0,0.0,0.0,0.0,0.0,0.0,0.0,0.0,0.0,0.0,0.0,0.0,0.0,0.0,0.0,0.0,0.0,0.0,0.0,0.0,0.0,0.0,0.0,-0.8512,-0.8509,-0.8819,-0.8895,-0.8716,-0.8351,-0.7733,0.0,0.0,0.0,0.0,0.0,0.0,0.0,0.0,0.0,0.0,0.0,0.0,0.0,0.0,0.0,0.0,0.0,0.0,0.0,0.0,0.0,0.0,0.0,0.0,0.0,0.0,0.0,0.0,0.0,0.0,0.0,0.0,0.0,0.0,0.0,0.0,0.0,0.0,0.0,0.0,0.0,0.0,0.0,0.0,0.0,0.0,0.0,0.0,0.0,0.0,0.0,0.0,0.0,0.0,0.0,0.0,0.0,0.0,0.0,0.0,0.0,0.0,0.0,0.0,0.0,0.0,0.0,0.0,0.0,0.0,0.0,0.0,0.0,0.0,0.0,0.0,0.0,0.0,0.0,0.0,0.0,0.0,0.0,0.0,0.0,0.0,0.0,0.0,0.0,0.0,0.0,0.0,0.0,0.0,0.0,0.0,0.0,0.0,0.0,0.0,0.0,0.0,0.0,0.0,0.0,0.0,0.0,-0.8483,-0.8762,-0.8604,-0.8853,-0.8886,-0.8724,-0.8529,-0.7842,-0.6614,0.0,0.0,0.0,0.0,0.0,0.0,0.0,0.0,0.0,0.0,0.0,0.0,0.0,0.0,0.0,0.0,0.0,0.0,0.0,0.0,0.0,0.0,0.0,0.0,0.0,0.0,0.0,0.0,0.0,0.0,0.0,0.0,0.0,0.0,0.0,0.0,0.0,0.0,0.1326,0.2243,0.0,0.0,0.0,0.0,0.0,0.0,0.0,0.0,0.3901,0.0,0.0,0.0,0.0,0.0,0.0,0.0,0.0,0.0,0.0,0.0,0.0,0.0,0.0,0.0,0.0,0.0,0.0,0.0,0.0,0.0,0.0,0.0,0.0,0.0,0.0,0.0,0.0,0.0,0.0,0.0,0.0,0.0,0.0,0.0,0.0,0.0,0.0,0.0,0.0,0.0,0.0,0.0,0.0,0.0,0.0,0.0,0.0,0.0,0.0,0.0,0.0,0.0,0.0,0.0,0.0,-0.8436,-0.8586,-0.8721,-0.8904,-0.899,-0.8935,-0.8724,-0.8561,-0.7866,-0.6658,0.0,0.0,0.0,0.0,0.0,0.0,0.0,0.0,0.0,0.0,0.0,0.0,0.0,0.0,0.0,0.0,0.0,0.0,0.0,0.0,0.0,0.0,0.0,0.0,0.0,0.0,0.0,0.0,0.0,0.0,0.0,0.0,0.0,0.0,0.0,0.0,0.0,0.0,0.0,0.2802,0.3161,0.0,0.0,0.0,0.0,0.0,0.0,0.0,0.0,0.4338,0.0,0.0,0.0,0.0,0.0,0.0,0.0,0.0,0.0,0.0,0.0,0.0,0.0,0.0,0.0,0.0,0.0,0.0,0.0,0.0,0.0,0.0,0.0,0.0,0.0,0.0,0.0,0.0,0.0,0.0,0.0,0.0,0.0,0.0,0.0,0.0,0.0,0.0,0.0,0.0,0.0,0.0,0.0,0.0,0.0,0.0,0.0,0.0,0.0,0.0,0.0,0.0,0.0,0.0,0.0,-0.8643,-0.9102,-0.9261,-0.9007,-0.9016,-0.8935,-0.8773,-0.8406,-0.7708,0.0,0.0,0.0,0.0,0.0,0.0,0.0,0.0,0.0,0.0,0.0,0.0,0.0,0.0,0.0,0.0,0.0,0.0,0.0,0.0,0.0,0.0,0.0,0.0,0.0,0.0,0.0,0.0,0.0,0.0,0.0,0.0,0.0,0.0,0.0,0.0,0.0,0.0,0.0,0.0,0.2926,0.3271,0.3791,0.0,0.0,0.0,0.0,0.0,0.0,0.4314,0.44,0.0,0.0,0.0,0.0,0.0,0.0,0.0,0.0,0.0,0.0,0.0,0.0,0.0,0.0,0.0,0.0,0.0,0.0,0.0,0.0,0.0,0.0,0.0,0.0,0.0,0.0,0.0,0.0,0.0,0.0,0.0,0.0,0.0,0.0,0.0,0.0,0.0,0.0,0.0,0.0,0.0,0.0,0.0,0.0,0.0,0.0,0.0,0.0,0.0,0.0,0.0,0.0,0.0,0.0,0.0,-0.8671,-0.9524,-0.969,-0.9096,-0.9056,-0.9024,-0.8911,-0.8332,-0.7589,0.0,0.0,0.0,0.0,0.0,0.0,0.0,0.0,0.0,0.0,0.0,0.0,0.0,0.0,0.0,0.0,0.0,0.0,0.0,0.0,0.0,0.0,0.0,0.0,0.0,0.0,0.0,0.0,0.0,0.0,0.0,0.0,0.0,0.0,0.0,0.0,0.0,0.0,0.0,0.0,0.0,0.3339,0.3863,0.4002,0.0,0.0,0.0,0.0,0.4267,0.4462,0.0,0.0,0.0,0.0,0.0,0.0,0.0,0.0,0.0,0.0,0.0,0.0,0.0,0.0,0.0,0.0,0.0,0.0,0.0,0.0,0.0,0.0,0.0,0.0,0.0,0.0,0.0,0.0,0.0,0.0,0.0,0.0,0.0,0.0,0.0,0.0,0.0,0.0,0.0,0.0,0.0,0.0,0.0,0.0,0.0,0.0,0.0,0.0,0.0,0.0,0.0,0.0,0.0,0.0,0.0,0.0,-0.8652,-0.9284,-0.9507,-0.9199,-0.9208,-0.9168,-0.8975,-0.8578,-0.7874,0.0,0.0,0.0,0.0,0.0,0.0,0.0,0.0,0.0,0.0,0.0,0.0,0.0,0.0,0.0,0.0,0.0,0.0,0.0,0.0,0.0,0.0,0.0,0.0,0.0,0.0,0.0,0.0,0.0,0.0,0.0,0.0,0.0,0.0,0.0,0.0,0.0,0.0,0.0,0.0,0.0,0.3409,0.3785,0.3934,0.4062,0.0,0.0,0.4592,0.4943,0.5019,0.0,0.0,0.0,0.0,0.0,0.0,0.0,0.0,0.0,0.0,0.0,0.0,0.0,0.0,0.0,0.0,0.0,0.0,0.0,0.0,0.0,0.0,0.0,0.0,0.0,0.0,0.0,0.0,0.0,0.0,0.0,0.0,0.0,0.0,0.0,0.0,0.0,0.0,0.0,0.0,0.0,0.0,0.0,0.0,0.0,0.0,0.0,0.0,0.0,0.0,0.0,0.0,0.0,0.0,0.0,-0.9627,-0.8833,-0.9612,-0.9772,-0.9279,-0.9279,-0.9239,-0.9168,-0.839,-0.7715,0.0,0.0,0.0,0.0,0.0,0.0,0.0,0.0,0.0,0.0,0.0,0.0,0.0,0.0,0.0,0.0,0.0,0.0,0.0,0.0,0.0,0.0,0.0,0.0,0.0,0.0,0.0,0.0,0.0,0.0,0.0,0.0,0.0,0.0,0.0,0.0,0.0,0.0,0.0,0.0,0.0,0.0,0.4474,0.4312,0.0,0.0,0.0,0.5047,0.5275,0.0,0.0,0.0,0.0,0.0,0.0,0.0,0.0,0.0,0.0,0.0,0.0,0.0,0.0,0.0,0.0,0.0,0.0,0.0,0.0,0.0,0.0,0.0,0.0,0.0,0.0,0.0,0.0,0.0,0.0,0.0,0.0,0.0,0.0,0.0,0.0,0.0,0.0,0.0,0.0,0.0,0.0,0.0,0.0,0.0,0.0,0.0,0.0,0.0,0.0,0.0,0.0,0.0,0.0,0.0,0.0,0.0,-0.896,-0.9935,-1.0108,-0.9377,-0.9368,-0.9368,-0.9337,-0.8382,0.0,0.0,0.0,0.0,0.0,0.0,0.0,0.0,0.0,0.0,0.0,0.0,0.0,0.0,0.0,0.0,0.0,0.0,0.0,0.0,0.0,0.0,0.0,0.0,0.0,0.0,0.0,0.1599,0.0,0.0,0.0,0.0,0.0,0.0,0.0,0.0,0.0,0.0,0.0,0.0,0.0,0.0,0.3369,0.4919,0.4733,0.4673,0.0,0.0,0.5602,0.5805,0.6278,0.6494,0.0,0.0,0.0,0.0,0.0,0.0,0.0,0.0,0.0,0.0,0.0,0.0,0.0,0.0,0.0,0.0,0.0,0.0,0.0,0.0,0.0,0.0,0.0,0.0,0.0,0.0,0.0,0.0,0.0,0.0,0.0,0.0,0.0,0.0,0.0,0.0,0.0,0.0,0.0,0.0,0.0,0.0,0.0,0.0,0.0,0.0,0.0,0.0,0.0,0.0,0.0,0.0,0.0,0.0,-0.9566,-0.898,-1.0019,-1.0235,-0.9515,-0.9594,-0.9603,-0.9475,-0.8635,-0.7772,0.0,0.0,0.0,0.0,0.0,0.0,0.0,0.0,0.0,0.0,0.0,0.0,0.0,0.0,0.0,0.0,0.0,0.0,0.0,0.0,0.0,0.0,0.0,0.0,0.0,0.0,0.0,0.0,0.0,0.0,0.0,0.0,0.0,0.0,0.0,0.0,0.0,0.0,0.0,0.0,0.0,0.3606,0.461,0.4916,0.5278,0.0,0.613,0.6276,0.6722,0.6811,0.672,0.622,0.0,0.0,0.0,0.0,0.0,0.0,0.0,0.0,0.0,0.0,0.0,0.0,0.0,0.0,0.0,0.0,0.0,0.0,0.0,0.0,0.0,0.0,0.0,0.0,0.0,0.0,0.0,0.0,0.0,0.0,0.0,0.0,0.0,0.0,0.0,0.0,0.0,0.0,0.0,0.0,0.0,0.0,0.0,0.0,0.0,0.0,0.0,0.0,0.0,0.0,0.0,0.0,0.0,-0.9786,-0.9062,-1.0056,-1.0322,-0.9744,-0.9744,-0.9783,-0.9793,-0.8886,-0.8071,0.0,0.0,0.0,0.0,0.0,0.0,0.0,0.0,0.0,0.0,0.0,0.0,0.0,0.0,0.0,0.0,0.0,0.0,0.0,0.0,0.0,0.0,0.0,0.0,0.0,0.0,0.0,0.0,0.1169,0.1119,0.0557,0.0,0.0,0.0,0.0,0.0,0.0,0.0,0.0,0.0,0.0,0.4149,0.523,0.5556,0.0,0.0,0.6144,0.6233,0.623,0.6473,0.6649,0.6352,0.6322,0.0,0.0,0.0,0.0,0.0,0.0,0.0,0.0,0.0,0.0,0.0,0.0,0.0,0.0,0.0,0.0,0.0,0.0,0.0,0.0,0.0,0.0,0.0,0.0,0.0,0.0,0.0,0.0,0.0,0.0,0.0,0.0,0.0,0.0,0.0,0.0,0.0,0.0,0.0,0.0,0.0,0.0,0.0,0.0,0.0,0.0,0.0,0.0,0.0,0.0,0.0,0.0,-1.0026,-0.9164,-1.0166,-1.0418,-0.9862,-0.9862,-0.9902,-0.998,-0.9047,-0.8342,0.0,0.0,0.0,0.0,0.0,0.0,0.0,0.0,0.0,0.0,0.0,0.0,0.0,0.0,0.0,0.0,0.0,0.0,0.0,0.0,0.0,0.0,0.0,0.0,0.0,0.0,0.0,0.0,0.0961,0.082,0.0435,0.0,0.0,0.0,0.0,0.0,0.0,0.0,0.0,0.0,0.0,0.4546,0.5429,0.5742,0.5982,0.6079,0.6106,0.6149,0.6023,0.6511,0.6833,0.6676,0.0,0.0,0.0,0.0,0.0,0.0,0.0,0.0,0.0,0.0,0.0,0.0,0.0,0.0,0.0,0.0,0.0,0.0,0.0,0.0,0.0,0.0,0.0,0.0,0.0,0.0,0.0,-1.0037,0.0,0.0,-1.0026,0.0,0.0,0.0,0.0,0.0,0.0,0.0,0.0,0.0,0.0,0.0,0.0,0.0,0.0,0.0,0.0,0.0,0.0,0.0,0.0,0.0,0.0,-1.0113,-0.9342,-1.0339,-1.0621,-1.0019,-0.999,-0.999,-0.998,-0.9168,-0.8494,-0.8084,0.0,0.0,0.0,0.0,0.0,0.0,0.0,0.0,0.0,0.0,0.0,0.0,0.0,0.0,0.0,0.0,0.0,0.0,0.0,0.0,0.0,0.0,0.0,0.0,0.0,0.0,0.1608,0.0673,0.0131,0.0,0.0,0.0,0.0,0.0,0.0,0.0,0.0,0.0,0.2888,0.3959,0.474,0.4959,0.5445,0.5927,0.6214,0.6125,0.6131,0.6529,0.7058,0.7439,0.0,0.0,0.0,0.0,0.0,0.0,0.0,0.0,0.0,0.0,0.0,0.0,0.0,0.0,0.0,0.0,0.0,0.0,0.0,0.0,0.0,0.0,0.0,0.0,0.0,0.0,0.0,-1.0475,-1.0412,0.0,0.0,0.0,0.0,0.0,0.0,0.0,0.0,0.0,0.0,0.0,-1.4415,-1.4541,0.0,0.0,0.0,0.0,0.0,0.0,0.0,0.0,0.0,0.0,0.0,0.0,-1.0242,-0.9818,-1.0557,-1.0802,-1.0495,-1.0283,-1.0244,-1.0283,-0.9518,-0.8494,-0.7292,0.0,0.0,0.0,0.0,0.0,0.0,0.0,0.0,0.0,0.0,0.0,0.0,0.0,0.0,0.0,0.0,0.0,0.0,0.0,0.0,0.0,0.0,0.0,0.0,0.0,0.1558,0.0,0.0,0.0,0.0,0.0,0.0,0.0,0.0,0.0,0.0,0.2336,0.3044,0.3014,0.4128,0.4831,0.4494,0.54,0.6023,0.0,0.0,0.0,0.0,0.0,0.0,0.0,0.0,0.0,0.0,0.0,0.0,0.0,0.0,0.9867,0.8108,0.796,0.8121,0.8121,0.0,0.0,0.0,0.0,0.0,0.0,0.0,0.0,0.0,0.0,0.0,0.0,0.0,0.0,-1.1617,-1.1734,-1.1374,0.0,0.0,0.0,0.0,0.0,0.0,0.0,0.0,-1.4281,-1.483,-1.5232,-1.5244,-1.5334,-1.5513,-1.5623,-1.5408,0.0,0.0,0.0,0.0,0.0,0.0,0.0,0.0,-1.091,-1.0276,-1.0848,-1.1019,-1.0687,-1.0505,-1.0428,-1.0457,-0.9765,-0.8591,-0.6942,-0.6832,-0.6366,0.0,0.0,0.0,0.0,0.0,0.0,0.0,0.0,0.0,0.0,0.0,0.0,0.0,0.0,0.0,0.0,0.0,0.0,0.0,0.0,0.0,0.0,0.0,0.1863,0.0,0.0,0.0,0.0,0.0,0.0,0.0,0.0,0.0,0.1514,0.2485,0.3195,0.3132,0.4018,0.4601,0.4328,0.0,0.0,0.0,0.0,0.0,0.0,0.0,0.6623,0.7416,0.7646,0.7913,0.8547,0.9436,1.0064,1.0202,0.0,0.0,0.9429,0.9315,0.9455,0.9455,0.9721,0.9951,0.993,0.9804,0.977,0.0,0.0,0.0,0.0,-1.4302,0.0,0.0,0.0,-1.3454,-1.3501,0.0,-1.2884,0.0,0.0,0.0,0.0,-1.3291,-1.4077,0.0,0.0,-1.5251,-1.549,-1.5501,-1.5513,-1.5513,-1.5558,-1.5908,-1.6039,-1.594,-1.535,0.0,0.0,0.0,0.0,0.0,0.0,-1.1942,-1.0718,-1.1235,-1.126,-1.072,-1.0671,-1.0633,-1.0604,-0.9979,-0.8879,-0.7216,-0.6963,-0.6557,-0.5887,-0.5529,0.0,0.0,0.0,0.0,0.0,0.0,0.0,0.0,0.0,0.0,0.0,0.0,0.0,0.0,0.0,0.0,0.0,0.0,0.0,0.0,0.2346,0.0,0.0,0.0,0.0,0.0,0.0,0.0,0.0,0.0,0.2183,0.1788,0.2464,0.3026,0.3021,0.0,0.0,0.0,0.0,0.5004,0.541,0.5548,0.5896,0.6678,0.7187,0.7646,0.8078,0.0,0.0,0.9814,1.0218,1.0458,1.034,1.0754,1.1124,1.181,1.1575,1.134,1.139,1.1495,1.1545,1.1377,1.1327,1.1371,-1.6704,0.0,0.0,0.0,0.0,-1.4853,-1.4688,-1.4709,-1.4328,-1.4274,-1.4408,-1.4104,0.0,0.0,0.0,0.0,0.0,0.0,-1.4995,-1.521,-1.5595,-1.5867,-1.6013,-1.6013,-1.5969,-1.5856,-1.5976,-1.6001,-1.5824,-1.5604,-1.5186,-1.4574,0.0,0.0,0.0,0.0,-1.1942,-1.1642,-1.199,-1.2167,-1.2026,-1.1861,-1.157,-1.1064,-1.0832,-1.0074,-0.8685,-0.7908,-0.75,-0.7495,-0.6798,0.0,0.0,0.0,0.0,0.0,0.0,0.0,0.0,0.0,0.0,0.0,0.0,0.0,0.0,0.0,0.0,0.0,0.0,0.0,0.3097,0.2599,0.2407,0.0,0.0,0.0,0.0,0.0,0.0,0.0,0.0,0.0,0.1345,0.2074,0.2577,0.0,0.0,0.3553,0.3692,0.41,0.4604,0.5259,0.5688,0.0,0.7285,0.7419,0.7664,0.8573,0.9725,1.0659,1.1209,1.1592,1.1931,1.2248,1.2609,1.2909,1.3256,1.2609,1.211,1.2248,1.2378,1.251,1.2478,1.22,1.1869,-1.7628,-1.6893,-1.6794,-1.6514,-1.6155,-1.5775,-1.5554,-1.5449,-1.5311,-1.5229,-1.5204,-1.5008,-1.4909,-1.4857,-1.4794,0.0,0.0,0.0,-1.5532,-1.5708,-1.5894,-1.6081,-1.6188,-1.62,-1.6144,-1.6088,-1.6262,-1.6231,-1.5969,-1.61,-1.5929,-1.5514,0.0,-1.3863,-1.3459,-1.3287,-1.3019,-1.2659,-1.2816,-1.284,-1.2595,-1.2478,-1.2083,-1.1378,-1.1305,-1.0722,-0.9574,-0.8801,-0.8344,-0.8276,-0.7448,-0.6484,0.0,0.0,0.0,0.0,0.0,0.0,0.0,0.0,0.0,0.0,0.0,0.2928,0.3089,0.0,0.0,0.0,0.263,0.2634,0.3033,0.2637,0.0,0.0,0.0,0.0,0.0,0.0,0.0,0.0617,0.1122,0.1515,0.1515,0.1626,0.1849,0.2127,0.2627,0.3014,0.3125,0.0,0.446,0.5344,0.5782,0.6391,0.7447,0.7639,0.809,0.9399,1.0576,1.1551,1.2197,1.2677,1.316,1.3627,1.392,1.4222,1.4525,1.3924,1.3344,1.306,1.3194,1.3268,1.299,1.2622,1.2368,-1.8344,-1.8341,-1.8095,-1.752,-1.6756,-1.6678,-1.6486,-1.6262,-1.6275,-1.6244,-1.6207,-1.5726,-1.5533,-1.5496,-1.5347,0.0,-1.5533,-1.585,-1.6074,-1.6244,-1.6231,-1.6231,-1.6256,-1.6231,-1.6188,-1.6231,-1.6663,-1.6663,-1.6231,-1.662,-1.662,-1.6244,-1.5925,-1.5572,-1.5222,-1.5137,-1.4618,-1.365,-1.3609,-1.3342,-1.2754,-1.2712,-1.2368,-1.1758,-1.1597,-1.1055,-1.0048,-0.9587,-0.9054,-0.847,-0.7625,-0.6797,-0.6093,0.0,0.0,0.0,0.0,0.0,0.0,0.0,0.0,0.0,0.0,0.0,0.0,0.0,0.0,0.0,0.3077,0.0,0.224,0.2579,0.0,0.0,0.0,0.1119,0.0224,0.0617,0.0954,0.0897,0.0,0.0,0.2023,0.1178,0.084,0.1734,0.2128,0.2462,0.2617,0.3347,0.4298,0.5234,0.5727,0.6218,0.6982,0.7836,0.8974,1.0501,1.1557,1.2395,1.314,1.37,1.4168,1.463,1.4869,1.5119,1.5433,1.5419,1.5077,1.3938,1.3925,1.3845,1.3122,1.2954,1.292,-1.8912,-1.8884,-1.8829,-1.8456,-1.7862,-1.7357,-1.7111,-1.7034,-1.682,-1.6761,-1.6693,-1.6621,-1.6557,-1.6545,-1.6488,-1.6501,-1.6545,-1.6515,-1.6549,-1.6577,-1.6491,-1.6448,-1.6436,-1.6448,-1.6436,-1.6448,-1.6522,-1.6522,-1.6436,-1.6491,-1.6491,-1.6436,-1.6349,-1.5991,-1.5347,-1.4728,-1.4328,-1.4124,-1.3921,-1.3839,-1.3831,-1.3521,-1.315,-1.2661,-1.2559,-1.1985,-1.1002,-1.0174,-0.9649,-0.9291,-0.8521,-0.7703,-0.6928,-0.6411,0.0,0.0,0.0,0.0,0.0,0.0,0.0,0.0,0.0,0.2052,0.2512,0.0,0.2575,0.0,0.3021,0.2854,0.2245,0.213,0.0,0.0,0.0897,0.056,0.0954,0.0393,0.0168,0.0617,0.0617,0.0729,0.101,0.0336,-0.0224,-0.0336,0.0672,0.1624,0.2119,0.2621,0.3123,0.3448,0.4333,0.5054,0.5625,0.7911,1.0265,1.167,1.284,1.3856,1.4687,1.5151,1.5552,1.586,1.6102,1.6287,1.6446,1.6174,1.5721,1.5047,1.4594,1.4185,1.3665,1.3361,1.3229,-1.9213,-1.9213,-1.9228,-1.889,-1.8332,-1.8009,-1.7693,-1.7366,-1.7227,-1.7086,-1.6888,-1.6888,-1.6888,-1.6888,-1.6888,-1.6888,-1.6876,-1.6803,-1.6803,-1.6816,-1.6705,-1.6693,-1.6693,-1.665,-1.6705,-1.6693,-1.6705,-1.6705,-1.665,-1.6663,-1.665,-1.6693,-1.6705,-1.6371,-1.5745,-1.5325,-1.5006,-1.4891,-1.4473,-1.4247,-1.4362,-1.3988,-1.361,-1.3266,-1.2958,-1.2372,-1.1519,-1.0712,-1.0136,-0.9755,-0.9047,-0.8397,-0.7777,-0.7344,-0.6706,0.0,0.0,0.0,0.0,0.0,0.0,0.0,0.0,0.0,0.0,0.0,0.2071,0.2519,0.2517,0.2294,0.1684,0.1849,0.1849,0.1572,0.0841,0.0449,0.0449,0.0056,-0.0224,-0.0056,-0.0224,-0.028,-0.0224,-0.0784,-0.1233,-0.1346,-0.0783,-0.0056,0.0725,0.1506,0.2007,0.2058,0.2666,0.4005,0.5852,0.9963,1.3047,1.3761,1.4654,1.5504,1.6151,1.6557,1.6844,1.704,1.7162,1.7258,1.7341,1.689,1.636,1.5841,1.5346,1.4761,1.4008,1.3843,1.3907,-1.9428,-1.9428,-1.9428,-1.9074,-1.8552,-1.8705,-1.8221,-1.7451,-1.7343,-1.7139,-1.6815,-1.6892,-1.6918,-1.6918,-1.6918,-1.6918,-1.6918,-1.6918,-1.6918,-1.6918,-1.6931,-1.6888,-1.6888,-1.6888,-1.6888,-1.6888,-1.6888,-1.6888,-1.6888,-1.6888,-1.6888,-1.6888,-1.6876,-1.6663,-1.6244,-1.6156,-1.5913,-1.5501,-1.4937,-1.4627,-1.4627,-1.4176,-1.3836,-1.3573,-1.3045,-1.2412,-1.1678,-1.1108,-1.0541,-1.002,-0.9361,-0.8896,-0.8527,-0.8203,-0.7664,0.0,-0.6416,0.0,0.0,0.0,0.0,0.0,0.0,0.0,0.0,0.1008,0.1512,0.1853,0.1793,0.1455,0.0897,0.1456,0.1624,0.1066,0.0785,0.0336,-0.0561,-0.0616,-0.0729,-0.1066,-0.1121,-0.1177,-0.1289,-0.1905,-0.2128,-0.1789,-0.1146,-0.0538,-0.0163,0.0441,0.0887,0.1479,0.2368,0.5365,0.8842,1.3022,1.5913,1.6019,1.6542,1.7137,1.7608,1.7868,1.8039,1.8104,1.8185,1.8171,1.8166,1.7536,1.6918,1.6431,1.6018,1.5388,1.4441,1.442,1.4707,-1.9428,-1.9428,-1.9428,-1.9376,-1.936,-1.9406,-1.8506,-1.7057,-1.65,-1.6346,-1.6531,-1.6974,-1.717,-1.7157,-1.7157,-1.717,-1.7128,-1.7031,-1.696,-1.6947,-1.6931,-1.6888,-1.6888,-1.6888,-1.6888,-1.6888,-1.6888,-1.6888,-1.6888,-1.6888,-1.6888,-1.6888,-1.6693,-1.6522,-1.6436,0.0,0.0,0.0,-1.4822,-1.4776,-1.473,-1.4046,-1.3658,-1.3563,-1.291,0.0,-1.1427,-1.1015,-1.0498,-0.9895,-0.9524,0.0,0.0,0.0,0.0,0.0,0.0,0.0,0.0,0.0,0.0,0.0,-0.3666,-0.2672,-0.1398,-0.0223,0.0503,0.0729,0.0951,0.0895,0.0505,0.0617,0.0505,-0.0056,-0.0392,-0.0727,-0.1063,-0.1905,-0.2411,-0.2128,-0.2186,-0.2015,-0.1503,-0.2348,-0.2728,-0.2024,0.0457,0.2496,0.2542,0.0726,0.0372,0.3723,0.7825,1.1551,1.3737,1.5419,1.7027,1.7339,1.8037,1.8617,1.8984,1.9153,1.9251,1.9339,1.9281,1.9031,1.8548,1.7801,1.7204,1.6716,1.6188,1.5595,1.5015,1.5122,1.5433,-1.9545,-1.956,-1.9545,-1.9403,0.0,-1.914,-1.8485,-1.733,-1.7267,-1.7083,-1.6807,-1.7081,-1.724,-1.7282,-1.698,-1.6862,-1.6876,-1.6533,-1.6572,-1.6821,-1.6781,-1.6937,-1.7199,-1.7212,-1.7186,-1.7199,-1.7199,-1.7212,-1.7199,-1.7199,-1.7199,-1.7199,-1.6863,-1.6552,-1.6269,-1.5635,-1.5119,-1.4822,-1.4846,-1.4754,-1.4581,-1.401,-1.3621,-1.3525,-1.291,0.0,0.0,0.0,0.0,0.0,0.0,0.0,0.0,-0.5251,0.0,-0.0779,-0.2798,-0.3949,-0.3621,-0.5593,-0.6578,-0.6036,-0.521,-0.3892,-0.1845,-0.1118,-0.0671,-0.0393,-0.0224,-0.0112,-0.0112,-0.0336,-0.0671,-0.1064,-0.1677,-0.2012,-0.2012,-0.2794,-0.3241,-0.2796,-0.2903,-0.2073,0.0867,0.0965,0.1728,0.3705,0.5474,0.6693,0.6464,0.5553,0.5771,0.7695,1.1963,1.5202,1.5681,1.7928,1.9311,1.9546,1.9697,1.9958,2.0154,2.0139,2.0108,2.0131,1.9989,1.9632,1.9083,1.8364,1.7697,1.7194,1.6716,1.6336,1.6044,1.6016,1.6114,-1.9762,-1.9777,-1.9762,-1.9411,-1.8882,-1.8901,-1.8568,-1.7985,-1.8235,0.0,0.0,-1.7188,-1.7337,-1.7352,-1.6917,-1.6731,-1.6731,-1.6292,-1.6332,-1.6757,-1.6771,-1.701,-1.7503,-1.7475,-1.7475,-1.7475,-1.7475,-1.7475,-1.7475,-1.7475,-1.7475,-1.7475,-1.7115,-1.6637,-1.6083,-1.5522,-1.5096,-1.4811,-1.4926,-1.4777,-1.4316,-1.4046,-1.3705,-1.3314,-1.2949,-1.2382,-1.1477,-1.0541,-0.9593,-0.8612,-0.7617,-0.4927,-0.035,0.0044,0.2275,0.6744,0.3204,0.04,-0.0319,-0.4257,-0.6838,-0.7224,-0.6489,-0.4879,-0.2289,-0.2066,-0.1902,-0.1513,-0.1402,-0.1177,-0.0897,-0.1287,-0.1734,-0.1959,-0.2796,-0.3135,-0.2854,-0.3572,-0.3534,-0.2224,-0.1976,-0.0459,0.4589,0.5463,0.6813,1.0029,1.0641,1.1395,1.206,1.2224,1.176,1.1894,1.5454,1.8068,1.7677,1.9624,2.1831,2.1133,2.1023,2.1023,2.099,2.083,2.0749,2.0767,2.0555,2.0235,1.9767,1.9044,1.8338,1.7785,1.7332,1.7052,1.7027,1.6919,1.6843,-1.997,-1.997,-1.9955,-1.9823,-1.9662,-1.9783,-1.9495,-1.895,-1.8098,-1.7322,-1.6652,-1.7222,-1.7488,-1.7488,-1.7395,-1.7342,-1.7396,-1.7276,-1.7276,-1.7356,-1.7356,-1.7395,-1.7475,-1.7475,-1.7475,-1.7475,-1.7475,-1.7475,-1.7475,-1.7516,-1.7475,-1.7475,-1.7173,-1.6667,-1.6064,-1.5952,-1.5543,-1.4755,-1.5187,-1.496,-1.4071,-1.4118,-1.3732,-1.2967,-1.2919,-1.2431,-1.115,-0.673,-0.3983,-0.3038,0.1587,0.467,0.5397,0.5414,0.5833,0.6716,0.6246,0.3922,-0.0586,-0.1529,-0.3529,-0.7312,-0.7779,-0.686,-0.4629,-0.3616,-0.2956,-0.2683,-0.2127,-0.1734,-0.1792,-0.2014,-0.2294,-0.2575,-0.3019,-0.3411,-0.3324,-0.3629,-0.2314,0.1907,0.2121,0.3894,0.8677,0.9553,0.9591,1.0499,1.3717,1.6872,1.9289,1.8239,1.5899,1.5886,1.9316,2.185,2.1418,2.1782,2.2113,2.1781,2.1601,2.1507,2.1364,2.1274,2.1274,2.1431,2.1272,2.0969,2.057,1.978,1.9072,1.8503,1.7889,1.7443,1.7545,1.7685,1.7737,-2.0005,-2.0005,-2.0005,-1.997,-1.9919,-1.9955,-1.9726,-1.9303,-1.8826,-1.8252,-1.7683,-1.8009,-1.8198,-1.821,-1.7943,-1.7828,-1.7852,-1.7319,-1.7246,-1.7534,-1.7327,-1.7397,-1.7679,-1.7693,-1.7747,-1.7693,-1.7706,-1.7706,-1.7706,-1.7693,-1.7733,-1.7707,-1.7173,-1.6655,-1.6151,-1.5744,-1.5254,-1.4617,-1.4949,-1.472,-1.38,-1.3894,-1.2088,-0.8214,-0.8103,-0.6157,-0.2078,0.0409,0.1925,0.2498,0.4987,0.7805,1.0843,1.1036,1.2395,1.532,1.2875,1.0358,0.8371,0.6132,0.4018,0.2086,0.202,0.2546,0.3764,-0.1249,-0.4166,-0.3605,-0.3447,-0.3299,-0.3074,-0.335,-0.3688,-0.4086,-0.194,-0.0301,0.005,0.1774,0.3978,0.6553,0.6521,0.8185,1.3467,1.3842,1.486,1.6799,1.9363,2.1198,2.2976,2.1499,1.9893,1.9965,2.1652,2.2634,2.2632,2.2415,2.222,2.1957,2.2032,2.1969,2.1861,2.1803,2.1903,2.1938,2.1816,2.1508,2.1082,2.0571,2.0054,1.9521,1.8927,1.854,1.8518,1.8741,1.8756,-2.0061,-2.0076,-2.0061,-2.0076,-2.0091,-2.0193,-2.0059,-1.9826,-2.0012,-1.976,-1.9199,-1.8889,-1.8869,-1.8887,-1.8352,-1.8173,-1.8151,-1.7362,-1.7236,-1.7618,-1.7408,-1.7526,-1.7935,-1.7963,-1.7963,-1.7963,-1.7963,-1.7963,-1.7949,-1.7963,-1.7949,-1.7841,-1.7297,-1.674,-1.6182,-1.5623,-1.5006,-1.4455,-1.4628,-1.4351,-1.3563,-1.3716,-1.0658,-0.4537,-0.5492,-0.2406,0.5205,0.5676,0.6375,0.8153,0.941,1.2164,1.6352,1.6665,1.8663,2.2342,1.9306,1.6712,1.608,1.1932,0.951,1.0002,1.0,1.0215,1.0126,0.2962,-0.1755,-0.0848,-0.0461,-0.0659,-0.0101,-0.0557,-0.1379,-0.1422,0.168,0.4125,0.4687,0.728,0.994,1.1209,1.1047,1.2606,1.6965,1.8338,1.9431,2.2318,2.3468,2.3193,2.297,2.2893,2.2944,2.2902,2.285,2.2816,2.2649,2.2569,2.2415,2.2198,2.2371,2.2371,2.2271,2.232,2.2412,2.2375,2.2237,2.2078,2.1738,2.1404,2.1097,2.068,2.0125,1.9712,1.9678,1.9854,1.9772,-2.0285,-2.027,-2.0285,-2.027,-2.0312,-2.0778,-2.0914,-2.099,-2.1697,-2.162,-2.0714,-1.9612,-1.9101,-1.9026,-1.866,-1.8503,-1.8464,-1.8048,-1.7903,-1.7958,-1.8066,-1.8108,-1.8149,-1.8149,-1.8163,-1.8149,-1.8149,-1.8149,-1.8149,-1.8163,-1.7935,-1.7598,-1.7598,-1.698,-1.6008,-1.5888,-1.5299,-1.4061,-1.4165,-1.3931,-1.3314,-1.3742,-1.0658,-0.3878,-0.9332,-0.6717,0.6259,0.5293,0.7757,1.3718,1.8711,2.1796,2.2463,2.2337,2.2511,2.3247,2.3163,2.1479,1.7137,1.1527,0.9264,0.937,0.9206,0.9217,1.0302,0.8388,0.7857,0.9292,0.9649,0.8677,0.9563,0.8854,0.8039,0.7558,0.8725,0.9337,0.9307,0.9138,1.0927,1.5669,1.5831,1.7459,2.1634,2.2415,2.2599,2.2957,2.306,2.2919,2.2738,2.2842,2.2944,2.2842,2.2816,2.2944,2.297,2.2977,2.2799,2.2677,2.2721,2.2703,2.2586,2.2508,2.2466,2.2756,2.2676,2.2634,2.2723,2.2511,2.1955,2.1785,2.1313,2.0813,2.0883,2.0965,2.068,-2.0659,-2.032,-2.0304,-2.0304,-2.0362,-2.0725,-2.1051,-2.1228,-2.116,-2.1227,-2.1363,-2.03,-1.9715,-1.9493,-1.9354,-1.9184,-1.9011,-1.863,-1.8461,-1.8475,-1.8307,-1.8189,-1.8189,-1.8189,-1.8189,-1.8189,-1.8189,-1.8189,-1.8149,-1.8029,-1.7855,-1.7693,-1.7352,-1.674,-1.5996,-1.5567,-1.496,-1.428,-1.4035,-1.2095,-0.8602,-0.8261,-0.5224,0.0699,0.2156,0.6792,1.5074,1.583,1.6905,1.9613,2.191,2.3193,2.3424,2.3713,2.3912,2.4007,2.5015,2.4875,2.3038,2.1135,2.0367,2.0953,2.0029,1.9789,2.036,1.9252,1.9001,1.9339,1.4191,1.0036,1.0213,0.9916,0.9721,0.9999,1.2079,1.4023,1.4399,1.6473,1.9032,2.1231,2.0985,2.107,2.301,2.3341,2.308,2.2859,2.2773,2.2712,2.2659,2.2764,2.2876,2.3003,2.307,2.3045,2.302,2.2944,2.2868,2.2842,2.2902,2.2936,2.2842,2.2911,2.2993,2.3182,2.306,2.3109,2.3382,2.3216,2.2833,2.2683,2.2295,2.1786,2.2006,2.2046,2.185,-2.1075,-2.0397,-2.0435,-2.0476,-2.0518,-2.1024,-2.1317,-2.15,-2.1248,-2.145,-2.1819,-2.1159,-2.0543,-2.0102,-1.9857,-1.9634,-1.9409,-1.8908,-1.8768,-1.8857,-1.847,-1.8282,-1.8282,-1.8282,-1.8282,-1.8282,-1.8282,-1.8325,-1.8315,-1.8017,-1.7852,-1.7741,-1.7123,-1.6473,-1.5832,-1.5119,-1.4593,-1.4122,-1.247,-0.9064,-0.4861,-0.1235,0.2707,0.6933,0.8721,1.3852,2.2628,2.1216,2.1216,2.3247,2.3578,2.3809,2.4046,2.458,2.4928,2.5136,2.6074,2.6943,2.7334,2.7977,2.8458,2.8713,2.8044,2.7592,2.7343,2.6219,2.5662,2.5223,1.8454,1.4053,1.3947,1.367,1.3511,1.3894,1.7041,1.9001,1.9673,2.2487,2.3849,2.4419,2.3507,2.349,2.3228,2.2977,2.2781,2.2701,2.2684,2.2659,2.2764,2.2842,2.2977,2.3241,2.3289,2.3265,2.3119,2.3095,2.2977,2.302,2.3144,2.3193,2.3105,2.3283,2.3435,2.3468,2.344,2.3486,2.3646,2.3588,2.3526,2.3436,2.3099,2.2767,2.296,2.3039,2.3101,-2.1507,-2.0539,-2.0761,-2.0872,-2.0926,-2.1802,-2.2155,-2.2123,-2.273,-2.2774,-2.2287,-2.2127,-2.1649,-2.072,-2.0091,-1.9709,-1.9598,-1.8852,-1.8761,-1.9181,-1.8801,-1.8506,-1.8478,-1.8478,-1.852,-1.8593,-1.8498,-1.8587,-1.8699,-1.8302,-1.8009,-1.7701,-1.7122,-1.6315,-1.5302,-1.4731,-1.428,-1.3575,-0.8555,-0.4944,-0.3182,0.6769,1.243,1.2641,0.4778,0.8172,2.0174,1.638,1.6264,2.3805,2.4892,2.5471,2.5633,2.5772,2.6061,2.6632,2.6756,2.7191,2.7895,2.8101,2.8282,2.846,2.7827,2.7151,2.6798,2.5838,2.5314,2.5113,2.4035,2.3481,2.4235,2.2908,2.3214,2.3872,2.4189,2.4165,2.4182,2.407,2.4087,2.3773,2.3751,2.3441,2.2764,2.2642,2.2642,2.2659,2.2685,2.2738,2.2876,2.3095,2.3217,2.3265,2.3401,2.3562,2.3539,2.3383,2.3401,2.343,2.3407,2.3506,2.3557,2.3607,2.3664,2.3714,2.3692,2.3735,2.3896,2.3937,2.3937,2.3881,2.3842,2.3719,2.3651,2.3892,2.3952,-2.2409,-2.1377,-2.1493,-2.1392,-2.1183,-2.171,-2.2017,-2.2188,-2.2047,-2.2248,-2.2424,-2.1916,-2.144,-2.1125,-2.0825,-2.0514,-2.0161,-1.9782,-1.9572,-1.9418,-1.9586,-1.9515,-1.9123,-1.9515,-1.9573,-1.9307,-1.8934,-1.8645,-1.8331,-1.7398,-1.708,-1.72,-1.6324,-1.544,-1.4926,-1.4674,-1.4444,-1.3491,-0.7983,-0.298,0.1362,0.9304,1.5418,1.9269,1.6156,1.708,2.3441,2.1199,2.159,2.4892,2.5332,2.5622,2.6002,2.6451,2.7097,2.7823,2.7781,2.7897,2.8273,2.8353,2.8414,2.8489,2.7795,2.7254,2.6928,2.6206,2.5781,2.6068,2.564,2.5925,2.671,2.6215,2.5595,2.5725,2.5529,2.5435,2.5676,2.5367,2.4839,2.4436,2.3823,2.2882,2.2613,2.2409,2.2446,2.2539,2.2573,2.2764,2.302,2.3193,2.3265,2.3383,2.3471,2.3539,2.3539,2.3517,2.3499,2.3576,2.362,2.3679,2.3737,2.3783,2.3855,2.3946,2.3926,2.3939,2.4075,2.4113,2.4133,2.4171,2.4153,2.4173,2.4229,2.4266,2.4337,-2.2469,-2.2084,-2.1949,-2.1747,-2.1449,-2.1758,-2.1972,-2.2149,-2.1764,-2.1974,-2.2398,-2.1917,-2.1643,-2.1702,-2.1521,-2.1265,-2.0845,-2.0553,-2.0147,-1.9754,-2.0061,-1.9865,-1.9405,-1.9778,-1.9784,-1.9222,-1.8454,-1.7985,-1.7839,-1.669,-1.6402,-1.6843,-1.581,-1.5119,-1.4539,-1.2744,-1.1417,-0.995,-0.3198,0.3409,0.7904,1.34,1.8502,2.2363,2.3003,2.3244,2.4004,2.4826,2.5397,2.5732,2.5998,2.6384,2.6891,2.7317,2.7875,2.8438,2.8335,2.8327,2.8458,2.8458,2.8458,2.8466,2.7965,2.75,2.7169,2.6548,2.648,2.6606,2.6366,2.6433,2.7139,2.6792,2.6267,2.6214,2.5963,2.5915,2.6306,2.5605,2.501,2.4524,2.348,2.2708,2.2517,2.2525,2.2605,2.2704,2.2738,2.2902,2.3217,2.3313,2.3313,2.343,2.3544,2.3549,2.3616,2.3638,2.3638,2.3707,2.3795,2.3858,2.3934,2.3969,2.4037,2.4137,2.4192,2.4192,2.4209,2.4247,2.4303,2.4339,2.4339,2.4356,2.4409,2.4459,2.4526,-2.1633,-2.2327,-2.2076,-2.1989,-2.1932,-2.2121,-2.2189,-2.2207,-2.2221,-2.2267,-2.2356,-2.2314,-2.2211,-2.2314,-2.1824,-2.169,-2.1476,-2.0796,-2.0396,-2.0285,-2.0078,-1.9601,-1.9053,-1.9387,-1.915,-1.8473,-1.7035,-1.6773,-1.7293,-1.6489,-1.6092,-1.5846,-1.489,-1.3569,-1.4091,-0.7652,-0.4897,-0.2644,0.6165,1.2852,1.5149,1.9348,2.2538,2.3622,2.321,2.3227,2.3919,2.5744,2.6509,2.6406,2.7104,2.7946,2.8198,2.8306,2.8344,2.8362,2.838,2.8398,2.8353,2.8327,2.83,2.8255,2.8128,2.7717,2.7157,2.6907,2.6798,2.6757,2.6672,2.686,2.7274,2.7247,2.7113,2.7344,2.667,2.6268,2.607,2.536,2.4608,2.4109,2.3315,2.2798,2.2868,2.2833,2.2842,2.3033,2.3092,2.3144,2.336,2.3453,2.3471,2.3458,2.3576,2.3707,2.3753,2.3795,2.3795,2.3816,2.3937,2.4012,2.4147,2.4208,2.4228,2.4302,2.4301,2.4321,2.4284,2.4321,2.4429,2.4462,2.4497,2.4547,2.4594,2.4657,2.4673,-2.2894,-2.2864,-2.2878,-2.2673,-2.2433,-2.2438,-2.2463,-2.2477,-2.2477,-2.2278,-2.2044,-2.1983,-2.1841,-2.1541,-2.1286,-2.1251,-2.121,-2.0941,-2.0603,-2.024,-2.0462,-2.0268,-1.9827,-2.0167,-1.9882,-1.8729,-1.7433,-1.686,-1.6776,-1.6279,-1.4077,-1.0001,-0.9059,-0.6197,-0.192,0.0811,0.1837,0.3075,1.051,1.5039,1.5829,2.1093,2.4167,2.4423,2.4675,2.4821,2.4603,2.4971,2.56,2.6451,2.6929,2.7566,2.8228,2.838,2.8318,2.8282,2.8209,2.8164,2.8154,2.8109,2.8109,2.8053,2.795,2.7787,2.7547,2.7408,2.735,2.7262,2.713,2.7191,2.747,2.7448,2.7324,2.7213,2.6928,2.6788,2.6736,2.5877,2.5431,2.5351,2.3969,2.3189,2.3345,2.3241,2.2971,2.3087,2.3077,2.3144,2.3336,2.3549,2.3558,2.354,2.3714,2.3878,2.3899,2.3959,2.4037,2.4037,2.4096,2.4172,2.4284,2.434,2.4376,2.4394,2.4411,2.441,2.4374,2.4426,2.4547,2.4629,2.4692,2.4738,2.4832,2.4846,2.4846,-2.3098,-2.2949,-2.2994,-2.2737,-2.231,-2.2324,-2.217,-2.2016,-2.2016,-2.1813,-2.1589,-2.1602,-2.1431,-2.1126,-2.0944,-2.0746,-2.0633,-2.0446,-2.0065,-1.9709,-2.0252,-2.0247,-1.9671,-1.9682,-1.9409,-1.8485,-1.7355,-1.5301,-1.2782,-1.2134,-0.8549,-0.2757,-0.1639,0.0343,0.5265,0.7656,0.8892,0.9993,1.5586,1.9124,2.003,2.2936,2.4932,2.5154,2.5124,2.4893,2.462,2.4326,2.4945,2.6405,2.712,2.7683,2.8228,2.83,2.83,2.8264,2.8273,2.8273,2.8126,2.8053,2.7922,2.7882,2.7847,2.7829,2.78,2.7777,2.7853,2.7766,2.7624,2.76,2.7672,2.7582,2.7417,2.7244,2.7213,2.7158,2.6983,2.6289,2.5799,2.5659,2.4742,2.4198,2.4035,2.3912,2.3446,2.343,2.3335,2.3348,2.3531,2.3685,2.371,2.3756,2.3919,2.3999,2.4019,2.4135,2.4266,2.4266,2.4284,2.4321,2.4376,2.4394,2.4412,2.4411,2.4428,2.4461,2.4444,2.4596,2.4711,2.4787,2.4827,2.4889,2.4936,2.495,2.495,-2.2381,-2.2586,-2.2601,-2.2324,-2.1902,-2.1855,-2.1589,-2.114,-2.114,-2.1188,-2.1188,-2.1126,-2.1126,-2.1077,-2.0547,-2.0144,-1.9888,-1.9475,-1.9121,-1.8653,-1.849,-1.8097,-1.8808,-1.7186,-1.6036,-1.6147,-1.4629,-1.0879,-0.5385,-0.496,-0.1138,0.5184,0.6002,0.6814,0.9279,1.3399,1.6035,1.6835,2.1665,2.4582,2.5285,2.5287,2.55,2.6105,2.4999,2.4402,2.451,2.4468,2.5048,2.6649,2.7628,2.8093,2.8109,2.8273,2.8388,2.8327,2.8543,2.8466,2.8255,2.8128,2.7971,2.7777,2.7876,2.7886,2.7876,2.7989,2.8091,2.7996,2.795,2.794,2.776,2.7701,2.7642,2.7569,2.7557,2.7308,2.6667,2.6504,2.6349,2.5985,2.5641,2.5471,2.5147,2.5069,2.4685,2.436,2.4166,2.407,2.4039,2.4078,2.3974,2.3998,2.4095,2.4135,2.4154,2.4192,2.4321,2.4321,2.4339,2.4357,2.4429,2.4429,2.4446,2.4445,2.4513,2.4528,2.4594,2.4738,2.4817,2.4861,2.4903,2.4977,2.5004,2.5018,2.5044,-2.2667,-2.2735,-2.2431,-2.2217,-2.2044,-2.1684,-2.1431,-2.1334,-2.1348,-2.1104,-2.0894,-2.0597,-2.0245,-1.9888,-1.9334,-1.9081,-1.8484,-1.8225,-1.8721,-1.7672,-1.2604,-1.4204,-1.6199,-1.2236,-0.9631,-0.9205,-0.4778,0.0138,0.1862,0.1923,0.5771,1.2689,1.262,1.5005,1.9814,2.1537,2.2867,2.3244,2.4796,2.6328,2.6691,2.6588,2.6682,2.7035,2.6623,2.6092,2.5712,2.5752,2.6073,2.6819,2.7799,2.8309,2.8246,2.8414,2.85,2.8466,2.8466,2.8448,2.8388,2.8291,2.821,2.8136,2.8091,2.8073,2.8025,2.8017,2.7989,2.7876,2.7836,2.7893,2.7922,2.7864,2.7836,2.7968,2.7864,2.7672,2.7408,2.7081,2.6988,2.744,2.6641,2.639,2.6491,2.6273,2.5874,2.5583,2.5193,2.4811,2.4801,2.4531,2.4479,2.4206,2.4209,2.4247,2.4284,2.4284,2.4321,2.4321,2.4339,2.4321,2.4392,2.4444,2.4461,2.4495,2.4642,2.4704,2.4779,2.4884,2.4912,2.4917,2.4959,2.5018,2.5051,2.5057,2.5106,-2.2445,-2.2292,-2.2044,-2.1827,-2.167,-2.1382,-2.0979,-2.0646,-2.061,-2.0346,-1.9888,-1.9619,-1.9331,-1.8838,-1.5593,-1.3965,-1.3555,-1.0626,-0.9055,-0.8292,-0.4424,-0.506,-0.6907,-0.361,-0.2271,-0.2104,0.2288,0.5884,0.8501,0.8992,1.3148,1.8697,1.9649,2.1755,2.4656,2.59,2.6065,2.6262,2.6687,2.6973,2.7261,2.7307,2.7338,2.7439,2.7265,2.6737,2.6324,2.6697,2.7101,2.7404,2.7942,2.8282,2.8246,2.8518,2.8644,2.8594,2.8619,2.8637,2.8466,2.8414,2.8291,2.8183,2.8183,2.8228,2.8191,2.8156,2.8138,2.8073,2.8035,2.8063,2.8109,2.8025,2.7996,2.8071,2.8063,2.8017,2.7897,2.7736,2.7887,2.8088,2.7802,2.7266,2.7715,2.7217,2.6881,2.6532,2.6105,2.5897,2.5766,2.5348,2.4945,2.4725,2.456,2.4616,2.4395,2.4303,2.4393,2.4375,2.463,2.4574,2.4554,2.4584,2.4575,2.4657,2.4779,2.4884,2.4926,2.4953,2.4959,2.4977,2.5018,2.5051,2.5082,2.5134,2.5168,-2.1949,-2.1575,-2.071,-2.014,-1.9349,-1.8744,-1.6394,-1.678,-1.5862,-1.5723,-1.531,-1.5954,-1.4376,-1.5923,-0.8698,-0.6388,-0.5748,-0.1103,0.2768,0.3728,0.5171,0.4836,0.6464,0.502,0.5232,0.5543,0.589,1.0798,1.5069,1.644,1.9609,2.3734,2.5433,2.6045,2.6301,2.6522,2.6808,2.6952,2.6937,2.7135,2.7386,2.7539,2.76,2.7607,2.7145,2.6889,2.6894,2.73,2.7766,2.794,2.8136,2.8228,2.8246,2.8619,2.8767,2.8743,2.8834,2.8791,2.8594,2.8492,2.837,2.8228,2.8378,2.8422,2.8396,2.85,2.8518,2.8466,2.845,2.838,2.838,2.8246,2.812,2.8112,2.8246,2.8335,2.8246,2.8362,2.8518,2.8474,2.8664,2.8476,2.82,2.7903,2.7785,2.7606,2.7161,2.6845,2.6641,2.6272,2.5777,2.5298,2.517,2.5059,2.4691,2.4266,2.4392,2.4515,2.4944,2.5051,2.4944,2.4917,2.4825,2.4823,2.4884,2.4926,2.4966,2.4999,2.5004,2.5031,2.5051,2.5082,2.5111,2.519,2.5234,-2.1841,-2.1233,-1.4746,-1.2061,-1.0871,-0.5112,-0.2408,-0.2588,-0.253,-0.3337,-0.2371,-0.2058,-0.2267,-0.2071,-0.0048,0.1447,0.178,0.4424,0.6688,1.2456,1.2637,1.6255,1.8287,1.5426,1.2754,1.3718,1.8759,2.185,2.3242,2.3128,2.4502,2.5716,2.6419,2.6674,2.6757,2.6724,2.6956,2.723,2.7166,2.7261,2.7496,2.7569,2.7659,2.7853,2.7648,2.7664,2.7804,2.7992,2.8164,2.83,2.8362,2.844,2.8569,2.8815,2.8952,2.8881,2.8881,2.8858,2.8761,2.8718,2.8725,2.8731,2.8755,2.8874,2.8902,2.8779,2.8815,2.8791,2.8694,2.8612,2.8619,2.8669,2.8442,2.8229,2.8438,2.8803,2.8996,2.8857,2.8785,2.8887,2.8957,2.9016,2.896,2.8861,2.8719,2.8587,2.8218,2.7814,2.7498,2.7218,2.6722,2.6206,2.5801,2.5634,2.5002,2.463,2.4657,2.4904,2.5295,2.5748,2.5642,2.5439,2.5404,2.5182,2.4926,2.4966,2.5006,2.5012,2.5018,2.5051,2.5113,2.5145,2.5192,2.5254,2.5313,-1.5973,-1.4968,-0.7235,-0.3964,-0.3254,0.0957,0.2938,0.2901,0.3112,0.3173,0.3135,0.3351,0.3479,0.4046,0.738,0.9375,1.0892,1.3949,1.7401,2.077,2.1259,2.3086,2.4992,2.308,2.0646,2.0867,2.3792,2.5999,2.6189,2.6332,2.5965,2.5948,2.6438,2.6487,2.6516,2.6736,2.7117,2.7373,2.7355,2.7434,2.7694,2.7724,2.7766,2.8003,2.8039,2.8124,2.8255,2.8354,2.8407,2.8484,2.8518,2.8587,2.8644,2.8863,2.8952,2.8881,2.8929,2.891,2.8887,2.8915,2.8984,2.9034,2.9034,2.9056,2.9038,2.8943,2.8934,2.891,2.8815,2.8718,2.8725,2.8743,2.8555,2.8433,2.8603,2.8967,2.9168,2.9046,2.891,2.9021,2.9067,2.9163,2.9209,2.9267,2.9222,2.8857,2.8842,2.8476,2.8553,2.8218,2.7763,2.7228,2.6619,2.6096,2.54,2.5073,2.5005,2.5341,2.5792,2.6328,2.6612,2.6346,2.6096,2.5806,2.5498,2.5038,2.5038,2.5032,2.5171,2.5153,2.5201,2.5234,2.5284,2.534,2.5415,-0.8685,-0.6618,0.1048,0.4219,0.4398,0.6327,0.7594,0.7218,0.6991,0.8852,0.7346,0.7155,0.9412,0.9446,1.4339,1.7369,1.9733,2.3462,2.631,2.6613,2.6451,2.6596,2.6829,2.6245,2.5623,2.6007,2.6208,2.6347,2.6347,2.6505,2.6404,2.5916,2.6436,2.6684,2.6309,2.6644,2.7293,2.7557,2.7557,2.7587,2.7754,2.783,2.7871,2.8014,2.8152,2.8263,2.8424,2.8513,2.8582,2.863,2.8662,2.8662,2.8712,2.881,2.8905,2.8858,2.8957,2.9026,2.9007,2.9056,2.9104,2.9126,2.9126,2.9126,2.9123,2.9056,2.903,2.9003,2.8957,2.891,2.8791,2.8839,2.8791,2.87,2.8839,2.9002,2.9159,2.9136,2.9044,2.9003,2.9093,2.9185,2.9191,2.923,2.9218,2.9208,2.9175,2.9178,2.9203,2.9061,2.8533,2.8034,2.74,2.6928,2.6298,2.6057,2.5929,2.6147,2.6555,2.7049,2.7557,2.7485,2.7167,2.655,2.6146,2.5793,2.5703,2.6001,2.5953,2.5561,2.5466,2.5659,2.5619,2.5479,2.5476,-0.5506,0.1039,0.9269,1.275,1.3728,1.9461,2.1549,2.2277,2.0678,2.1594,2.1222,2.157,2.0872,2.2125,2.3553,2.5336,2.5655,2.7699,2.8322,2.8323,2.7942,2.7483,2.7414,2.7047,2.6649,2.6465,2.6485,2.6468,2.6503,2.6624,2.6589,2.6538,2.6838,2.6963,2.6985,2.7334,2.7465,2.7665,2.7677,2.7677,2.7707,2.7736,2.7853,2.8017,2.8209,2.8398,2.8536,2.8562,2.8605,2.8761,2.8929,2.8975,2.8975,2.9003,2.9026,2.9003,2.9075,2.9163,2.9123,2.9104,2.9191,2.9272,2.9293,2.9353,2.9392,2.927,2.9185,2.9246,2.9265,2.9243,2.9197,2.9178,2.9156,2.9134,2.9134,2.9218,2.9323,2.9286,2.9206,2.916,2.9181,2.92,2.924,2.9293,2.9321,2.9358,2.9358,2.9377,2.9395,2.9305,2.8989,2.8539,2.8069,2.7683,2.7274,2.718,2.7139,2.73,2.7652,2.8055,2.846,2.8602,2.8311,2.7758,2.73,2.6988,2.6998,2.7014,2.6685,2.6256,2.6198,2.6149,2.5799,2.5476,2.5495,0.4719,0.8901,1.7115,2.0557,2.1211,2.4733,2.6465,2.6197,2.5871,2.5715,2.5664,2.5642,2.5828,2.6181,2.6468,2.7321,2.8322,2.8882,2.9021,2.8926,2.8398,2.7875,2.775,2.7326,2.7045,2.6843,2.6691,2.6606,2.664,2.6842,2.672,2.6497,2.6894,2.7103,2.6987,2.7239,2.7522,2.7677,2.7647,2.7672,2.776,2.7836,2.8017,2.821,2.8344,2.8525,2.8797,2.8839,2.891,2.903,2.9097,2.9119,2.9119,2.9163,2.9185,2.9119,2.9228,2.9291,2.9272,2.9312,2.9412,2.9472,2.9453,2.9453,2.9472,2.9373,2.9291,2.9349,2.947,2.947,2.939,2.951,2.9474,2.9339,2.9357,2.9433,2.949,2.9433,2.9392,2.9372,2.9375,2.9388,2.9381,2.9405,2.9458,2.9492,2.9512,2.9569,2.9607,2.9531,2.9378,2.9189,2.8789,2.8439,2.8089,2.7945,2.8046,2.8293,2.8517,2.8905,2.9201,2.9308,2.9327,2.9084,2.8656,2.8073,2.7753,2.7613,2.7277,2.6977,2.6734,2.6425,2.5843,2.5511,2.5511,1.454,1.6654,2.3326,2.6172,2.6209,2.6871,2.6894,2.6471,2.6462,2.6298,2.6076,2.6099,2.6343,2.6719,2.719,2.7945,2.9303,2.9878,2.9945,2.9626,2.908,2.8571,2.808,2.774,2.735,2.6943,2.6923,2.6791,2.6808,2.7021,2.6742,2.6688,2.712,2.7126,2.6814,2.727,2.7504,2.7569,2.7587,2.7683,2.7915,2.8165,2.837,2.8619,2.8576,2.8785,2.9056,2.9052,2.9097,2.9188,2.923,2.923,2.9209,2.9332,2.9353,2.9251,2.9353,2.9412,2.9453,2.9472,2.9531,2.955,2.9511,2.9511,2.9491,2.9453,2.9412,2.9429,2.953,2.9589,2.9551,2.9645,2.9626,2.9495,2.9495,2.957,2.9589,2.9589,2.957,2.9551,2.957,2.9551,2.9485,2.9563,2.9623,2.9685,2.9687,2.9765,2.9805,2.9841,2.9761,2.9796,2.9545,2.9175,2.8829,2.8499,2.8681,2.9004,2.9148,2.9395,2.9707,2.9937,2.9889,2.9786,2.9492,2.8916,2.857,2.8376,2.8375,2.8103,2.7387,2.6749,2.6265,2.5743,2.5511,1.7805,2.4434,2.6034,2.6909,2.7137,2.7817,2.7653,2.6912,2.6924,2.6816,2.6708,2.664,2.7046,2.7742,2.871,2.9654,3.032,3.0458,3.0226,2.9685,2.917,2.8578,2.8049,2.735,2.7181,2.6989,2.7085,2.7053,2.707,2.723,2.7276,2.7123,2.7278,2.7439,2.7209,2.7404,2.76,2.773,2.776,2.7864,2.8119,2.8438,2.8597,2.8694,2.8925,2.9126,2.9169,2.9166,2.9188,2.9172,2.9314,2.9353,2.9373,2.9511,2.955,2.955,2.955,2.9569,2.955,2.9531,2.9531,2.9512,2.9472,2.9433,2.9472,2.955,2.9608,2.9755,2.9773,2.9812,2.9757,2.9645,2.9608,2.9664,2.9758,2.9739,2.9701,3.0039,3.0019,2.9734,2.9751,2.9658,2.9588,2.968,2.9786,2.9845,2.9889,2.995,2.9956,2.9975,2.9959,2.9921,2.9902,2.957,2.9418,2.9121,2.9194,2.9577,2.968,2.9802,2.9975,3.0174,3.0275,3.0133,2.9893,2.9835,2.9632,2.9554,2.9629,2.9018,2.8034,2.7348,2.676,2.6238,2.5724,2.2219,2.552,2.6275,2.6725,2.705,2.7727,2.7988,2.7848,2.742,2.7431,2.7602,2.724,2.7308,2.786,2.849,2.8999,2.9355,2.9598,2.9326,2.8932,2.8374,2.7894,2.7568,2.7259,2.7055,2.725,2.7261,2.7293,2.731,2.7359,2.7434,2.7386,2.7448,2.7448,2.7434,2.7539,2.76,2.773,2.7933,2.8156,2.8344,2.8633,2.8874,2.8832,2.9082,2.9233,2.9314,2.9293,2.9355,2.9397,2.9532,2.9569,2.9569,2.9588,2.9607,2.9588,2.9511,2.9511,2.9512,2.9472,2.9512,2.9532,2.9513,2.9569,2.9608,2.9664,2.9719,2.9736,2.9823,3.0012,3.0259,3.0084,3.0219,3.0316,3.0433,3.015,3.0184,3.0428,3.0538,3.021,2.9905,2.9799,2.9727,2.9834,2.9907,2.9921,2.9946,2.995,2.9956,2.994,2.994,2.9956,2.9921,2.9826,2.9769,2.9655,2.9604,2.9848,2.9912,3.0028,3.0136,3.0292,3.0392,3.0453,3.0318,3.0347,3.0511,3.0347,3.0065,2.9369,2.8595,2.7909,2.7271,2.6749,2.63,2.5269,2.5448,2.6117,2.6525,2.6879,2.7784,2.8323,2.8446,2.845,2.8562,2.8754,2.8508,2.8204,2.8092,2.8733,2.9177,2.8528,2.8613,2.8425,2.8049,2.7637,2.7427,2.7368,2.7247,2.74,2.7678,2.7411,2.7434,2.7552,2.7525,2.7465,2.7417,2.7496,2.7465,2.7417,2.7582,2.776,2.7806,2.8237,2.8474,2.8576,2.8915,2.9093,2.9141,2.9209,2.9355,2.9512,2.9511,2.957,2.9626,2.9645,2.9645,2.9645,2.955,2.9531,2.9549,2.9491,2.9511,2.9512,2.9492,2.9512,2.957,2.9664,2.9701,2.9806,2.9842,3.0065,3.0217,3.0305,3.0739,3.1137,3.0994,3.1132,3.1362,3.1497,3.1078,3.0776,3.1063,3.1046,3.0608,3.0265,2.9924,2.9888,2.9972,3.0026,3.0026,3.001,2.9972,2.9972,2.9972,2.9956,2.9953,3.0022,2.9988,2.9921,2.9937,3.0,3.0075,3.0118,3.0199,3.0299,3.0379,3.0462,3.0521,3.0559,3.055,3.0559,3.0511,3.0404,2.9843,2.9214,2.8412,2.7755,2.7268,2.6888,2.5454,2.5967,2.645,2.6787,2.7097,2.892,2.9039,2.8494,2.9799,3.0039,2.9744,3.0155,2.9776,2.9641,2.9816,2.9829,2.8971,2.9987,2.9197,2.8541,2.8362,2.7892,2.7594,2.7459,2.7636,2.7969,2.7762,2.7767,2.7805,2.7577,2.7393,2.7198,2.7496,2.7526,2.7569,2.7683,2.8,2.8128,2.8525,2.8743,2.8868,2.9141,2.9353,2.9394,2.9513,2.9682,2.9701,2.9645,2.9626,2.9664,2.9664,2.9645,2.9645,2.9589,2.9551,2.9551,2.9589,2.9608,2.9589,2.9589,2.9607,2.9645,2.9738,2.9916,3.0167,3.0,3.0316,3.1083,3.1181,3.1583,3.2096,3.2343,3.206,3.227,3.2291,3.2008,3.1762,3.1762,3.1667,3.1099,3.0758,3.0549,3.0281,3.0389,3.0086,3.0051,3.0022,3.0003,3.0019,3.0019,2.9969,3.0003,3.0102,3.0102,2.9988,3.0015,3.0152,3.0202,3.0241,3.0305,3.0388,3.0475,3.053,3.0559,3.0598,3.0598,3.0607,3.0567,3.0498,3.0336,2.9833,2.8958,2.8422,2.8023,2.7618,2.5905,2.6349,2.6738,2.6942,2.7113,2.8337,2.9025,2.9327,2.9881,2.9824,2.9484,2.9597,2.9257,2.8816,2.8734,2.8812,2.8194,2.8432,2.8273,2.7999,2.7719,2.7584,2.731,2.733,2.7356,2.7684,2.7853,2.7814,2.7508,2.7556,2.7517,2.7465,2.763,2.76,2.7672,2.7829,2.8138,2.85,2.87,2.8845,2.9056,2.9249,2.9433,2.9414,2.955,2.9626,2.9645,2.9589,2.9589,2.9608,2.9682,2.9719,2.9738,2.9718,2.9699,2.9681,2.9699,2.9718,2.9719,2.9719,2.9755,2.9859,2.9962,3.0212,3.0624,3.0763,3.1238,3.1784,3.2091,3.2416,3.3083,3.2838,3.25,3.2918,3.3051,3.2843,3.2747,3.271,3.2476,3.1998,3.1718,3.1493,3.117,3.0902,3.0452,3.0056,3.0045,3.0068,3.0194,3.0338,3.0399,3.0338,3.0414,3.0275,3.0161,3.0213,3.0324,3.0323,3.0352,3.0421,3.0483,3.0537,3.0588,3.0617,3.0617,3.0617,3.0616,3.0613,3.0543,3.046,3.0028,2.9382,2.8993,2.8778,2.8455,2.6367,2.6707,2.7068,2.7149,2.7206,2.8073,2.8905,2.9572,3.0047,3.0149,2.991,2.9509,2.8903,2.8373,2.8417,2.8084,2.8002,2.8032,2.7849,2.7666,2.7456,2.7276,2.733,2.7489,2.773,2.7732,2.8189,2.8357,2.7826,2.7727,2.7647,2.7689,2.7789,2.7818,2.7789,2.8,2.8326,2.8644,2.8868,2.8943,2.9126,2.9332,2.9433,2.9433,2.9531,2.9608,2.9664,2.9664,2.9682,2.9699,2.977,2.9842,2.9857,2.9874,2.9907,2.9891,2.9891,2.9874,2.9876,2.9841,2.9891,2.9988,3.0053,3.0521,3.1108,3.1401,3.1654,3.2794,3.2931,3.3199,3.3958,3.3694,3.3524,3.396,3.396,3.3809,3.3657,3.358,3.327,3.2918,3.2466,3.1746,3.179,3.144,3.1047,3.067,3.0657,3.072,3.0863,3.1005,3.1153,3.1013,3.0842,3.0612,3.035,3.0482,3.056,3.0402,3.0417,3.049,3.0559,3.0588,3.0617,3.0617,3.0617,3.0617,3.0606,3.061,3.061,3.0602,3.0198,2.9847,2.9907,2.9721,2.9428,2.6757,2.7213,2.7522,2.7491,2.733,2.8386,2.8798,2.9033,3.0352,3.1177,3.1218,3.0241,2.958,2.9473,2.9365,2.8881,2.8088,2.8476,2.8435,2.7735,2.7526,2.7465,2.7594,2.7855,2.8011,2.8568,2.8679,2.8574,2.8349,2.8059,2.7882,2.7961,2.8128,2.8165,2.7954,2.8344,2.8587,2.8644,2.8966,2.906,2.9191,2.9373,2.9472,2.9492,2.9531,2.9626,2.9719,2.9736,2.977,2.9834,2.9869,2.9905,2.9905,2.9907,2.991,2.9876,3.0032,3.0102,3.0086,3.0016,3.0181,3.0335,3.0502,3.0944,3.129,3.158,3.2172,3.3558,3.3712,3.4036,3.4491,3.4775,3.468,3.466,3.4641,3.4602,3.4412,3.4353,3.4056,3.3869,3.2596,3.1588,3.1905,3.196,3.1607,3.1377,3.1314,3.1385,3.1597,3.17,3.1859,3.1621,3.1395,3.1229,3.101,3.0856,3.0791,3.0586,3.0567,3.0743,3.0685,3.0617,3.0617,3.0617,3.0606,3.0604,3.0602,3.0607,3.0658,3.0709,3.07,3.0525,3.0632,3.0569,3.0187,2.6841,2.7213,2.7478,2.7461,2.7386,2.794,2.8416,2.8938,2.9799,3.0169,2.9996,2.9814,2.9351,2.8978,2.917,2.8942,2.8169,2.797,2.7865,2.7783,2.763,2.7557,2.7679,2.7884,2.8023,2.8032,2.817,2.8376,2.8017,2.8078,2.8209,2.8309,2.8448,2.8474,2.8422,2.8619,2.8773,2.892,2.9082,2.9169,2.9334,2.9453,2.9511,2.9511,2.957,2.9663,2.9754,2.9769,2.9834,2.9915,2.9934,3.0,3.0053,3.0095,3.0156,3.0289,3.0538,3.1253,3.1531,3.1673,3.1374,3.1271,3.1347,3.1901,3.2778,3.2895,3.358,3.4149,3.4414,3.4698,3.4905,3.4978,3.4975,3.5076,3.5073,3.5035,3.4939,3.4974,3.4852,3.4793,3.4002,3.337,3.3322,3.316,3.2776,3.2622,3.2634,3.2497,3.2598,3.2543,3.2585,3.2237,3.1978,3.1871,3.1737,3.168,3.1555,3.1438,3.1254,3.1158,3.1023,3.0762,3.0606,3.0615,3.061,3.0614,3.0632,3.0678,3.0751,3.0796,3.0791,3.0794,3.079,3.0814,3.0719,2.6387,2.7,2.7048,2.7204,2.7426,2.7824,2.8352,2.8903,2.9096,2.9036,2.9239,2.9427,2.9082,2.8517,2.8575,2.8742,2.8017,2.8035,2.7893,2.7858,2.7742,2.7701,2.7754,2.7941,2.8129,2.8,2.8301,2.8576,2.8162,2.83,2.844,2.8619,2.8791,2.8815,2.8791,2.8863,2.8957,2.9075,2.9163,2.927,2.9392,2.9451,2.9451,2.9511,2.957,2.97,2.9734,2.9801,2.9918,3.0003,3.0083,3.0242,3.0438,3.0619,3.0814,3.1183,3.1518,3.2123,3.2349,3.2851,3.2533,3.2324,3.2477,3.2893,3.3593,3.3593,3.4141,3.4674,3.498,3.5088,3.5136,3.5152,3.5203,3.5296,3.5277,3.5258,3.5277,3.5277,3.5057,3.507,3.4962,3.462,3.4518,3.4424,3.4098,3.4033,3.3986,3.3776,3.3604,3.3604,3.346,3.3063,3.285,3.2821,3.2714,3.2599,3.2444,3.227,3.2029,3.1797,3.1283,3.1011,3.0815,3.0626,3.0639,3.0684,3.0711,3.0751,3.0816,3.0849,3.085,3.0874,3.0918,3.0917,3.0916,2.5385,2.6553,2.6435,2.6817,2.7577,2.795,2.849,2.8947,2.8129,2.8579,2.9737,2.8529,2.8457,2.8858,2.8538,2.8326,2.8237,2.83,2.8156,2.8,2.7915,2.7858,2.8041,2.8405,2.8362,2.8566,2.8811,2.8853,2.8554,2.8669,2.8767,2.8839,2.9003,2.9067,2.9089,2.9067,2.9112,2.92,2.9265,2.9349,2.9409,2.9429,2.945,2.9547,2.9758,2.9961,3.012,3.0311,3.0471,3.0524,3.0508,3.0896,3.124,3.1518,3.2038,3.2462,3.2626,3.2711,3.2985,3.3595,3.3747,3.3519,3.3083,3.3289,3.3701,3.417,3.4582,3.4958,3.5223,3.5251,3.5296,3.5296,3.5311,3.534,3.5355,3.536,3.5398,3.5254,3.4955,3.4822,3.4693,3.459,3.4793,3.4823,3.4908,3.4966,3.485,3.4734,3.4659,3.4911,3.464,3.406,3.3905,3.3866,3.375,3.3557,3.3421,3.3247,3.2764,3.2425,3.1861,3.1457,3.1372,3.1215,3.0852,3.0743,3.0785,3.0813,3.0843,3.087,3.0873,3.0895,3.0916,3.0915,3.0913,2.5266,2.633,2.6423,2.677,2.7272,2.7672,2.7941,2.8053,2.7929,2.824,2.8511,2.8938,2.8752,2.8503,2.8999,2.8793,2.8533,2.8327,2.8255,2.8174,2.8073,2.8035,2.8152,2.8405,2.8443,2.8576,2.8768,2.9046,2.8816,2.891,2.9021,2.9044,2.9156,2.9262,2.9317,2.9299,2.9354,2.9434,2.9535,2.9574,2.9617,2.9714,2.9735,2.9888,3.0469,3.0703,3.0899,3.1485,3.1747,3.191,3.1972,3.2225,3.2267,3.2352,3.2626,3.3356,3.3532,3.3652,3.4184,3.4577,3.4706,3.4649,3.4391,3.4508,3.4751,3.4821,3.4979,3.5215,3.536,3.5388,3.543,3.5443,3.5457,3.5483,3.5502,3.5534,3.5554,3.5457,3.5186,3.5148,3.4998,3.501,3.5201,3.5278,3.5364,3.5588,3.5626,3.5472,3.5414,3.5588,3.5491,3.4853,3.4749,3.4681,3.468,3.4525,3.438,3.4186,3.3664,3.3192,3.2861,3.2493,3.2187,3.1765,3.1311,3.1016,3.0852,3.0874,3.0871,3.087,3.0892,3.0894,3.0913,3.0912,3.0891,2.4344,2.5333,2.5357,2.5761,2.6479,2.7219,2.7368,2.7181,2.7771,2.8083,2.8109,2.8766,2.8802,2.8488,2.8917,2.8925,2.8389,2.8406,2.8406,2.8335,2.8273,2.8335,2.8388,2.8474,2.8543,2.8626,2.8725,2.8936,2.8934,2.9026,2.9134,2.9152,2.9283,2.9545,2.9709,2.9872,3.0086,3.0169,3.0232,3.0158,3.0275,3.0507,3.0621,3.0734,3.1457,3.1675,3.1822,3.2546,3.2691,3.273,3.268,3.2855,3.3102,3.3375,3.3644,3.4276,3.4315,3.4504,3.4843,3.5045,3.5171,3.5235,3.5302,3.5264,3.5249,3.5244,3.5339,3.5457,3.5489,3.5502,3.554,3.5596,3.562,3.5673,3.5673,3.5704,3.5704,3.5693,3.5684,3.5654,3.5646,3.5615,3.5665,3.5704,3.5704,3.5704,3.5704,3.5646,3.5588,3.5646,3.5607,3.5259,3.533,3.5398,3.5359,3.5253,3.5115,3.485,3.4443,3.4037,3.3788,3.3312,3.2778,3.2226,3.171,3.1442,3.117,3.0954,3.0913,3.0892,3.087,3.0849,3.0849,3.0847,3.0845,2.3045,2.4252,2.3912,2.4649,2.5535,2.668,2.6716,2.6146,2.7456,2.8147,2.8147,2.8358,2.8464,2.8492,2.8808,2.8732,2.8484,2.8484,2.8543,2.8536,2.8466,2.8518,2.8644,2.8791,2.8725,2.8821,2.8934,2.9003,2.9062,2.9259,2.9437,2.9255,2.9403,2.9721,3.0228,3.0261,3.0724,3.1619,3.1439,3.1311,3.167,3.2032,3.2316,3.2222,3.2424,3.2587,3.2626,3.2699,3.2803,3.2828,3.2944,3.3361,3.3894,3.4426,3.4791,3.4868,3.4793,3.4904,3.5086,3.5207,3.5266,3.5336,3.5445,3.5489,3.5496,3.5483,3.554,3.5584,3.5596,3.5596,3.5639,3.5651,3.5673,3.5684,3.5704,3.5704,3.5704,3.5704,3.5704,3.5704,3.5704,3.5704,3.5704,3.5704,3.5704,3.5704,3.5704,3.5704,3.5707,3.5707,3.5658,3.5542,3.5582,3.5648,3.5618,3.5566,3.5664,3.5463,3.5071,3.492,3.4691,3.4043,3.3272,3.2949,3.2637,3.1875,3.1483,3.1364,3.1167,3.0868,3.0845,3.0804,3.0801,3.0841,3.0821,2.3215,2.4406,2.5014,2.5532,2.5843,2.6115,2.6302,2.6366,2.6722,2.7245,2.7765,2.7949,2.8255,2.8542,2.8706,2.8676,2.8543,2.8644,2.87,2.8694,2.8626,2.8651,2.87,2.8881,2.8863,2.8887,2.9003,2.9171,2.9296,2.9636,2.9769,2.9403,2.9662,3.028,3.0708,3.0724,3.148,3.2831,3.2838,3.2427,3.2391,3.2355,3.2389,3.2691,3.2952,3.3422,3.3631,3.4067,3.4312,3.4522,3.4503,3.4618,3.4735,3.4925,3.4982,3.4945,3.4982,3.5053,3.5155,3.5266,3.5336,3.5451,3.5558,3.5612,3.5643,3.5643,3.5662,3.5693,3.5704,3.5704,3.5704,3.5704,3.5704,3.5704,3.5704,3.5704,3.5704,3.5704,3.5704,3.5704,3.5704,3.5704,3.5704,3.5704,3.5704,3.5704,3.5704,3.5706,3.5708,3.5715,3.5727,3.565,3.5648,3.5702,3.5725,3.5749,3.5821,3.5841,3.5561,3.5502,3.5527,3.4902,3.4199,3.3984,3.3633,3.2832,3.2206,3.195,3.1693,3.1394,3.1038,3.1094,3.0938,3.0919,3.086,2.3137,2.3947,2.4955,2.5201,2.5039,2.5448,2.5612,2.547,2.5553,2.6053,2.6788,2.7153,2.7614,2.8177,2.8411,2.8695,2.8585,2.8803,2.885,2.8845,2.8839,2.8839,2.8905,2.8952,2.9021,2.9048,2.9085,2.9263,2.9517,2.9494,2.9517,2.9699,3.028,3.068,3.111,3.1579,3.2355,3.3836,3.3957,3.3714,3.3299,3.3449,3.3596,3.3843,3.4013,3.4333,3.4448,3.4829,3.4887,3.5001,3.4906,3.4959,3.4978,3.507,3.5088,3.5102,3.5117,3.5133,3.5243,3.5331,3.5425,3.557,3.5635,3.5676,3.5684,3.5673,3.5673,3.5704,3.5704,3.5704,3.5704,3.5704,3.5704,3.5704,3.5704,3.5704,3.5704,3.5704,3.5704,3.5704,3.5704,3.5704,3.5704,3.5704,3.5716,3.5713,3.5715,3.5745,3.5745,3.5742,3.5753,3.5764,3.5755,3.5788,3.5816,3.5845,3.589,3.5899,3.5898,3.5859,3.5742,3.5508,3.5176,3.4746,3.4258,3.3691,3.3142,3.2789,3.2627,3.2463,3.1934,3.1465,3.1289,3.1192,3.1094,2.297,2.3323,2.4347,2.4392,2.3887,2.4805,2.487,2.4357,2.4577,2.5018,2.5634,2.6221,2.6833,2.7346,2.7859,2.8264,2.8627,2.8915,2.8993,2.9003,2.8975,2.8975,2.9044,2.9134,2.9089,2.9044,2.9062,2.9393,2.9719,2.9687,2.9871,3.032,3.0668,3.0971,3.188,3.2639,3.336,3.4239,3.4603,3.4737,3.4889,3.5057,3.4886,3.4943,3.5075,3.5038,3.5001,3.4983,3.4945,3.4964,3.4964,3.5037,3.5124,3.5174,3.5219,3.5232,3.5228,3.5321,3.5432,3.5457,3.555,3.5646,3.5697,3.5716,3.5715,3.5704,3.5704,3.5704,3.5704,3.5704,3.5704,3.5704,3.5704,3.5781,3.5781,3.582,3.582,3.5839,3.5858,3.582,3.5723,3.5723,3.5704,3.5704,3.5727,3.5742,3.5755,3.5774,3.58,3.5821,3.5841,3.5851,3.5864,3.5884,3.589,3.5896,3.5923,3.5957,3.5957,3.5996,3.5957,3.5762,3.5508,3.5176,3.4687,3.4374,3.4001,3.3626,3.3524,3.3361,3.2812,3.2246,3.2187,3.2012,3.1582,2.3223,2.3567,2.4101,2.4203,2.4072,2.4395,2.4449,2.4558,2.515,2.5296,2.5161,2.5651,2.6283,2.6901,2.7823,2.8225,2.8254,2.8784,2.9123,2.9156,2.9089,2.9067,2.9044,2.9044,2.8994,2.8947,2.8929,2.9085,2.9651,2.9922,2.9946,2.988,3.0532,3.1119,3.2012,3.271,3.3334,3.4339,3.4851,3.4889,3.4889,3.4964,3.4983,3.4983,3.4945,3.4927,3.4927,3.4927,3.4908,3.4945,3.5,3.507,3.5114,3.5174,3.5196,3.5278,3.5292,3.5347,3.5412,3.5502,3.562,3.5684,3.5695,3.5695,3.5704,3.5704,3.5704,3.5704,3.5704,3.5704,3.5704,3.5704,3.5723,3.5936,3.6033,3.6149,3.6226,3.6323,3.6381,3.6091,3.5762,3.5742,3.5704,3.5766,3.5885,3.5898,3.5972,3.5997,3.6087,3.602,3.5932,3.5938,3.5964,3.594,3.5916,3.5916,3.5937,3.5976,3.6016,3.6016,3.6016,3.6016,3.5762,3.5508,3.5448,3.5291,3.4897,3.4464,3.4166,3.3947,3.3515,3.3144,3.3085,3.2851,3.2402]}]]